GFSSGP_925_rhum_000.txt.gz
RH
35 28 24 24 26 27 23 25 29 26 24 17 16 19 18 16 16 22 47 54 58 57 62 90 88 79 81 86 85 75 73 77 80 78 68 69 72 72 72 70 71 70 71 77 78 78 78 83 78
35 23 23 26 21 24 19 26 31 27 18 17 17 18 18 16 16 22 32 54 60 57 61 69 82 86 78 78 68 72 80 87 81 73 69 69 78 69 75 71 72 76 82 84 74 69 76 82 72
31 20 20 23 30 23 25 28 22 18 17 19 18 14 14 15 16 22 44 56 62 59 63 72 90 79 73 75 66 72 79 92 88 78 74 82 85 77 72 68 72 72 76 85 85 83 84 87 85
28 20 19 21 17 19 26 23 17 20 18 20 17 17 14 20 21 36 50 57 56 58 65 81 83 72 75 75 77 75 74 82 91 87 81 82 84 79 70 73 71 70 72 85 85 85 84 86 87
27 22 28 30 30 20 16 17 17 22 20 20 21 20 17 25 40 44 53 58 53 58 65 74 75 72 83 76 76 74 76 73 85 85 82 79 82 83 79 70 74 75 84 88 86 87 86 85 84
29 26 31 34 30 26 23 19 20 20 20 20 20 19 19 29 35 46 59 56 58 63 73 70 76 81 81 70 71 72 73 73 77 84 83 74 81 87 76 82 74 73 81 88 74 73 87 85 90
36 33 33 33 31 29 24 17 19 22 20 21 19 21 16 20 40 52 57 58 66 68 74 72 74 89 77 79 76 73 75 74 73 78 82 80 75 75 78 76 72 76 75 78 84 79 78 89 78
34 32 36 33 29 32 24 19 25 23 22 18 17 19 18 24 34 51 58 61 66 75 76 75 76 77 78 81 85 80 78 76 82 81 76 72 69 74 76 76 78 77 77 77 88 85 84 80 80
33 39 38 35 35 28 22 27 25 24 26 19 18 17 19 31 40 46 49 58 65 74 76 78 75 76 77 77 78 85 82 79 85 83 80 70 68 71 75 75 75 70 69 72 86 91 88 82 74
41 42 36 29 27 28 27 30 31 31 24 22 18 17 18 20 24 30 32 35 48 55 67 75 78 77 79 82 80 79 75 77 73 75 72 66 65 69 81 80 74 71 70 73 74 75 74 78 72
42 42 31 32 30 28 32 32 30 34 33 22 21 17 17 19 19 21 23 34 37 43 53 70 77 79 80 81 78 75 76 76 75 77 75 72 71 68 73 74 76 75 76 78 72 73 71 68 69
46 38 32 32 33 35 36 31 35 32 32 24 22 22 21 19 17 17 20 29 39 46 48 56 68 77 82 80 81 75 75 76 74 75 76 75 72 74 74 72 74 75 73 74 76 74 73 73 72
48 36 37 34 35 36 36 39 36 34 27 23 23 23 21 18 18 19 34 40 42 46 49 53 59 69 77 84 80 78 74 74 72 77 77 78 77 76 76 76 76 77 77 77 76 76 73 73 72
42 40 38 34 36 36 41 36 36 28 22 22 21 22 21 23 27 30 36 39 41 42 44 46 53 60 67 76 80 77 75 74 76 77 79 82 82 81 82 81 78 77 78 78 78 76 77 76 75
40 50 42 39 39 38 36 38 33 24 19 21 20 21 30 35 35 37 41 38 41 39 45 45 49 52 63 71 77 76 78 80 78 78 80 83 82 82 83 82 81 78 80 81 81 80 79 78 76
56 52 54 37 38 37 35 40 26 21 20 20 22 26 32 36 36 40 43 42 43 42 46 53 56 57 63 68 74 72 75 77 78 78 78 79 80 83 84 83 82 83 82 80 78 77 75 74 74
61 63 55 42 37 37 37 35 22 21 22 21 20 27 31 33 35 41 43 43 44 46 51 53 57 61 67 70 72 73 75 74 76 78 80 86 87 88 85 80 73 69 70 69 70 68 70 75 70
66 58 45 47 36 35 34 36 26 22 23 22 22 28 31 33 38 42 43 44 46 50 55 58 64 66 68 70 73 76 78 77 71 64 61 58 53 55 55 51 48 49 48 47 46 48 48 49 51
39 44 49 39 34 37 38 36 28 26 24 24 25 29 32 34 38 42 43 41 43 46 51 59 67 67 64 66 66 62 58 54 53 52 49 46 45 44 45 44 42 43 43 44 45 45 45 42 42
45 47 47 34 36 37 38 40 33 26 24 23 25 29 32 36 35 40 41 42 42 43 45 52 63 68 72 72 62 56 55 54 53 53 51 48 44 43 41 43 42 45 44 44 46 47 47 42 42
50 50 41 42 44 41 38 37 31 25 25 26 25 29 31 33 35 37 40 43 43 47 48 50 55 57 53 51 52 53 55 51 49 48 46 46 43 39 40 40 38 38 39 39 40 39 42 42 38
57 42 45 52 64 57 38 46 32 24 27 30 33 34 35 37 37 38 40 43 48 54 54 52 51 52 53 50 49 46 44 45 46 44 44 40 40 33 31 32 33 32 33 35 35 33 39 42 39
48 47 49 53 60 55 46 44 30 28 28 31 34 34 36 37 38 42 44 49 53 56 56 53 51 50 50 49 45 42 42 44 43 40 36 35 34 31 27 27 30 29 29 31 34 34 38 40 38
48 50 52 48 52 62 41 41 31 25 22 26 33 35 38 40 40 42 48 49 54 59 57 53 50 51 51 48 46 45 41 37 35 33 27 24 22 24 26 26 27 28 30 30 31 33 41 41 34
49 60 97 90 79 58 38 42 28 24 24 24 32 36 37 40 42 44 46 47 51 56 58 52 49 49 48 46 43 42 40 34 29 25 22 20 18 22 24 27 27 27 28 28 29 30 39 37 37
61 52 52 62 58 46 43 43 26 24 24 23 25 31 36 40 39 42 44 48 53 56 55 52 50 49 45 42 38 34 32 28 24 23 20 19 20 22 26 27 27 27 26 26 26 27 29 29 30
82 79 39 46 48 45 37 34 27 28 29 29 28 33 40 41 42 43 47 50 53 53 52 52 52 50 44 38 32 28 25 23 22 20 20 21 22 22 24 25 25 26 26 25 26 24 25 26 27
61 49 66 53 60 56 41 39 30 26 27 31 30 35 39 41 42 44 45 50 52 52 54 51 48 46 41 34 28 25 21 19 19 19 20 22 22 24 25 24 24 25 24 24 25 25 25 25 28
56 73 62 44 44 43 41 34 24 25 26 28 28 31 38 43 42 44 45 53 53 52 51 48 48 44 37 30 24 21 20 19 18 19 20 22 23 24 25 24 25 23 23 23 24 24 24 28 31
44 48 47 54 56 44 41 33 24 25 28 29 28 31 37 38 41 42 48 55 51 48 48 46 45 42 35 27 22 20 21 20 19 20 21 22 22 24 26 26 25 23 23 25 24 25 26 30 31

GFSSGP_925_rhum_003.txt.gz
RH
37 27 23 21 24 20 20 18 22 25 24 16 16 17 19 16 17 25 37 40 41 44 57 82 88 77 75 88 84 83 72 75 71 72 70 64 70 67 63 71 74 73 71 79 78 80 76 82 86
36 24 21 20 19 22 16 16 21 23 18 16 16 16 18 16 14 23 30 42 42 43 55 68 80 74 75 82 77 75 82 83 75 74 71 73 75 74 72 70 68 75 76 83 82 65 76 76 85
29 22 21 24 21 22 24 20 22 18 17 17 18 14 14 16 16 20 35 43 43 44 50 68 73 77 78 74 71 74 76 86 84 77 75 84 83 81 78 73 70 73 70 82 83 81 81 86 84
25 19 19 27 24 15 19 20 16 18 18 16 17 19 13 19 20 30 38 41 40 44 50 80 80 83 70 74 76 72 75 77 88 85 82 77 86 86 79 69 71 71 74 83 85 85 85 81 78
25 21 27 28 27 22 11 12 16 19 19 19 18 20 18 22 29 32 38 39 38 43 52 76 86 84 72 77 75 74 74 69 74 83 81 83 89 88 87 80 73 72 74 81 81 83 86 88 84
30 24 30 28 25 23 19 14 15 16 17 17 18 19 20 22 26 36 42 40 40 46 56 68 74 72 71 74 68 69 68 69 70 70 80 83 80 81 86 86 78 68 71 74 75 81 80 90 88
34 31 33 25 23 25 21 15 14 17 19 18 17 20 17 20 27 38 42 40 46 50 57 59 71 79 75 71 78 77 72 71 72 78 78 86 75 77 78 80 78 71 73 82 86 80 83 83 87
33 31 36 29 28 26 20 18 15 20 20 16 15 19 19 19 26 36 44 45 48 54 57 58 60 69 75 77 72 72 77 74 75 80 78 69 66 63 70 72 75 79 75 66 73 88 87 86 87
31 38 38 30 28 25 19 23 19 20 22 19 16 16 15 18 21 29 37 44 49 56 58 59 59 62 62 62 76 75 74 78 80 82 77 73 66 63 67 63 66 58 60 65 74 90 91 78 71
40 40 34 24 22 24 21 23 24 26 23 20 18 14 15 16 16 18 22 25 38 47 55 58 59 61 64 64 66 72 67 73 70 67 65 60 55 58 69 66 69 70 72 77 73 75 73 80 81
40 41 28 25 22 24 25 26 23 28 30 22 20 17 16 17 16 16 17 18 26 36 43 55 60 62 63 65 66 62 63 64 60 62 63 62 63 61 64 65 68 72 71 76 71 72 72 66 67
42 34 30 26 25 29 31 26 27 27 27 22 22 20 20 19 15 15 15 18 25 34 39 48 57 64 64 65 70 61 61 62 60 61 63 63 62 65 66 66 70 72 70 71 72 71 70 69 68
43 34 28 28 26 28 29 31 31 30 24 21 19 19 20 19 16 15 17 27 29 34 40 44 51 58 65 69 65 64 61 63 60 66 68 69 69 69 70 70 70 72 72 73 71 70 67 66 66
42 35 32 28 29 29 33 31 29 27 23 21 18 16 17 17 18 21 23 27 32 34 40 43 47 51 59 65 68 66 64 62 65 67 70 74 74 75 76 75 72 72 72 71 72 72 70 68 66
42 45 37 32 30 30 30 37 33 25 22 17 14 14 17 22 26 25 30 31 33 34 38 38 41 45 54 63 68 66 67 69 68 70 71 73 74 76 77 75 74 77 74 72 67 65 64 62 60
51 57 62 38 33 29 34 45 25 19 17 17 17 18 24 28 27 31 34 34 35 35 39 47 50 47 52 58 66 64 65 67 69 69 69 74 76 80 77 74 68 60 59 56 54 50 49 50 50
78 75 66 46 30 32 36 38 24 19 18 18 17 17 22 27 28 33 33 34 35 39 42 48 50 51 56 62 64 65 65 65 69 70 71 64 60 60 54 47 43 40 42 40 40 39 40 41 41
76 72 53 56 33 34 36 36 27 19 20 20 17 19 24 27 31 33 35 37 40 44 47 51 54 56 59 61 63 66 62 53 48 45 44 42 40 42 41 39 38 38 38 40 42 41 43 43 42
55 62 49 42 31 33 37 33 26 22 22 22 19 22 25 28 31 35 35 36 39 44 49 54 54 56 58 61 59 54 51 50 48 45 41 39 38 36 39 39 38 40 40 39 38 36 38 37 37
63 56 45 42 32 34 32 32 26 25 25 22 19 22 25 30 30 33 34 34 35 40 47 51 57 60 56 53 53 51 49 46 46 45 40 37 35 35 34 36 33 33 33 33 33 31 34 32 33
58 64 53 45 36 34 35 41 35 28 23 22 19 21 25 28 31 32 33 35 37 41 46 49 49 49 51 52 52 49 46 42 39 39 39 38 33 28 28 29 28 27 28 29 29 27 32 37 33
82 56 36 41 44 49 36 39 25 25 24 23 22 24 27 28 28 31 32 36 41 46 45 44 45 44 44 42 40 38 37 37 39 38 38 34 33 27 24 26 28 27 26 29 30 28 34 36 34
81 57 40 45 47 57 52 48 30 22 24 25 23 26 28 30 32 34 35 40 44 47 46 43 43 42 41 38 36 36 37 38 36 34 31 26 26 25 26 25 27 28 29 30 32 32 34 38 33
63 56 55 48 46 59 38 41 28 26 23 21 24 27 31 31 33 35 39 43 49 51 48 45 43 43 42 42 40 39 36 34 33 29 26 22 20 22 25 26 26 27 29 30 29 30 32 36 34
72 79 82 70 67 49 31 37 29 20 19 18 25 28 31 32 35 37 40 41 47 50 48 44 42 42 42 40 39 39 37 32 29 25 22 20 19 21 24 26 25 26 27 27 27 27 29 27 30
80 69 48 58 54 41 35 43 28 20 18 18 23 27 30 34 34 37 37 40 47 48 45 43 42 41 39 37 35 33 31 28 24 23 21 19 19 20 22 25 24 24 25 25 25 25 24 24 26
83 75 39 40 35 38 38 29 23 22 24 21 24 28 32 33 35 36 38 42 47 48 45 45 43 41 38 35 30 27 25 24 23 21 20 21 20 19 21 24 24 24 24 24 24 24 25 24 25
72 42 54 43 51 46 36 30 29 26 25 24 23 29 31 33 34 36 38 41 44 46 46 45 44 41 37 31 28 25 22 20 19 19 20 20 20 21 23 22 22 22 22 22 23 24 24 24 24
83 68 48 34 36 39 40 33 22 22 22 24 24 25 30 34 35 36 37 42 45 47 47 44 43 39 34 30 25 23 21 19 18 18 19 19 20 21 22 22 22 22 22 22 23 23 23 23 25
59 60 41 43 50 37 36 33 20 20 23 23 23 25 28 33 34 35 37 44 45 45 44 42 43 38 34 27 23 22 21 20 19 19 20 20 20 21 22 23 23 23 23 25 26 25 24 24 27

GFSSGP_925_rhum_006.txt.gz
RH
29 31 22 26 42 35 36 23 24 25 24 19 18 19 22 20 22 43 37 39 43 57 75 80 82 72 81 86 82 77 76 72 78 70 65 65 65 66 66 75 76 71 71 80 80 79 81 82 88
31 30 22 36 36 37 28 18 25 24 21 19 19 18 19 21 25 38 41 40 41 54 69 82 81 72 72 76 77 80 85 82 78 73 71 67 72 67 64 65 68 73 73 82 82 79 80 80 82
32 25 33 40 36 29 29 26 24 19 18 19 20 16 16 25 28 33 41 41 41 46 63 77 65 67 71 72 64 76 87 79 78 75 69 76 77 86 79 64 67 71 71 73 84 83 78 75 82
30 28 29 36 39 27 15 19 18 19 19 18 20 23 22 27 29 34 40 40 41 46 60 73 69 74 72 72 74 68 71 80 88 82 65 79 89 88 87 66 67 70 75 74 85 86 88 88 84
27 35 41 39 35 25 19 11 18 19 20 20 19 24 26 26 30 35 38 37 40 47 66 71 76 77 67 73 76 70 70 69 75 78 70 85 90 79 87 82 75 73 70 74 79 77 82 89 93
42 36 46 43 31 23 20 18 15 17 17 19 20 22 29 28 34 39 39 38 39 48 63 66 82 73 65 72 68 67 71 70 70 70 67 84 78 82 84 85 80 78 70 83 78 78 81 85 91
46 47 47 39 32 25 22 17 15 16 21 20 18 21 27 29 34 38 41 39 42 50 57 69 68 65 67 70 76 75 72 74 75 82 72 68 66 71 74 76 73 69 68 68 78 88 85 80 85
42 44 46 41 39 35 21 21 17 17 22 20 16 23 25 25 29 36 43 42 45 51 56 61 72 75 67 66 69 69 73 77 76 77 75 66 55 61 65 66 70 74 77 64 54 63 83 87 76
37 57 53 43 38 32 21 23 20 19 24 22 20 19 18 17 23 31 37 46 46 53 55 56 60 70 73 74 74 70 69 72 73 74 68 67 55 63 68 70 67 64 55 54 58 60 66 70 72
51 61 51 31 28 27 23 23 23 26 28 26 22 18 15 16 16 18 25 37 47 51 55 57 57 60 61 62 71 75 73 74 69 71 70 64 58 58 63 62 66 71 73 73 73 73 74 73 70
50 61 40 30 25 24 25 28 23 28 34 29 26 24 24 20 20 18 18 19 30 42 50 56 58 59 63 64 65 68 66 67 65 63 62 63 62 62 65 66 66 71 74 72 72 73 72 70 70
53 43 39 36 29 27 31 28 31 29 30 27 26 24 24 24 22 19 17 16 23 34 42 51 56 60 62 65 66 62 61 62 60 61 62 63 64 65 66 68 70 70 71 73 73 73 73 71 68
50 42 34 31 31 29 28 35 35 32 28 26 25 25 26 24 23 18 15 25 27 33 38 45 53 60 64 65 66 63 60 61 62 64 67 68 70 70 73 73 74 74 76 75 74 73 73 68 66
46 44 44 36 31 30 32 34 34 32 27 27 26 24 18 20 22 21 21 25 31 34 39 42 46 54 63 68 66 65 63 61 64 65 70 74 75 77 77 74 76 77 72 70 66 63 62 61 61
48 67 48 45 36 32 31 39 38 31 28 28 26 17 18 22 25 26 31 31 32 35 36 37 41 48 57 65 68 66 66 67 68 69 71 72 74 78 75 76 64 57 57 51 50 41 41 42 43
73 68 85 49 38 35 35 48 35 28 28 27 18 17 26 29 27 30 33 33 34 36 40 46 42 43 53 64 67 64 66 68 70 70 75 75 75 70 62 48 42 39 40 40 40 41 42 44 44
78 82 83 67 42 37 38 45 35 30 25 23 20 20 29 33 33 33 34 34 35 39 46 50 47 47 56 64 65 65 66 67 62 53 49 46 46 42 40 38 38 38 41 42 41 39 41 39 39
79 90 65 72 51 40 41 41 36 31 25 24 22 20 30 34 37 33 34 37 41 46 52 54 56 58 63 64 66 61 51 46 44 42 39 38 38 37 37 38 38 36 38 36 34 34 29 34 34
60 60 74 52 47 44 43 40 37 31 30 29 26 24 32 39 38 34 37 42 47 50 54 58 59 61 63 67 53 51 49 46 43 38 35 34 34 33 29 31 31 29 33 31 30 29 32 35 34
65 74 80 54 45 46 42 41 35 32 29 28 28 26 36 41 41 38 36 39 48 54 58 59 57 57 57 53 52 50 48 45 40 38 36 31 25 23 24 23 27 25 28 26 28 28 35 38 35
62 74 79 69 46 49 42 46 38 30 26 28 27 26 35 39 42 42 42 41 48 50 51 56 58 54 54 51 49 45 43 40 40 40 36 32 24 20 20 23 25 24 27 29 28 30 34 41 36
66 56 64 79 68 76 43 63 42 34 34 31 28 30 36 39 40 41 44 44 47 48 48 48 49 50 50 48 47 41 38 40 39 36 33 30 26 23 21 24 26 26 28 27 28 29 30 37 41
61 52 68 82 85 74 51 58 42 34 39 32 29 34 37 39 41 44 50 48 49 46 45 43 41 39 37 36 35 38 39 37 35 31 26 23 24 23 20 24 24 25 23 23 23 25 28 32 36
52 64 76 92 90 95 76 54 47 37 31 30 28 36 37 39 43 47 46 50 52 47 44 42 42 42 40 39 38 37 37 35 29 26 23 20 22 22 21 20 20 23 23 24 25 25 26 27 29
68 79 95 100 99 82 45 54 35 26 24 25 28 35 38 42 46 51 56 58 55 50 45 44 43 42 40 40 38 36 32 29 25 22 20 20 20 21 20 20 20 22 24 24 24 24 24 25 26
81 84 100 96 98 59 38 52 40 24 22 25 27 34 38 42 47 51 55 55 55 50 43 43 41 40 38 37 35 32 28 25 23 22 20 19 20 19 19 20 21 22 23 23 23 24 24 25 26
91 97 79 99 37 54 50 34 28 28 26 30 33 37 41 42 46 50 53 53 52 47 44 43 40 38 35 31 28 26 25 24 21 20 19 19 19 20 20 22 22 21 21 22 22 22 23 25 25
88 68 99 87 56 65 54 46 43 36 34 31 36 40 41 42 46 48 51 52 49 47 46 43 40 37 33 30 26 23 22 19 18 18 18 19 19 20 20 21 21 20 22 22 22 23 25 25 25
98 98 93 80 55 56 61 48 33 32 32 31 34 36 40 42 44 47 51 49 47 47 46 44 41 36 31 27 24 22 21 19 19 19 19 18 19 20 21 22 22 22 24 24 25 26 27 26 26
80 78 78 57 60 49 53 46 26 30 28 31 30 33 37 40 44 47 51 50 48 49 45 43 39 34 30 25 23 23 21 20 20 20 20 21 21 22 22 23 24 25 26 27 28 29 29 30 28

GFSSGP_925_rhum_009.txt.gz
RH
27 26 30 27 36 45 42 31 24 30 26 21 20 20 22 24 27 46 42 48 54 64 71 84 80 71 73 82 78 72 72 74 71 66 68 68 64 67 78 77 71 70 74 79 81 78 83 85 89
29 31 29 39 37 40 39 26 31 24 21 23 21 20 21 27 37 50 44 50 54 58 59 73 71 80 72 75 76 70 76 77 74 70 66 63 64 63 64 69 69 71 71 74 82 80 72 77 71
34 33 37 44 47 34 31 24 21 19 19 22 22 20 24 32 40 44 41 45 55 64 58 74 80 63 70 85 63 69 84 77 74 69 69 72 69 70 73 64 65 68 73 71 72 75 73 64 57
36 36 37 40 42 36 28 16 18 19 19 21 20 25 31 31 34 41 41 42 55 68 72 66 61 74 75 70 67 70 85 85 78 62 66 80 89 78 80 65 63 69 71 71 71 77 82 86 85
35 48 49 47 43 35 25 17 17 19 18 20 20 24 33 34 38 40 40 42 47 61 73 69 71 73 74 71 72 71 73 75 71 66 65 84 76 75 79 77 68 71 67 69 74 80 82 86 91
51 49 59 59 47 33 27 19 17 17 18 21 22 23 34 38 38 40 38 42 47 58 68 71 78 74 68 71 74 71 72 75 73 65 69 78 72 75 80 84 80 77 77 78 89 86 87 83 88
57 63 63 53 48 41 26 17 16 17 22 23 22 24 33 37 39 40 39 40 53 58 61 59 83 78 64 72 70 71 73 77 75 74 68 60 65 68 72 78 77 72 70 72 77 90 91 90 85
56 60 62 56 50 47 30 22 18 18 21 21 20 27 32 32 37 42 42 40 51 56 60 62 62 61 64 66 72 77 77 78 80 76 73 60 50 61 62 64 69 70 76 68 54 56 60 63 68
51 74 74 62 51 41 32 24 20 20 24 23 22 21 20 27 34 40 43 46 48 56 60 63 65 65 58 62 70 71 69 72 72 69 64 50 49 63 72 73 70 65 65 70 72 72 74 74 71
70 83 68 45 41 38 32 27 24 25 29 29 27 23 21 27 35 41 45 49 49 53 57 62 63 69 69 76 76 73 71 68 63 65 67 64 64 65 68 65 66 70 74 73 73 74 74 74 73
66 74 56 45 38 35 33 30 26 29 33 31 31 28 25 21 22 20 24 42 43 51 54 58 61 65 68 75 74 71 70 69 70 70 66 65 63 62 65 67 68 72 73 74 75 75 76 75 72
79 60 55 50 44 42 40 30 33 32 34 29 32 30 28 28 28 22 20 20 26 48 52 56 58 61 63 64 65 70 69 67 67 64 64 64 66 66 68 70 72 71 77 78 76 72 71 66 66
72 58 50 45 44 40 37 39 37 36 33 30 29 29 32 32 30 23 20 25 29 44 50 54 57 60 64 66 67 67 63 64 62 63 66 68 69 68 73 74 78 77 73 70 65 56 53 53 52
57 57 52 45 44 40 39 38 39 37 33 33 32 33 34 29 24 25 23 28 30 38 47 52 54 60 64 67 67 65 62 60 62 64 67 73 75 77 74 78 64 56 51 48 45 41 40 41 42
61 71 59 60 48 50 44 45 42 36 33 35 34 34 25 30 29 31 34 34 37 40 42 44 49 56 64 68 68 65 64 61 66 67 75 72 76 78 66 46 42 42 41 40 38 37 37 41 36
74 76 85 58 56 48 46 60 39 34 37 38 37 34 31 33 32 35 34 35 35 36 37 39 45 54 64 68 68 65 66 65 71 74 68 67 54 48 48 40 38 40 39 39 36 35 33 29 36
87 85 88 78 54 52 47 55 42 36 36 39 37 28 37 39 41 36 35 35 35 40 41 43 41 51 66 69 68 68 68 66 58 57 55 44 41 39 35 36 34 35 36 34 28 24 22 34 30
72 88 67 83 61 58 63 56 43 38 36 39 32 27 43 44 43 36 35 35 39 45 50 50 46 59 69 68 63 60 53 50 47 42 38 33 34 33 32 29 24 27 29 22 22 19 20 29 34
64 66 66 60 56 60 56 58 45 38 40 38 34 37 47 49 45 38 38 42 50 54 58 56 65 68 66 62 54 48 42 40 38 34 32 31 27 22 20 21 20 24 23 22 26 22 26 27 34
73 86 84 66 61 72 63 57 47 40 38 39 37 40 50 51 48 47 46 54 56 61 62 64 66 68 64 60 54 49 42 38 34 31 27 22 21 20 20 20 19 21 20 18 26 26 30 36 35
75 88 81 76 64 65 73 73 55 43 37 35 35 36 45 48 50 51 57 58 59 64 62 64 66 60 55 52 49 43 38 38 36 34 29 25 23 19 20 19 19 20 20 19 23 26 28 39 31
79 56 59 66 70 89 65 82 61 47 40 37 37 44 50 50 49 54 59 61 55 58 57 56 54 53 51 49 43 41 42 41 39 35 30 26 24 21 20 20 21 21 20 19 21 22 24 24 33
68 51 56 62 78 83 76 89 53 43 43 39 45 44 47 47 48 55 64 59 55 53 53 53 53 50 46 44 42 39 39 38 34 30 26 24 23 22 19 20 22 21 20 21 20 19 21 22 26
54 72 72 72 78 97 85 86 64 45 38 35 39 44 46 48 52 59 60 56 52 46 43 41 40 43 46 43 38 36 36 34 28 25 24 24 23 21 19 18 18 20 20 20 20 20 20 21 23
70 78 92 98 98 87 72 95 76 41 36 33 36 44 46 48 56 64 67 66 56 47 44 42 40 41 40 39 38 37 33 28 25 22 21 21 21 19 20 19 19 19 19 19 19 19 20 22 23
81 75 84 93 83 66 78 100 59 39 33 30 39 42 46 53 58 64 68 67 58 49 46 43 41 41 38 36 33 30 28 25 23 21 20 20 19 19 19 18 18 17 17 18 19 21 22 23 24
76 87 63 98 90 86 91 78 53 36 35 38 44 45 50 56 59 64 67 65 57 49 46 42 40 38 36 34 30 27 25 23 21 20 19 19 18 19 16 16 16 15 17 20 22 23 24 26 27
60 58 90 99 98 96 86 57 49 40 42 46 48 49 51 54 57 61 64 66 55 48 44 40 38 34 31 28 26 24 22 20 20 20 20 18 17 17 15 16 16 18 20 24 25 26 28 29 29
91 94 73 75 85 99 97 60 39 36 39 45 47 47 51 54 54 58 63 61 54 49 44 41 37 33 29 26 23 22 20 20 21 21 19 18 17 16 16 18 20 23 25 26 29 30 31 31 33
71 81 60 72 84 97 58 49 33 37 36 40 44 46 47 50 52 58 62 61 58 52 46 41 35 31 27 24 24 22 20 21 22 22 20 18 16 17 19 21 24 26 28 30 32 33 33 33 36

GFSSGP_925_rhum_012.txt.gz
RH
30 28 32 29 32 45 44 34 27 27 27 22 24 22 23 27 28 39 50 54 58 64 85 83 83 82 79 97 90 71 70 73 72 75 76 72 65 70 78 73 72 72 71 77 74 72 75 81 80
32 33 32 44 37 38 38 27 24 22 21 24 24 22 24 38 45 52 65 59 52 60 82 78 74 74 78 84 77 72 73 79 71 67 63 65 63 68 68 70 69 64 70 66 74 67 58 71 71
33 34 42 47 51 42 34 24 22 18 19 24 22 25 31 37 48 48 46 57 56 58 72 74 74 78 90 80 73 67 77 82 75 70 74 69 71 70 65 63 66 68 72 67 65 74 78 81 70
42 40 42 45 48 40 30 30 21 19 17 20 22 32 34 34 38 42 48 54 59 58 67 73 80 84 83 82 70 74 82 85 79 67 73 80 73 72 75 67 61 67 70 70 73 76 84 88 90
40 53 55 52 49 39 33 26 20 20 19 21 23 28 37 37 41 42 49 56 58 63 66 77 78 72 83 74 70 80 89 90 80 77 71 82 72 70 76 80 72 71 69 73 76 88 85 85 89
57 55 66 65 51 39 36 29 21 19 19 21 24 30 36 40 44 42 45 52 54 64 72 73 71 76 76 72 73 76 86 87 81 79 81 82 69 72 78 83 78 76 74 78 90 89 93 92 87
63 69 68 60 55 51 38 29 19 18 23 24 23 33 34 39 41 40 42 46 55 67 74 74 78 77 73 72 74 74 83 81 76 71 66 74 68 67 76 83 81 76 74 76 76 68 70 72 74
63 67 69 63 59 54 36 27 20 19 20 20 21 35 36 33 41 41 42 48 59 68 70 70 77 79 71 72 70 74 78 76 76 76 72 62 52 62 66 69 72 71 72 62 59 67 74 75 74
57 83 86 66 58 46 35 32 25 22 26 24 22 25 22 24 40 45 48 67 72 73 65 63 68 78 62 68 70 77 80 77 77 71 67 60 47 59 70 69 67 68 72 73 73 74 76 77 76
81 92 78 58 50 47 40 33 28 27 31 30 28 25 26 34 47 51 52 53 69 74 70 63 60 58 60 65 70 76 75 74 70 65 67 64 63 65 67 67 68 71 75 75 75 77 78 76 68
79 85 63 54 46 45 45 39 32 32 35 32 29 29 26 36 41 48 50 51 49 56 66 66 63 66 67 68 72 74 74 70 69 68 68 67 63 63 66 69 70 72 75 76 79 77 75 74 70
80 70 62 58 52 54 53 39 42 34 33 28 31 31 31 31 32 32 34 42 47 53 58 62 64 66 72 74 77 76 73 73 72 71 69 69 68 67 70 69 72 77 80 78 73 63 54 54 54
80 67 60 58 57 53 49 53 47 41 34 33 33 31 33 34 36 30 24 22 22 45 52 58 62 64 70 74 71 73 70 71 68 70 68 69 71 66 73 75 76 70 65 52 51 52 49 47 44
60 59 61 57 55 52 55 51 46 40 36 37 35 34 36 35 34 28 27 27 30 30 47 54 61 64 68 68 68 69 68 71 63 63 68 67 71 76 73 64 50 46 46 45 44 40 36 37 34
63 78 71 62 59 61 50 60 58 42 37 38 38 36 36 35 27 29 26 31 32 35 43 54 59 62 66 69 70 66 63 62 67 70 71 76 72 78 57 51 47 44 44 39 35 31 26 22 23
77 78 90 59 60 60 56 75 50 41 42 42 41 41 41 34 36 36 36 36 41 43 51 55 58 64 68 70 68 64 68 65 73 74 73 68 69 58 60 46 39 38 36 33 26 18 18 19 18
87 95 83 73 55 61 64 64 47 42 45 44 42 43 40 41 43 40 37 36 38 40 45 49 54 62 70 72 70 67 68 70 67 64 58 52 49 44 37 31 29 28 26 20 16 15 20 22 19
76 86 80 71 67 65 66 66 56 46 45 45 40 42 38 46 48 40 37 36 37 40 41 42 48 69 75 74 66 64 64 60 56 52 48 44 36 32 27 22 21 22 18 15 16 14 17 28 25
83 79 75 67 54 60 61 66 56 51 49 49 45 46 38 50 46 40 38 39 46 50 51 51 57 78 73 65 57 53 47 46 43 35 30 29 23 21 22 21 20 20 16 20 20 16 17 30 26
78 84 88 70 56 56 66 75 62 48 48 43 43 42 49 52 53 51 51 54 59 61 60 68 76 68 67 63 55 54 48 38 33 29 25 22 22 22 21 20 19 19 16 15 18 20 21 30 30
83 86 76 75 66 60 60 60 59 58 48 43 42 41 48 51 55 60 75 68 67 69 74 79 68 64 62 57 53 44 37 31 28 24 23 22 22 22 21 20 19 18 17 16 19 20 23 28 25
89 67 70 73 78 88 63 82 64 58 58 49 43 46 50 56 54 62 77 77 70 70 72 74 66 64 60 57 51 42 37 36 33 27 26 24 23 22 20 19 18 18 18 18 20 20 21 22 29
78 59 64 68 79 84 74 90 67 60 60 55 43 47 50 52 54 67 72 71 66 66 67 68 62 59 55 53 47 36 35 37 35 29 25 24 24 21 19 17 17 19 20 20 20 20 20 22 24
63 69 69 72 83 96 67 76 63 66 54 51 44 46 52 53 60 69 69 67 64 62 60 60 57 54 51 47 38 36 37 36 34 28 25 24 23 21 19 18 18 18 18 19 20 20 21 22 23
63 74 92 100 98 82 57 78 63 52 42 39 40 50 53 53 64 72 70 67 62 58 58 55 53 52 47 42 40 38 36 31 26 25 24 23 22 20 19 18 18 18 18 18 20 21 22 23 25
73 70 86 91 99 72 68 87 72 54 43 43 43 44 52 58 62 68 66 62 58 54 50 50 50 50 46 41 38 34 30 27 24 22 22 21 20 20 19 17 17 16 16 18 20 22 24 26 27
79 87 59 76 79 88 86 79 67 61 53 41 43 51 56 60 67 69 67 62 59 54 48 44 43 42 39 37 33 28 26 25 24 22 21 21 19 19 17 16 16 16 18 21 24 26 28 29 29
68 62 89 82 99 90 83 88 71 62 47 53 55 56 57 62 69 70 65 63 59 52 47 44 41 37 34 31 29 26 25 24 22 21 21 19 18 17 16 15 15 17 22 26 28 30 30 32 33
84 78 71 63 78 98 82 77 51 51 46 54 56 53 60 66 69 69 66 63 60 52 46 42 38 34 31 28 26 24 22 21 22 22 21 20 17 16 15 15 19 23 25 28 30 32 33 35 34
63 67 62 74 69 71 98 75 38 37 42 49 54 53 58 61 66 68 69 68 62 55 46 40 35 30 27 24 23 21 21 22 23 23 21 18 17 16 16 20 23 26 28 31 32 32 34 38 40

GFSSGP_925_rhum_015.txt.gz
RH
39 32 32 29 33 47 44 37 27 28 26 23 26 26 26 32 29 38 54 58 58 65 82 83 73 88 93 98 96 86 75 76 77 83 90 70 66 66 76 74 75 68 72 70 71 78 76 80 82
34 34 32 47 44 41 40 29 26 23 21 24 25 25 28 42 48 57 62 62 64 65 85 84 83 86 89 98 93 87 82 76 76 74 76 72 68 71 71 71 75 72 71 71 72 65 63 68 74
34 37 42 50 54 48 37 27 25 22 19 23 24 31 33 45 50 57 47 54 65 65 79 78 80 85 91 96 86 80 85 80 72 70 70 67 66 67 66 67 75 73 73 69 70 74 78 82 78
42 43 46 50 52 44 29 31 25 22 17 21 24 30 36 36 43 44 47 56 60 58 74 74 77 83 90 84 80 80 84 84 77 82 72 72 74 72 78 68 62 67 70 68 73 73 81 84 91
42 56 57 56 54 42 36 32 25 25 21 21 23 29 39 38 43 46 52 58 57 59 71 73 74 82 85 84 76 76 88 87 81 78 75 75 72 72 76 81 71 71 70 72 77 86 89 88 88
60 58 70 64 51 42 40 33 29 24 20 21 25 36 37 40 49 50 54 55 60 55 70 75 82 82 82 81 78 84 90 92 81 78 82 86 69 71 76 77 76 78 71 75 84 83 83 87 88
64 68 71 62 57 50 41 32 32 23 24 26 25 36 35 39 44 49 53 56 62 62 70 79 82 81 82 76 77 78 84 88 80 77 85 85 69 69 81 88 83 74 70 72 70 64 71 77 83
69 70 72 70 60 54 38 30 25 22 22 22 26 38 35 33 38 48 52 59 66 69 72 76 73 81 83 79 75 72 75 77 73 72 69 67 66 67 71 72 67 69 72 69 70 74 78 79 78
62 84 87 66 64 46 37 35 30 25 24 27 24 32 24 26 42 50 59 74 79 79 78 76 78 81 80 75 75 74 77 77 78 78 76 70 55 61 66 66 68 71 75 76 78 79 79 79 76
85 94 73 59 52 49 39 38 35 33 35 32 30 26 34 39 47 54 63 79 86 87 83 78 78 79 81 75 76 76 81 80 82 76 71 64 54 63 68 69 70 72 76 78 80 81 82 78 74
83 84 64 59 53 48 50 44 37 37 40 34 32 30 32 44 55 56 55 61 73 73 81 76 72 72 77 67 70 78 82 80 79 72 71 71 68 67 68 71 72 72 75 79 82 77 67 64 58
80 72 69 63 55 59 61 48 46 40 37 32 33 31 30 38 49 53 53 50 57 66 67 68 69 70 65 64 69 74 80 76 74 70 73 73 69 68 71 68 74 81 83 79 57 53 53 51 48
81 74 64 62 66 64 60 63 63 53 42 36 36 37 38 37 35 31 34 35 36 50 58 65 68 68 68 70 73 77 76 74 73 76 75 73 71 68 67 78 73 66 54 50 49 50 46 39 35
65 65 64 60 63 62 64 61 60 52 43 42 40 39 38 39 38 34 32 29 30 25 40 57 65 67 69 75 77 76 76 74 77 75 72 70 78 76 68 62 54 49 46 43 40 36 30 25 22
67 80 72 69 62 65 56 65 64 53 51 48 44 42 39 39 34 34 26 25 25 24 24 46 59 66 70 75 76 75 77 82 76 68 76 83 73 72 64 60 52 45 40 35 29 21 17 16 15
77 80 93 60 63 62 62 69 53 49 50 50 47 47 44 43 36 30 28 25 26 34 39 47 60 65 68 72 75 78 79 74 76 78 76 76 73 70 59 52 43 35 29 22 17 15 15 15 14
86 91 90 73 59 62 72 68 52 47 50 52 50 48 44 44 40 34 33 36 38 39 43 55 61 67 72 76 78 78 76 73 73 74 67 62 62 50 49 32 26 23 20 17 15 13 16 17 13
82 98 85 81 62 63 72 66 57 56 55 54 49 45 49 45 41 37 39 39 41 45 52 60 66 72 79 81 74 72 70 67 69 60 54 58 40 30 24 22 21 20 17 15 13 13 15 24 16
88 90 92 73 57 70 75 71 59 57 59 56 59 51 50 43 43 42 41 40 41 45 47 53 66 81 79 73 64 63 60 56 52 48 44 37 26 22 22 22 21 19 16 16 15 13 14 20 22
79 91 87 77 63 65 66 69 58 56 54 56 52 52 49 45 51 50 45 46 49 50 52 52 70 81 73 67 63 65 52 42 36 30 26 23 23 23 23 22 20 18 15 14 15 17 18 19 30
85 92 82 80 62 60 64 58 40 38 45 50 51 47 44 46 52 58 66 63 65 65 65 66 74 73 69 64 58 50 42 34 28 24 23 23 24 24 23 22 20 17 15 16 18 20 21 25 22
83 72 75 77 82 93 65 62 45 47 46 46 51 51 49 53 51 61 80 81 78 75 78 74 72 70 65 60 57 52 42 31 25 24 24 24 24 23 22 20 18 17 17 17 18 20 21 24 30
72 62 70 77 90 91 78 91 69 51 53 53 62 53 52 54 54 64 77 78 76 79 83 73 70 66 59 59 58 53 41 30 27 26 25 25 24 22 20 19 18 17 17 18 19 19 20 22 26
63 76 80 77 85 94 70 79 54 43 57 58 55 55 52 56 58 71 82 79 79 79 77 69 65 60 57 56 54 51 34 31 29 26 25 24 24 22 21 19 17 16 17 17 18 20 21 23 26
63 85 97 98 97 84 60 72 58 45 45 46 49 52 54 56 70 82 84 81 78 77 74 67 64 59 56 54 47 37 32 33 30 27 25 25 23 22 20 18 17 16 16 18 20 22 24 26 28
78 76 90 91 94 84 52 78 56 50 36 32 34 48 58 58 65 75 78 76 74 74 70 66 62 57 53 45 40 37 37 34 29 26 25 24 22 22 19 17 16 16 17 20 23 25 27 29 30
100 98 69 75 66 96 83 74 68 64 66 61 56 55 63 62 67 74 76 70 70 67 64 62 58 54 48 44 41 38 32 27 24 23 23 23 22 20 18 16 16 18 21 24 26 28 29 30 31
72 64 94 98 96 90 73 86 67 62 54 49 55 51 59 62 70 74 70 67 65 61 59 57 54 51 46 40 36 31 27 25 24 23 23 22 20 18 17 16 18 21 24 28 29 29 29 32 35
86 84 74 72 84 91 85 54 64 57 48 56 58 59 62 66 73 74 67 64 64 57 54 52 49 44 39 34 29 26 25 24 22 24 23 21 19 17 17 19 22 24 27 29 29 28 32 37 40
63 69 73 94 84 68 84 71 46 57 48 51 59 62 68 74 74 69 68 68 62 56 49 44 39 35 32 29 26 24 23 23 24 24 23 20 18 18 20 22 25 28 30 29 28 32 40 43 45

GFSSGP_925_rhum_018.txt.gz
RH
39 32 31 28 40 50 48 39 28 28 28 24 26 26 27 30 34 40 56 61 58 62 77 76 71 83 96 97 94 82 74 82 81 86 92 77 73 67 72 74 76 74 76 74 82 81 83 85 88
40 33 30 47 48 45 42 33 28 25 21 23 27 29 29 37 49 54 64 63 61 61 79 77 73 92 95 98 95 82 82 79 79 90 82 69 68 69 67 69 75 79 79 73 70 67 68 67 70
40 36 41 50 57 53 39 28 28 28 24 23 25 31 34 43 50 54 50 58 66 70 79 80 80 92 94 98 88 89 84 78 77 73 74 70 68 68 70 70 78 75 73 69 69 65 66 70 73
42 43 49 51 55 46 32 26 30 31 23 22 26 29 35 38 46 46 49 57 68 74 80 80 85 87 90 88 88 91 88 81 74 83 70 70 74 73 72 70 76 68 64 63 69 70 73 73 79
43 58 57 59 57 45 38 33 31 34 27 22 23 27 36 38 45 45 52 58 62 77 82 77 83 89 84 89 88 83 87 86 79 84 72 71 74 76 76 78 72 70 70 70 77 86 91 92 89
62 60 69 66 52 43 40 36 32 27 25 23 26 36 36 40 49 55 54 54 58 63 76 75 81 81 84 84 82 82 84 88 83 79 84 83 70 73 74 80 77 76 72 75 86 94 95 96 96
67 71 69 61 55 49 41 36 34 32 23 26 26 34 34 37 48 53 56 60 64 61 72 76 82 83 84 86 80 78 82 91 79 79 85 88 70 72 83 81 82 74 75 82 87 91 92 84 82
74 69 73 69 61 56 36 34 28 22 22 22 27 34 31 31 46 52 64 68 71 68 72 75 81 86 83 87 79 77 76 77 75 71 80 84 73 69 74 76 69 72 78 80 83 81 81 82 81
65 84 90 72 66 53 38 38 33 29 28 32 27 31 26 29 49 51 65 77 80 77 75 80 83 83 86 86 81 78 74 75 78 78 78 73 60 59 66 65 70 74 78 81 81 83 83 81 81
84 95 75 63 56 50 43 44 40 37 41 38 32 27 34 39 55 59 69 78 85 80 79 80 84 80 88 88 82 80 79 80 81 83 80 69 54 60 69 72 73 75 77 79 81 82 76 65 70
82 87 65 64 56 55 54 51 40 43 50 40 34 35 34 50 57 60 60 65 71 76 78 78 79 82 88 89 82 81 81 82 83 85 76 69 66 68 70 72 74 74 77 77 80 74 55 55 53
81 77 76 68 61 66 67 60 64 48 45 34 40 34 37 34 60 61 59 55 62 68 73 77 80 83 84 87 78 75 80 84 83 80 74 73 69 70 73 74 70 79 79 70 52 52 50 47 40
81 78 68 63 63 67 66 70 71 67 53 46 45 42 41 40 40 41 48 48 51 54 56 67 75 78 78 85 72 73 79 81 76 76 75 75 74 73 70 76 75 65 53 49 47 43 37 30 24
66 69 69 64 62 64 68 65 64 55 52 54 49 46 44 43 40 36 33 30 30 31 34 45 61 70 74 76 69 72 78 79 79 79 78 80 78 76 64 67 58 49 44 41 35 28 22 18 16
71 82 77 73 68 66 60 69 72 52 56 57 56 52 47 44 39 40 31 30 26 25 26 29 45 64 72 71 72 76 79 83 81 83 80 74 78 76 68 63 54 43 35 27 20 17 16 15 15
75 79 89 66 67 63 63 67 50 43 53 58 55 57 53 45 42 36 32 30 27 26 26 31 44 62 72 74 77 83 87 86 85 76 76 78 72 70 69 55 38 28 21 18 16 15 15 15 14
76 89 84 72 56 64 78 74 56 52 57 64 64 61 55 50 45 37 32 30 30 30 30 39 52 69 76 80 88 88 86 87 79 78 78 68 64 62 53 36 24 20 19 18 15 14 14 16 13
80 88 82 79 62 68 77 77 63 55 55 57 61 60 57 53 46 37 34 32 38 41 41 46 68 76 81 87 88 82 79 76 74 69 65 59 47 44 29 22 22 20 19 17 14 13 13 17 15
82 92 94 79 67 74 71 69 60 56 61 62 57 54 60 56 46 38 34 39 43 48 54 62 78 84 83 84 76 67 66 68 62 54 52 46 34 24 23 25 23 21 19 15 13 12 13 16 18
74 81 81 70 66 71 69 68 53 51 55 54 65 60 62 56 49 47 45 45 45 48 55 70 81 84 81 77 71 67 64 61 54 44 32 26 23 23 25 25 23 20 16 15 14 13 14 18 25
86 89 84 84 66 63 68 60 38 31 33 37 39 40 44 55 56 51 56 51 50 53 56 65 82 82 77 72 68 63 51 42 32 26 25 24 24 25 26 24 22 19 16 15 16 16 16 20 20
91 67 74 83 90 91 63 70 44 42 41 32 33 39 50 56 55 52 57 69 59 59 61 62 76 78 73 67 66 62 45 34 29 25 25 24 25 25 24 22 20 18 16 15 17 18 19 22 27
73 65 78 84 94 94 84 93 66 52 53 48 55 61 52 54 52 54 59 59 63 68 75 70 73 74 69 64 64 50 42 36 26 25 25 25 24 23 22 21 19 17 16 16 16 18 20 23 26
63 75 78 82 85 96 72 84 54 43 38 40 44 46 55 58 58 55 62 75 78 84 84 76 72 70 65 59 52 53 50 32 26 26 26 25 24 23 22 20 18 16 15 15 17 19 22 25 27
74 100 97 98 97 84 65 78 56 40 38 41 42 51 55 62 63 78 91 90 92 92 84 75 71 65 58 55 53 53 49 36 27 26 26 25 24 23 21 19 16 15 15 17 19 22 25 27 29
83 80 93 94 94 86 64 82 66 47 37 34 31 43 53 63 70 80 82 85 90 92 82 74 70 63 58 57 53 49 41 30 28 27 26 25 24 23 20 18 16 16 18 20 23 25 27 28 29
98 97 70 84 80 96 79 71 50 55 59 60 51 44 51 65 76 79 85 84 88 87 80 72 68 61 57 52 47 39 33 30 28 28 26 24 23 21 19 17 16 18 21 24 26 27 26 27 32
84 79 98 98 96 92 80 65 62 51 55 57 53 67 62 67 76 84 87 85 83 82 75 71 66 60 53 46 40 38 34 30 27 25 24 23 22 19 17 17 18 22 25 28 28 25 26 32 35
94 96 98 89 95 91 85 58 58 62 59 57 59 51 57 70 75 85 83 78 75 72 70 66 61 54 48 42 37 32 27 25 24 24 23 22 20 18 18 19 22 25 28 29 26 26 32 38 43
61 71 73 81 84 87 86 55 44 63 62 59 73 67 67 72 82 82 77 73 69 65 61 58 53 47 41 36 30 27 25 24 24 24 23 21 19 19 20 22 25 29 30 27 26 31 41 48 49

GFSSGP_925_rhum_021.txt.gz
RH
37 33 32 28 37 38 41 34 31 29 28 25 24 24 26 27 31 34 59 65 61 70 78 84 75 75 89 87 84 75 78 77 81 86 90 82 71 64 69 72 75 76 76 77 84 75 69 77 84
39 34 29 43 40 42 37 31 30 27 24 22 27 30 27 32 44 49 59 64 65 72 78 87 76 82 90 94 88 79 79 82 75 92 85 72 69 65 66 72 77 82 81 78 77 73 70 67 70
41 34 38 43 48 43 38 29 27 29 26 22 26 30 30 37 46 48 51 61 66 74 80 78 77 85 94 98 90 85 83 80 80 88 72 67 69 70 68 72 80 76 60 66 69 64 64 66 67
41 42 41 42 46 42 32 24 30 31 25 22 25 29 33 37 46 49 52 60 70 71 82 77 81 93 90 95 92 90 84 80 77 75 75 65 71 76 75 72 79 72 60 67 75 82 85 83 86
43 49 48 53 48 41 37 33 32 32 28 23 24 26 33 41 47 44 55 63 62 73 84 88 87 90 89 88 91 88 90 81 78 76 68 72 75 79 77 76 71 70 65 70 81 92 95 96 95
56 49 55 55 47 43 37 34 32 30 26 22 25 33 32 40 52 57 62 59 61 65 85 84 88 88 88 84 85 86 89 88 81 84 76 76 75 74 75 79 75 76 71 79 90 95 95 92 88
62 59 59 56 49 46 38 33 32 31 29 23 26 31 29 35 49 60 67 69 64 62 78 81 94 91 84 82 80 80 81 82 80 79 83 86 71 76 81 78 80 75 77 85 89 92 88 85 86
64 57 69 61 50 44 36 37 31 27 23 23 27 29 28 32 52 61 68 72 70 67 75 78 83 88 93 96 82 77 75 78 65 68 80 82 74 70 82 85 75 78 87 85 85 84 84 84 81
63 76 76 61 60 45 40 39 34 33 30 33 29 28 31 37 56 68 78 78 78 78 76 82 82 87 89 92 87 79 77 79 73 72 73 73 66 67 69 67 74 78 80 81 82 84 80 76 73
74 84 74 60 54 48 43 44 41 38 39 38 33 29 31 44 62 64 70 76 89 80 76 82 84 90 91 93 87 82 79 80 81 80 79 73 60 57 68 72 75 76 78 79 81 82 69 62 63
81 79 67 62 55 57 60 56 43 44 50 42 36 34 34 39 54 61 62 63 72 74 76 76 85 92 88 95 88 85 82 82 82 83 79 70 60 64 69 73 75 75 78 80 78 61 54 53 52
78 74 75 68 61 64 67 61 64 54 48 38 36 40 38 37 35 53 59 60 67 64 67 72 80 88 87 92 90 82 81 83 83 82 75 74 73 72 74 75 73 72 75 63 53 51 47 42 33
81 75 67 64 62 62 63 66 63 64 54 47 47 46 45 41 38 36 44 54 54 58 58 64 74 82 84 90 90 84 78 81 82 80 74 75 73 72 69 75 75 66 54 50 48 40 31 23 18
66 70 68 65 62 59 62 58 64 51 50 52 52 49 43 42 39 38 36 34 39 43 45 52 63 76 81 84 87 80 76 83 81 76 74 76 77 74 71 69 61 51 48 41 33 23 18 16 15
74 80 70 69 66 65 60 63 70 50 47 46 45 46 44 40 40 40 36 32 29 28 29 31 40 63 77 81 82 75 75 84 78 79 81 80 77 77 66 66 53 49 35 24 18 17 16 16 15
77 76 76 62 63 63 58 59 48 41 50 52 49 45 48 41 38 36 35 36 29 28 29 28 31 41 72 81 82 75 80 82 81 84 82 78 82 74 68 66 47 28 20 18 18 16 16 16 15
82 86 90 66 57 60 71 74 56 55 54 54 54 53 54 49 45 43 37 37 32 30 30 30 36 55 77 87 81 81 83 89 85 84 81 80 74 69 64 47 29 20 21 21 17 15 14 14 14
84 90 79 71 60 67 69 68 56 48 50 48 46 51 52 50 45 41 37 36 33 31 32 36 45 70 89 92 85 92 94 93 89 84 77 69 69 57 42 31 22 22 24 20 16 14 13 14 13
76 83 86 76 62 69 62 61 52 45 47 49 47 44 44 50 44 43 39 37 34 34 42 48 65 88 93 94 93 89 82 84 80 72 66 62 51 32 25 24 25 24 24 18 15 14 14 17 14
75 82 78 64 61 65 65 65 50 48 46 41 40 41 45 44 48 45 44 41 38 40 49 63 84 90 90 88 84 80 74 64 65 54 44 37 28 24 26 28 27 23 20 17 14 13 15 20 20
77 85 77 72 67 62 67 61 37 31 36 37 37 36 35 39 41 44 46 47 42 50 55 71 89 87 85 84 79 70 61 51 44 37 31 26 25 26 28 27 25 22 18 16 15 14 14 29 26
87 71 72 76 80 80 63 67 37 33 30 30 29 28 32 37 35 38 45 49 53 46 56 69 88 84 81 79 73 70 58 46 39 32 28 26 25 26 26 25 23 20 17 16 16 16 16 18 32
77 63 70 74 88 84 74 88 55 48 47 40 40 37 32 34 39 43 46 46 47 54 57 69 84 81 77 74 72 68 53 46 35 30 27 26 25 25 24 23 21 18 16 15 15 17 18 20 29
71 80 76 81 85 96 68 76 53 41 36 34 32 30 41 45 42 46 46 49 65 60 67 71 81 77 72 71 72 62 55 43 31 28 27 26 24 24 23 21 19 17 15 15 16 18 21 24 26
71 100 95 96 97 82 60 77 53 40 37 36 34 33 33 41 47 56 62 71 82 87 84 79 78 74 68 66 59 55 53 46 30 27 26 25 24 24 22 20 17 16 16 16 18 20 24 26 27
86 84 87 89 85 71 67 81 54 44 35 34 34 33 34 45 53 58 63 71 78 90 89 80 76 72 64 58 54 51 51 36 32 28 26 26 26 24 21 19 17 16 17 18 20 23 24 25 27
97 96 68 84 71 92 63 60 49 44 46 50 50 48 51 41 49 61 70 74 82 91 87 79 75 68 61 56 53 54 41 39 30 27 26 26 25 22 20 18 17 18 19 21 24 25 23 25 30
89 73 96 97 96 86 73 75 61 48 41 55 56 56 55 53 53 67 76 79 87 89 86 79 73 66 62 58 61 55 41 31 28 27 25 25 23 22 19 18 18 20 22 25 25 24 25 29 34
92 98 99 92 90 86 72 48 40 34 45 62 60 63 71 64 57 68 79 87 92 88 81 77 69 64 60 59 49 36 31 29 27 25 25 24 22 20 19 19 21 23 26 26 25 24 30 38 44
65 70 73 95 78 85 87 62 48 58 64 61 64 69 81 81 75 84 85 82 81 77 74 66 59 56 53 46 37 33 30 26 25 24 24 23 22 20 20 21 23 27 28 26 25 29 42 49 54

GFSSGP_925_rhum_024.txt.gz
RH
45 40 33 26 28 26 26 18 20 22 23 19 17 20 21 20 25 28 54 58 59 62 72 84 75 79 82 83 74 70 73 68 83 86 89 84 70 62 71 74 72 78 74 71 71 84 86 90 87
45 33 28 23 28 29 22 19 20 22 20 18 18 21 22 22 26 36 44 62 60 62 72 73 78 75 83 85 76 72 80 69 90 93 84 69 61 65 69 74 80 82 79 78 76 71 64 66 70
42 32 25 26 27 28 24 20 16 21 18 16 21 22 21 26 33 32 48 62 61 65 70 74 81 80 83 88 83 80 81 76 84 91 70 71 68 68 70 77 83 73 70 80 82 79 80 82 85
34 27 25 29 28 24 24 18 22 22 18 18 18 22 23 32 33 41 53 67 62 64 70 88 81 84 87 91 87 87 81 80 89 78 58 67 73 75 73 76 80 72 60 72 79 88 88 85 83
34 28 29 32 26 22 22 21 21 22 21 18 17 21 22 31 42 49 62 66 60 66 70 86 80 85 90 93 93 91 84 80 79 81 64 70 76 82 78 77 74 73 64 74 84 95 94 91 93
34 28 31 30 25 25 23 20 22 21 19 18 17 18 21 33 42 54 63 63 63 68 74 76 90 94 90 90 94 90 88 81 83 73 76 82 76 74 75 80 74 77 70 83 91 94 96 93 90
32 32 26 25 24 24 25 20 23 20 19 19 18 20 20 27 48 60 61 63 68 67 73 74 91 98 90 90 87 83 88 82 80 83 80 82 73 78 85 82 82 79 81 85 86 89 89 89 85
35 31 28 31 26 27 23 24 21 22 20 18 19 20 22 26 53 60 63 64 66 70 73 73 78 86 88 94 86 84 83 77 70 74 80 80 72 78 87 86 80 81 83 85 88 87 83 82 79
45 38 35 32 30 25 28 27 23 25 25 24 21 21 25 35 54 58 60 65 66 69 73 75 72 76 84 85 90 87 84 79 65 66 76 75 74 74 75 79 73 78 81 84 82 82 79 70 64
45 43 33 26 27 30 26 31 29 29 26 24 25 23 26 38 46 51 51 51 58 63 68 73 74 75 83 84 87 84 82 83 74 71 71 67 67 66 67 74 74 77 79 80 80 80 61 56 53
45 46 31 42 37 37 37 39 34 31 31 26 24 23 26 29 32 39 42 41 49 54 62 71 78 80 84 85 85 78 76 74 75 75 74 69 66 66 68 73 75 81 81 70 72 52 49 48 46
55 43 43 40 44 49 46 38 42 35 28 22 29 28 31 29 28 28 35 39 43 53 62 71 84 90 85 83 82 73 72 75 74 75 69 64 65 70 69 69 74 68 69 61 53 44 40 36 32
53 41 46 43 50 46 42 44 41 37 30 29 30 32 33 29 29 29 29 34 41 48 55 68 79 87 88 85 78 74 71 77 75 75 70 68 68 69 76 66 64 69 58 48 42 37 31 26 24
47 52 49 48 45 43 48 40 37 35 30 29 29 29 26 27 26 27 28 29 28 37 43 55 74 86 87 85 80 76 73 75 77 73 73 74 74 77 67 64 69 56 48 45 33 27 24 22 21
54 61 47 44 42 44 43 48 44 33 30 29 28 25 27 25 24 28 28 28 27 26 29 41 56 70 75 80 81 77 73 78 78 72 75 80 78 71 68 66 62 53 42 30 28 26 24 23 22
56 56 56 42 47 45 48 41 28 28 31 34 30 28 26 24 24 22 24 26 28 29 30 31 40 56 68 74 78 76 73 78 75 74 81 82 74 74 66 66 57 43 25 27 27 28 27 24 24
55 52 56 48 39 41 49 46 36 40 39 39 33 32 31 31 31 29 24 25 29 29 29 31 37 41 56 68 74 76 73 79 85 88 84 82 79 72 69 64 41 29 29 29 25 28 26 24 24
48 61 50 48 40 46 47 46 38 35 34 35 33 32 32 32 32 31 30 30 28 29 30 31 35 44 57 68 75 80 81 86 85 83 84 84 76 70 68 44 30 28 29 28 27 25 27 27 25
53 56 56 46 44 50 46 42 35 31 32 33 30 28 27 27 25 28 31 31 33 34 34 35 40 49 62 71 88 86 82 81 79 87 84 78 70 65 47 32 30 30 29 27 24 26 26 28 27
59 64 62 48 42 50 46 45 37 33 32 29 27 24 22 20 22 21 27 29 31 32 34 38 45 56 66 73 77 82 88 80 70 73 71 63 58 45 30 32 32 30 29 29 27 27 27 28 29
58 64 62 63 52 47 50 45 28 22 21 22 24 24 23 21 20 20 20 26 29 33 36 43 53 64 71 71 80 80 70 64 58 55 56 46 35 28 30 33 31 31 31 32 30 30 27 25 30
65 45 51 58 64 69 48 57 31 25 25 22 21 20 21 20 21 21 20 22 25 31 40 50 64 70 73 78 73 69 69 63 56 46 39 37 36 30 32 32 31 30 29 31 29 29 28 25 27
62 51 54 56 64 67 58 83 36 32 32 27 22 19 18 19 20 21 23 23 23 32 46 58 70 72 75 74 71 71 68 62 49 44 36 30 29 32 32 31 30 30 29 30 30 30 29 28 24
58 61 63 61 75 91 56 69 41 28 24 23 21 19 18 17 21 22 22 25 26 35 56 64 71 72 73 72 72 73 65 56 45 37 32 30 32 33 32 31 31 29 30 31 31 32 33 31 30
66 87 75 84 93 63 35 50 43 26 24 23 21 18 21 20 20 24 27 30 36 40 60 67 69 70 72 72 73 72 62 50 46 36 31 32 32 32 32 30 29 30 32 32 32 33 34 34 32
72 69 68 64 50 40 40 59 33 22 23 21 24 25 33 34 34 26 27 34 40 49 60 64 66 66 70 72 71 66 53 48 44 35 32 30 31 31 31 29 28 28 29 30 32 33 34 35 34
79 94 58 79 58 70 44 32 25 22 23 24 25 34 38 39 43 37 29 33 40 51 58 62 63 65 68 67 58 57 52 44 42 38 33 31 31 30 29 28 28 29 30 31 31 29 31 33 35
70 57 89 93 81 66 40 34 33 26 25 26 32 34 39 42 42 41 34 36 44 52 59 62 62 63 63 58 49 49 48 49 41 34 33 31 29 28 29 29 29 30 31 32 32 32 34 34 35
86 95 98 72 76 64 50 33 19 23 21 25 33 39 47 49 45 48 39 45 53 59 65 65 63 61 59 53 52 53 54 47 34 31 31 29 28 28 28 29 29 30 30 31 30 31 34 38 41
43 59 66 94 83 86 84 63 23 27 34 41 36 39 45 53 53 56 56 57 64 68 68 66 62 59 57 52 49 52 45 34 32 30 28 28 28 28 28 28 29 30 31 30 29 32 38 42 44

GFSSGP_925_rhum_027.txt.gz
RH
46 31 25 23 27 25 24 19 13 17 16 14 16 17 18 18 22 29 42 47 44 55 76 88 78 80 95 94 86 75 76 83 82 89 94 82 78 78 66 73 77 76 73 83 86 85 84 87 86
42 27 24 22 29 28 23 15 16 12 16 16 15 15 18 20 20 36 41 49 45 56 70 77 82 77 87 94 82 79 73 85 88 92 84 74 67 68 72 79 82 77 76 77 81 82 80 80 81
41 26 23 26 26 27 21 16 15 15 15 16 17 16 17 22 26 29 40 48 45 54 61 70 76 73 85 88 81 80 80 88 94 86 76 69 67 69 76 81 84 67 74 78 74 65 66 70 72
30 24 21 29 27 20 18 16 14 17 15 16 17 19 18 25 26 32 44 45 45 53 57 79 78 78 81 86 82 86 77 78 92 76 66 71 70 72 74 82 76 62 63 74 84 87 78 72 72
31 23 29 27 23 17 15 16 16 18 16 16 16 18 20 28 34 42 46 44 45 51 63 90 81 83 83 85 84 86 82 84 88 74 75 77 80 80 80 79 76 70 67 76 86 95 92 93 92
30 23 29 27 22 17 14 16 16 17 15 15 17 17 20 30 33 43 48 44 44 52 60 81 84 79 85 86 88 85 84 82 84 82 83 78 77 75 76 84 76 78 77 90 94 97 94 93 92
34 29 27 23 19 16 15 16 18 17 16 15 14 19 19 24 40 44 45 44 46 52 58 71 89 89 86 84 88 87 84 81 83 82 83 81 72 77 89 82 84 82 81 90 93 92 88 84 78
30 28 29 24 20 19 14 16 16 17 17 14 15 18 19 25 43 44 44 46 47 53 56 60 81 93 93 96 86 83 83 75 77 77 80 77 70 82 84 81 82 79 84 87 85 82 80 78 68
35 38 33 28 21 19 14 19 17 16 18 17 16 16 23 28 43 43 45 49 49 53 54 54 64 76 82 82 89 86 82 72 69 76 75 71 73 75 81 88 67 78 80 82 80 80 74 61 57
43 39 30 18 16 19 18 22 19 22 22 18 20 19 23 29 36 41 42 44 47 51 54 57 56 62 76 84 86 82 83 82 69 67 75 70 62 64 63 72 72 78 78 78 77 73 53 51 50
38 40 23 20 27 26 24 22 23 26 26 18 18 19 20 24 30 33 36 36 41 46 50 57 58 58 72 77 85 72 69 71 64 60 60 56 58 66 66 72 74 79 79 65 61 50 48 47 45
41 31 28 25 29 36 35 27 27 26 26 17 17 19 21 24 23 24 28 32 33 40 47 54 58 63 70 78 78 64 60 62 61 64 60 56 55 57 57 59 70 67 61 58 52 46 42 37 31
40 37 28 31 34 36 36 36 32 30 26 22 21 22 26 25 23 23 24 26 30 35 43 51 56 66 66 69 71 62 58 60 62 64 60 51 53 57 57 64 61 59 59 48 45 40 35 28 23
36 36 34 35 34 35 39 35 31 28 24 24 24 24 22 23 23 22 24 24 26 32 37 46 55 67 67 65 63 60 58 60 66 63 61 57 57 59 65 61 57 64 54 50 36 30 25 22 23
46 52 43 39 38 40 36 43 39 28 24 23 22 20 21 20 19 20 22 23 24 24 30 35 48 58 64 66 65 61 61 60 71 63 62 62 64 70 65 60 64 60 54 34 31 26 26 25 24
50 46 53 31 33 32 38 43 22 21 23 25 24 22 20 19 17 18 20 21 24 24 24 25 37 50 61 62 64 61 60 61 71 64 63 64 74 69 65 63 64 56 44 30 29 29 27 25 24
50 51 42 36 32 34 42 43 27 27 31 26 24 23 22 21 19 18 18 20 21 24 25 26 29 37 46 54 58 58 59 62 72 65 65 73 72 68 66 65 61 40 32 30 26 29 27 26 26
44 46 40 38 29 36 40 39 30 26 28 30 28 26 25 24 24 22 22 22 20 20 24 26 29 32 36 46 55 58 61 65 72 70 75 80 69 70 67 65 40 34 33 30 29 27 29 29 28
37 43 42 34 30 37 37 35 31 26 24 26 25 25 24 23 20 22 24 26 25 22 25 25 26 29 35 43 53 59 69 74 82 79 76 71 71 70 66 48 33 32 32 30 27 28 30 32 29
46 49 47 37 34 38 38 38 30 27 26 24 24 22 22 21 19 18 19 22 26 25 26 27 26 31 37 47 56 65 77 87 84 74 70 69 71 67 55 39 34 33 32 31 30 31 31 31 30
50 52 49 48 39 38 40 39 24 20 19 19 21 22 21 20 18 16 15 18 22 26 26 28 28 32 42 50 62 76 87 86 75 71 62 56 59 58 41 34 34 35 34 36 35 34 31 29 32
56 38 41 45 52 56 40 50 29 20 19 18 18 18 17 18 18 18 17 16 17 21 26 30 30 36 48 56 69 78 78 73 69 66 58 51 47 38 34 34 35 36 36 36 34 33 31 27 30
54 44 49 49 55 64 51 64 34 23 25 22 19 18 17 16 16 16 16 18 18 18 26 33 36 43 55 64 67 76 68 72 66 62 57 44 37 36 36 34 36 35 35 32 32 33 31 29 25
52 51 54 53 59 80 46 39 30 21 17 15 15 16 16 14 14 15 18 18 19 21 26 38 43 51 59 64 72 69 66 66 58 52 46 43 40 41 38 34 35 34 34 35 34 33 34 30 30
55 68 69 79 90 65 27 38 32 19 18 19 18 17 16 16 21 23 18 20 21 24 26 41 50 57 62 70 65 66 69 58 56 50 47 47 37 35 35 34 34 35 36 35 34 35 35 34 33
65 61 61 58 47 39 28 41 30 17 16 17 17 17 17 18 27 34 33 25 22 28 30 45 53 58 63 66 65 67 64 58 52 48 47 42 38 36 37 32 32 33 33 33 34 36 34 34 35
66 86 52 66 50 61 38 28 21 18 17 16 16 19 20 25 32 34 36 31 22 29 35 46 54 57 61 65 66 68 65 54 48 43 39 33 32 34 32 31 31 31 31 31 31 29 30 33 34
57 53 84 90 79 60 36 30 28 20 18 16 17 18 21 28 33 36 39 32 25 30 38 48 52 55 60 65 69 63 54 48 43 38 34 33 32 30 31 30 31 31 31 31 31 31 32 32 33
71 81 73 55 81 65 57 38 19 22 23 21 21 26 29 36 38 39 42 35 33 31 42 48 52 56 61 64 57 53 50 47 45 39 35 33 30 30 30 30 30 30 30 29 29 29 31 34 36
39 59 58 90 68 76 81 64 26 22 23 24 24 28 30 30 35 38 46 46 46 44 49 52 53 57 60 51 51 51 51 48 39 34 31 30 30 29 29 29 28 28 28 28 27 28 31 36 39

GFSSGP_925_rhum_030.txt.gz
RH
33 38 27 26 46 41 40 30 14 16 16 14 16 17 20 20 32 61 42 44 67 86 93 90 79 85 94 92 80 73 77 85 85 96 96 92 85 82 78 78 76 74 84 88 86 85 86 87 79
34 40 25 39 46 47 35 23 20 14 14 17 17 17 18 22 38 44 48 44 62 82 90 93 77 81 93 90 88 83 81 83 92 90 78 74 72 76 76 79 74 76 78 84 84 76 66 68 74
35 38 37 43 42 43 34 20 17 15 15 16 17 15 17 30 32 40 44 44 59 79 83 87 77 80 88 79 78 74 86 93 94 86 76 70 70 77 82 87 74 77 79 80 80 72 61 64 61
39 32 31 37 36 29 26 20 15 16 15 15 17 20 22 27 28 40 45 44 53 65 75 73 78 75 80 78 78 84 81 87 90 78 66 71 73 75 82 85 68 63 76 85 86 80 76 71 70
34 39 42 38 33 26 20 16 15 18 17 16 18 22 32 33 38 42 43 43 51 69 73 72 75 74 79 77 78 68 73 93 83 75 76 76 78 80 81 84 74 62 70 81 96 96 90 87 88
47 37 44 42 33 22 18 15 17 18 18 16 16 20 35 33 39 43 42 42 51 70 80 76 75 78 79 79 78 69 79 94 85 75 87 83 76 77 84 84 75 65 73 87 88 86 88 85 83
46 45 43 34 30 23 18 14 18 19 19 18 14 19 34 38 41 44 42 41 48 70 83 85 81 81 80 75 74 69 77 80 86 83 87 73 70 74 91 83 80 78 86 83 84 82 82 78 74
39 44 46 36 30 26 18 14 17 18 20 14 15 20 34 45 42 43 42 43 47 56 75 82 88 87 87 82 74 68 71 78 78 83 77 74 73 84 84 80 79 77 80 81 78 78 74 66 62
35 55 50 41 32 26 17 17 17 16 20 18 16 17 27 38 42 42 43 46 46 54 59 77 84 90 93 88 81 73 71 67 74 76 72 71 70 84 81 92 68 75 77 77 78 75 65 56 55
50 62 51 30 23 24 19 18 19 20 22 24 21 24 26 30 41 46 47 48 47 53 54 68 74 82 84 88 80 83 80 68 62 72 70 67 75 78 88 84 68 75 77 77 74 60 50 50 50
45 54 34 27 22 29 33 32 20 26 29 25 22 22 26 29 34 42 42 44 47 50 52 53 67 74 72 75 77 86 84 77 61 58 67 60 68 68 73 57 70 75 76 64 56 49 48 48 44
45 36 34 33 27 32 38 31 33 28 29 25 24 21 23 27 30 34 34 36 42 47 50 55 56 66 72 74 75 80 82 75 67 61 62 58 59 62 62 66 73 75 70 62 50 46 41 35 28
42 38 30 30 31 34 34 41 42 38 29 25 24 25 25 27 27 24 25 28 31 41 47 53 56 59 72 76 76 72 68 67 66 63 60 57 56 57 59 70 70 62 60 49 46 40 34 27 23
33 36 36 33 31 35 38 40 40 34 29 29 28 28 27 27 29 26 25 24 24 30 42 50 55 61 70 71 72 71 63 61 61 64 64 55 52 57 61 62 61 61 56 49 37 33 27 23 24
42 55 46 43 39 40 36 46 44 34 30 29 27 26 26 26 24 25 23 24 24 24 34 45 52 61 65 72 72 68 59 58 60 63 63 54 56 60 64 62 59 64 55 38 36 28 26 25 24
55 55 70 39 39 37 42 57 37 29 32 33 30 26 24 24 24 21 20 21 22 24 24 36 49 56 66 66 66 63 60 59 62 62 64 58 64 67 65 60 60 60 45 33 30 28 27 25 24
53 69 56 45 34 34 41 51 37 30 29 35 32 28 25 24 23 19 18 18 20 21 24 27 40 54 60 64 66 65 62 61 62 63 63 62 67 70 63 62 62 57 35 31 27 27 25 25 25
63 58 53 48 36 37 44 46 36 31 30 32 36 33 32 29 26 20 19 18 18 20 23 24 26 47 56 62 64 65 61 62 57 62 64 65 69 70 66 64 61 40 33 30 27 27 28 27 25
51 47 46 40 31 39 41 39 34 29 29 30 29 30 30 28 26 22 22 22 22 21 20 22 26 28 36 47 58 61 60 64 62 65 66 69 71 68 65 63 41 37 31 29 28 28 30 28 23
46 52 54 42 34 38 42 44 36 33 30 28 27 27 26 26 25 24 21 23 24 25 25 23 26 30 31 37 50 59 67 71 66 73 78 78 75 67 65 54 38 32 31 28 28 30 31 31 24
54 57 56 52 42 40 43 45 37 26 27 27 26 24 24 24 24 23 23 21 22 25 26 27 24 27 33 35 43 63 74 85 82 78 78 75 70 65 57 44 36 33 30 30 31 30 29 31 30
63 42 46 49 57 68 48 78 42 31 26 22 24 24 27 25 24 23 22 21 20 20 25 26 27 27 30 35 55 67 83 86 80 74 71 69 62 54 46 37 35 33 33 33 32 31 26 28 30
53 49 51 54 63 68 60 81 54 28 29 24 22 21 22 23 23 23 25 21 17 18 22 25 26 29 30 38 62 75 84 82 77 70 66 60 47 43 37 36 34 35 34 33 30 29 27 24 26
51 51 54 59 66 89 68 61 50 26 23 22 21 20 23 20 17 22 24 21 21 20 18 20 31 30 35 48 74 80 80 77 73 66 55 47 44 37 35 35 35 34 34 31 32 30 27 26 25
61 67 93 96 97 89 35 58 40 23 21 23 21 19 20 19 19 27 37 43 31 22 22 21 32 36 40 56 71 79 76 74 72 66 57 51 44 38 35 36 35 34 33 32 30 30 27 28 30
67 64 90 80 85 67 41 60 38 23 20 18 18 19 20 21 24 36 38 47 42 35 24 24 37 44 52 63 74 76 71 70 67 62 56 52 47 42 36 35 33 34 34 32 31 30 31 30 30
66 84 54 77 60 84 54 33 25 22 22 20 21 19 25 24 29 34 42 45 42 36 29 27 38 48 58 68 70 69 70 64 60 56 56 53 50 42 36 35 34 34 32 30 31 30 30 28 32
53 52 90 92 97 80 50 40 39 28 26 24 23 23 24 27 41 43 46 48 45 36 30 31 43 52 63 70 68 67 62 58 55 57 55 49 42 38 34 33 33 31 30 30 28 28 28 28 32
69 76 70 67 81 91 75 51 26 32 29 28 26 30 38 41 42 42 46 48 50 40 37 38 49 57 65 68 68 63 58 54 52 52 43 40 38 34 33 31 31 31 30 29 29 29 30 31 34
52 65 63 88 78 80 89 66 29 31 28 27 29 27 32 34 38 41 44 52 54 52 47 47 51 58 69 62 57 55 50 46 45 40 37 38 42 32 31 31 30 30 29 27 27 28 28 33 36

GFSSGP_925_rhum_033.txt.gz
RH
29 29 41 40 49 57 52 45 30 21 17 20 19 20 20 24 33 52 49 53 69 84 91 91 90 90 93 86 69 65 70 88 95 95 95 92 86 83 78 76 77 88 89 89 89 91 90 88 69
31 29 36 46 58 61 56 35 34 21 20 18 18 17 19 45 46 55 72 65 71 80 92 87 82 80 73 60 64 68 77 84 97 95 88 83 82 80 75 75 77 81 89 88 87 83 73 70 71
34 44 46 54 59 60 52 29 25 19 18 17 18 17 19 42 47 51 56 76 76 79 89 86 79 75 68 69 70 71 84 97 83 79 76 77 78 83 83 78 79 81 84 84 82 78 63 57 65
50 43 44 47 52 43 36 28 20 18 16 17 19 22 32 41 43 45 60 79 75 83 85 81 78 78 75 79 70 85 94 96 85 72 68 75 83 88 92 78 82 87 90 91 90 75 67 67 70
51 55 55 53 45 35 31 27 20 20 18 19 19 23 42 44 43 44 56 72 79 88 81 76 76 76 72 73 71 66 91 93 83 72 76 78 79 84 96 74 59 66 76 95 96 95 82 79 78
56 54 64 63 50 33 28 23 19 20 18 18 19 22 42 44 45 44 49 64 70 82 75 75 77 77 74 74 68 59 92 86 76 77 81 83 86 86 95 80 64 69 78 83 86 83 78 78 75
57 60 62 48 44 36 29 21 22 22 20 20 16 22 45 46 45 43 46 57 68 78 76 82 80 78 77 73 65 55 84 88 74 83 83 74 74 78 97 81 73 79 79 79 77 76 76 72 68
51 58 56 53 45 40 26 18 19 22 22 16 17 31 57 50 45 43 44 65 73 76 74 79 81 82 84 78 67 59 64 86 82 78 70 71 69 77 91 79 70 69 74 74 75 74 68 60 55
38 64 70 57 49 39 27 25 18 18 20 20 21 29 40 43 46 45 44 70 83 82 75 79 85 87 87 79 73 66 66 70 82 79 71 71 78 83 81 78 63 70 75 76 75 70 60 57 53
56 71 65 42 39 35 28 33 26 21 21 22 24 31 38 43 46 48 52 51 70 87 83 75 78 85 90 83 77 74 68 73 75 74 71 70 77 82 79 84 64 72 75 76 71 54 52 50 49
51 72 50 47 36 31 37 37 32 29 28 25 25 31 37 42 48 51 53 49 56 61 80 81 78 79 86 87 79 76 71 62 65 71 69 68 78 90 85 83 70 77 76 73 52 50 49 46 39
58 46 45 41 37 36 39 40 44 36 32 33 27 26 25 34 48 54 52 50 50 55 58 76 78 83 89 77 76 72 74 66 53 51 60 65 74 80 81 60 68 77 70 62 51 47 42 34 28
52 46 39 38 38 35 36 42 43 45 39 35 33 31 27 29 34 35 38 42 48 53 53 57 73 81 84 74 73 75 76 74 59 61 60 58 71 69 67 63 77 74 67 53 46 40 33 29 23
38 42 44 42 44 40 40 42 41 40 36 36 32 32 33 31 31 29 29 27 35 48 52 53 58 67 76 72 72 73 78 75 70 64 61 58 62 57 60 68 79 64 61 48 44 39 32 24 24
47 55 54 51 47 47 40 52 51 40 39 40 38 35 30 32 27 28 26 26 25 29 48 53 57 60 66 71 70 68 78 77 71 66 62 60 57 55 59 74 66 61 58 47 38 34 26 25 23
56 58 77 55 46 45 46 57 44 40 42 43 38 35 33 29 29 24 22 22 22 23 30 50 57 63 64 69 70 69 67 70 65 65 64 62 53 56 66 64 62 61 54 41 38 31 26 24 23
61 80 75 62 42 45 51 57 43 38 40 41 42 39 34 31 27 23 21 20 20 21 21 44 54 58 65 66 71 70 66 68 62 62 64 59 56 62 63 64 59 62 46 32 34 27 25 24 23
77 76 67 64 42 41 49 57 47 41 38 38 39 41 42 34 30 24 22 20 20 19 19 22 52 55 60 68 72 75 73 63 62 64 64 59 59 65 65 65 60 58 41 35 28 26 25 26 24
58 63 60 49 38 40 46 49 42 36 38 36 32 34 33 35 32 27 25 22 20 18 18 20 31 58 64 70 73 72 70 67 60 63 63 63 62 65 68 64 62 48 42 34 28 28 30 26 24
66 62 61 51 41 43 49 47 39 36 35 33 32 35 35 32 33 30 24 23 25 23 21 22 24 50 61 67 70 73 70 70 64 60 59 64 65 67 67 64 58 40 36 29 28 29 31 30 23
56 62 61 61 51 48 53 57 46 37 35 32 30 29 28 29 27 30 31 24 21 22 24 24 25 26 53 63 68 70 76 82 85 77 61 67 70 71 68 65 52 41 36 29 28 30 31 31 26
66 51 54 57 65 77 55 88 67 39 33 28 35 36 31 28 28 29 29 27 23 22 21 22 24 25 28 40 58 69 81 90 85 77 72 72 74 71 67 57 44 39 32 29 30 31 30 30 29
61 53 56 59 68 71 68 80 69 51 37 32 27 27 33 31 29 31 30 24 20 18 18 20 24 24 26 33 39 57 83 85 82 82 79 78 73 69 63 43 39 37 31 32 32 30 28 28 28
51 54 56 63 75 98 74 75 65 42 29 23 24 23 22 28 29 25 24 28 28 27 25 21 21 28 27 29 44 57 83 84 84 82 76 76 73 56 45 41 38 35 33 33 32 30 27 25 25
62 70 95 93 92 90 57 81 63 32 26 24 26 24 20 23 25 40 42 45 42 40 37 36 27 23 28 35 51 74 75 78 81 79 72 67 55 48 40 39 37 37 34 31 31 30 28 25 25
75 68 90 87 98 84 54 72 51 32 26 26 20 22 21 22 34 44 44 50 45 41 40 40 35 28 22 44 68 77 74 81 81 76 71 64 56 46 38 38 40 40 34 33 31 29 28 28 25
73 88 61 81 73 93 69 47 31 24 25 26 25 24 27 27 39 49 51 50 46 45 46 42 37 33 31 65 82 84 81 80 80 75 70 63 55 46 41 41 41 38 36 33 32 30 30 27 28
57 59 86 93 98 92 70 56 42 33 32 30 30 39 49 45 46 48 54 51 43 45 49 47 39 34 40 76 83 82 81 80 80 75 67 61 54 46 42 42 40 42 34 32 31 30 29 28 30
71 69 66 74 90 96 98 66 35 32 34 32 33 32 36 43 48 48 52 49 46 43 51 57 46 43 57 82 81 76 76 75 72 67 64 61 51 46 42 43 45 45 33 31 29 28 29 28 31
63 75 72 94 74 92 93 70 29 31 33 35 35 39 50 36 39 48 53 56 53 51 58 65 55 62 79 75 71 70 70 67 64 62 58 54 46 44 47 45 38 31 31 29 29 28 28 28 33

GFSSGP_925_rhum_036.txt.gz
RH
37 29 32 36 46 59 58 52 37 34 22 20 20 20 20 31 34 44 60 72 77 88 88 89 90 94 95 95 87 85 90 92 96 96 92 90 86 81 75 80 89 86 93 96 97 97 96 92 73
39 31 37 52 59 62 57 41 35 32 23 22 18 19 22 47 49 84 82 84 68 77 85 90 89 91 90 77 65 62 84 94 95 96 94 88 85 77 76 78 87 89 92 92 94 95 92 72 55
42 44 47 53 64 64 56 37 26 22 22 19 18 19 33 44 51 70 63 83 76 81 83 87 88 84 80 72 71 76 78 95 95 93 88 85 82 77 77 79 83 90 90 88 86 81 61 60 70
49 47 52 56 63 50 44 31 28 27 20 17 20 24 38 44 51 50 67 77 78 87 81 84 87 74 68 65 60 81 93 97 89 77 81 81 84 83 80 83 85 87 87 87 83 62 62 62 66
53 58 60 59 55 44 36 31 29 27 23 18 20 26 44 47 45 62 74 76 75 87 78 84 82 72 68 65 66 82 96 90 83 77 80 84 87 92 85 85 89 93 95 94 90 78 74 76 76
62 61 74 60 52 39 34 28 24 23 23 19 22 43 47 51 55 83 81 85 72 77 78 79 81 75 72 70 73 88 90 88 76 75 81 84 87 95 86 74 83 93 96 96 96 82 76 74 70
65 66 72 61 55 47 36 28 25 25 25 21 18 39 50 51 53 76 83 86 81 77 79 85 82 79 73 72 59 85 91 84 70 78 82 84 85 89 91 75 75 90 96 94 86 82 76 71 66
55 64 64 55 50 48 32 22 19 24 26 18 21 62 62 52 47 57 82 89 89 87 79 81 83 82 80 77 60 72 92 76 74 74 80 78 80 86 89 79 75 88 84 80 79 78 67 60 53
47 70 78 61 53 41 32 31 26 19 22 21 23 49 47 45 49 62 88 96 99 96 87 87 87 85 82 77 66 69 92 81 75 71 70 72 72 82 89 79 67 76 78 77 77 70 59 54 50
60 78 68 49 44 41 34 34 35 28 23 24 36 40 50 50 52 62 90 97 100 100 100 88 86 86 85 80 73 70 80 88 82 77 72 72 80 83 82 78 61 73 77 78 75 63 55 54 51
58 76 54 50 46 39 40 40 38 33 30 30 33 46 50 55 56 57 69 85 92 88 90 90 84 82 86 83 76 73 69 71 79 77 73 72 81 83 80 79 66 75 79 77 62 52 50 48 43
60 53 48 45 42 43 40 38 43 40 34 37 34 30 31 40 43 61 58 64 82 88 85 83 80 82 85 83 77 71 69 67 71 73 74 74 82 88 85 83 67 74 76 73 52 50 44 35 29
58 51 45 43 45 40 39 44 45 46 41 39 35 32 31 33 39 48 55 54 59 77 82 79 76 78 85 88 83 73 69 68 57 61 70 72 74 82 87 81 65 75 69 60 52 46 38 32 26
48 49 46 45 45 45 43 44 42 42 39 40 38 38 36 33 32 32 35 48 56 59 68 80 77 78 87 85 81 74 70 66 61 49 50 63 69 73 82 73 67 78 73 56 47 40 32 29 24
48 56 53 50 47 48 41 49 55 41 39 42 43 42 37 36 29 31 26 27 30 40 57 63 71 79 84 84 80 74 72 73 71 58 55 59 63 69 73 70 73 75 65 52 45 36 32 26 24
57 61 68 50 45 44 46 55 44 43 46 46 46 46 43 37 32 25 23 23 22 25 32 59 67 78 80 85 80 75 73 71 74 71 64 61 59 62 66 65 71 74 58 47 40 37 31 25 23
63 76 75 66 50 49 56 59 44 36 43 48 47 44 41 40 36 31 25 22 20 20 22 26 65 72 68 80 80 76 72 73 72 75 68 63 62 60 59 60 72 66 56 47 42 37 28 24 23
79 79 70 69 49 47 57 64 51 46 46 48 46 42 41 42 38 31 29 25 21 20 20 22 38 68 67 77 79 80 74 74 73 76 72 65 63 60 56 63 70 62 54 45 38 33 26 25 25
61 63 67 56 42 45 48 51 46 39 40 41 36 37 38 36 32 31 28 27 25 23 21 22 26 59 78 85 90 89 82 77 74 73 70 65 65 59 56 65 64 59 56 48 36 27 26 27 25
72 63 66 55 45 45 52 53 43 39 37 35 34 32 32 32 30 34 29 26 27 24 23 22 23 30 70 83 73 82 82 79 71 73 69 66 67 60 65 65 64 59 54 40 34 28 30 29 24
59 64 63 63 56 49 56 41 40 39 36 34 32 30 30 31 30 30 35 28 24 24 22 23 25 24 44 75 73 74 90 88 85 80 75 67 68 63 69 67 66 61 54 44 35 28 30 31 25
69 53 56 61 64 80 57 83 65 48 43 35 34 40 39 35 32 32 29 30 24 22 21 22 23 29 31 59 75 77 73 88 85 81 75 71 71 69 70 70 68 61 53 45 35 29 31 32 29
65 53 56 58 70 75 71 83 66 51 45 33 30 30 28 35 37 35 36 30 25 22 21 21 20 21 29 33 65 75 72 76 69 84 82 77 78 75 74 72 66 61 52 42 32 30 32 32 31
54 56 67 75 79 94 73 76 63 46 33 26 22 25 27 25 30 36 30 27 30 31 29 27 24 22 26 33 48 67 78 84 81 87 89 84 81 80 77 73 63 53 49 37 31 32 31 31 30
59 69 88 89 94 87 63 84 71 47 35 26 30 28 27 27 27 32 42 49 43 40 38 34 34 33 26 27 40 50 82 78 76 77 87 85 81 78 73 69 55 44 43 34 33 33 30 29 28
68 66 83 72 95 88 63 81 48 40 36 28 28 28 28 29 30 41 49 53 45 39 35 34 36 36 30 30 33 49 64 79 80 79 81 82 81 74 68 56 50 45 38 35 36 33 28 27 27
75 86 63 82 75 94 74 58 34 29 28 30 32 49 54 51 43 48 52 52 48 42 41 45 44 42 37 32 33 56 71 84 80 82 80 82 82 76 62 53 53 47 37 39 36 31 30 30 27
63 64 89 93 99 84 72 67 48 32 35 35 37 39 41 44 46 49 53 52 42 41 43 49 52 49 44 39 44 68 81 83 79 81 82 81 77 70 60 57 51 40 43 38 36 40 36 29 28
74 74 72 80 86 94 97 71 42 33 34 36 41 41 44 53 54 52 47 49 48 44 44 44 44 50 52 54 70 83 88 88 85 83 81 77 71 64 58 50 43 46 42 44 44 44 50 30 30
65 73 73 91 72 95 93 80 39 39 37 41 37 41 44 50 53 52 51 52 56 48 48 57 52 56 56 73 86 89 90 89 87 83 79 75 68 60 53 47 46 45 45 49 76 71 31 30 31

GFSSGP_925_rhum_039.txt.gz
RH
42 36 31 36 49 60 59 50 41 37 28 21 23 22 24 27 32 40 66 84 79 88 87 85 85 89 92 90 89 88 90 94 97 86 87 89 86 77 81 91 91 90 94 96 97 97 95 95 83
43 35 37 55 57 61 54 44 38 32 26 25 22 21 32 45 54 92 90 86 79 82 85 86 83 88 90 93 91 90 89 93 97 94 92 90 85 78 79 87 79 86 91 95 97 95 92 83 55
43 44 47 54 70 62 50 41 33 25 26 24 20 24 32 41 56 83 68 82 91 85 84 86 87 89 96 97 96 95 95 95 96 96 93 89 79 77 79 87 88 90 95 94 94 89 79 62 52
48 51 52 60 66 52 44 34 31 33 25 22 21 37 40 46 56 61 73 85 89 88 85 84 87 90 93 86 83 91 95 95 96 96 91 86 79 80 81 85 91 93 90 88 86 53 43 53 59
52 60 67 65 57 50 40 35 31 32 29 25 24 30 40 51 51 56 83 88 85 90 87 87 87 86 76 77 74 80 93 97 95 88 87 85 86 83 85 88 90 92 93 91 75 64 64 72 76
69 63 75 66 53 44 38 32 26 26 26 25 23 46 47 57 65 83 86 91 84 85 87 87 81 71 69 65 68 81 94 93 88 83 84 87 91 87 85 84 86 94 96 96 96 85 79 77 74
70 73 75 58 50 46 38 32 29 29 28 25 22 53 52 56 80 88 88 87 87 86 84 86 74 71 71 63 67 87 90 84 68 80 86 88 89 88 80 74 83 96 96 94 96 86 80 76 70
65 64 68 63 55 44 33 29 21 25 26 21 36 52 62 56 78 90 91 90 90 86 78 75 75 75 74 73 72 84 87 82 64 77 81 85 87 86 79 67 76 95 92 90 91 90 73 66 57
52 74 83 58 53 43 33 33 28 25 25 23 26 49 45 51 79 96 99 100 100 97 82 79 80 79 74 75 64 84 92 86 69 78 80 81 84 90 87 72 68 82 89 87 86 78 63 54 50
62 81 70 54 48 42 38 38 40 34 33 25 36 48 61 60 89 99 99 97 98 99 100 100 86 83 80 78 69 67 95 86 74 70 76 75 75 80 86 76 65 78 80 84 82 70 60 56 48
65 73 54 52 46 45 42 44 37 40 38 32 33 42 47 64 71 93 98 98 96 99 100 100 88 85 85 83 72 62 93 89 76 73 73 72 76 81 90 82 73 80 84 83 78 60 54 50 48
64 58 54 50 44 45 43 38 44 42 41 37 40 37 32 46 58 70 92 98 99 100 100 100 84 89 86 84 76 64 70 92 89 82 79 75 84 90 91 82 67 78 80 80 64 54 50 42 34
62 54 50 45 46 46 41 46 48 48 41 41 36 35 36 35 36 45 62 80 98 100 100 94 88 86 88 88 80 71 66 68 71 79 81 76 79 86 84 83 72 75 80 80 55 51 44 34 29
55 54 51 46 46 45 46 47 45 43 43 44 42 40 39 38 34 32 46 60 75 90 92 90 87 87 88 87 84 77 69 65 62 65 72 77 75 84 87 86 82 76 79 67 54 50 40 32 27
50 55 54 54 49 51 46 53 60 43 41 44 40 45 43 40 33 32 27 34 54 65 78 90 83 85 86 85 83 85 81 72 67 59 56 72 75 76 81 84 83 70 79 67 53 44 34 31 26
63 61 73 51 51 47 45 57 43 45 47 49 48 46 46 44 38 31 26 24 25 32 49 65 82 90 89 89 87 86 84 75 69 65 55 53 68 72 75 78 83 71 82 67 50 39 34 30 25
65 84 75 60 50 48 58 63 45 41 44 47 44 40 45 42 40 34 29 27 24 24 24 31 61 84 87 90 92 90 86 82 78 73 65 51 54 61 69 73 78 76 79 58 46 38 34 30 24
83 72 71 69 49 53 63 70 54 50 50 53 53 49 45 43 39 33 31 29 27 27 25 25 29 56 72 87 97 98 95 90 86 77 70 64 62 63 65 70 70 75 76 53 41 38 36 28 25
65 68 69 60 46 48 53 53 47 40 43 45 44 40 38 36 32 30 28 27 28 28 28 28 27 32 66 96 100 100 95 90 86 82 75 72 69 65 64 65 64 70 75 60 46 37 34 27 26
74 72 74 58 49 48 56 57 45 40 38 36 35 34 33 32 34 33 29 25 24 24 26 26 28 31 52 83 90 90 87 92 81 80 82 75 74 72 67 65 63 67 70 56 42 39 32 28 27
80 70 66 64 57 52 60 52 42 35 37 36 35 34 32 32 31 28 29 30 26 25 24 25 25 28 37 71 87 92 89 90 92 89 85 80 80 76 71 67 60 67 66 56 46 41 36 30 28
72 54 57 60 65 79 59 82 65 45 45 39 39 36 40 39 36 34 32 34 30 27 24 24 25 26 30 54 87 93 91 93 83 81 80 79 79 77 73 70 62 65 65 55 50 44 36 30 29
64 54 58 60 73 70 70 84 64 46 40 33 30 31 31 29 31 37 38 34 28 27 25 24 24 26 28 35 84 92 90 84 76 79 76 82 81 79 76 76 71 66 65 57 54 45 34 30 32
56 58 66 80 76 90 68 71 59 40 33 36 32 30 32 32 32 32 32 31 28 26 24 24 23 22 22 24 45 83 88 83 81 84 88 83 86 82 81 78 76 71 68 62 56 47 35 31 33
58 67 83 74 96 78 71 80 58 45 40 36 39 36 41 45 42 37 50 58 51 44 37 35 34 32 31 26 26 42 69 84 76 76 86 96 91 89 83 82 82 78 72 66 58 41 34 34 34
65 65 78 58 87 86 69 85 49 39 35 29 45 44 49 52 54 56 61 59 53 48 45 45 44 33 26 30 33 32 39 76 80 78 79 76 79 84 85 84 82 79 71 65 51 40 39 37 33
76 85 63 85 78 95 74 57 33 35 38 36 41 42 43 45 50 49 50 45 45 43 37 42 46 45 37 30 31 35 40 54 72 76 83 80 80 82 80 83 83 78 67 55 43 39 40 33 30
62 65 86 93 66 76 60 68 46 36 35 39 43 45 44 44 49 54 55 49 45 40 40 40 46 48 41 41 42 38 40 53 62 70 82 87 86 85 84 85 81 72 58 48 41 41 35 34 40
74 80 82 81 83 85 91 56 48 34 40 44 44 48 54 61 63 62 64 58 52 48 43 45 50 59 51 49 48 52 58 77 77 84 88 88 87 85 83 78 70 61 54 46 41 38 42 46 58
64 71 77 83 75 98 87 79 44 46 39 45 48 55 58 60 65 75 72 65 58 52 58 65 69 68 68 67 66 76 84 92 94 92 91 89 84 82 77 71 63 57 50 41 42 48 60 73 75

GFSSGP_925_rhum_042.txt.gz
RH
53 40 33 35 48 62 59 48 42 38 30 22 23 24 26 26 34 41 76 83 79 79 80 78 83 82 85 82 81 86 91 90 88 80 80 89 83 79 84 90 92 89 90 93 93 95 94 93 83
48 38 36 56 56 57 53 46 40 35 28 29 26 24 32 36 59 92 93 89 78 81 83 79 84 78 78 78 80 87 94 93 85 79 81 90 84 78 88 92 92 89 99 99 92 91 89 71 75
44 42 48 56 70 60 48 39 39 28 32 25 22 24 30 39 59 79 71 82 87 84 82 79 81 79 82 83 84 86 89 92 97 87 88 91 81 80 85 77 81 84 93 98 98 93 76 64 86
47 49 54 63 66 57 39 34 33 35 26 24 24 32 43 47 53 62 69 83 90 89 81 82 82 82 84 89 91 90 88 92 84 86 92 86 80 80 86 90 88 93 94 92 79 59 63 84 86
48 60 68 68 61 52 46 39 32 33 30 26 23 26 42 56 59 61 73 95 94 90 86 87 85 84 87 88 86 90 94 93 93 96 92 83 82 83 87 92 95 92 90 79 62 65 67 78 86
71 63 74 70 60 43 40 36 29 28 27 28 24 38 44 64 74 92 87 97 100 86 88 89 88 86 81 79 80 78 83 96 97 94 89 88 85 87 89 92 94 95 93 94 95 90 84 86 86
71 75 74 58 51 46 38 35 31 30 29 25 26 39 49 62 82 100 99 96 94 88 89 90 88 76 67 75 69 65 87 94 90 88 87 90 89 84 89 82 91 96 96 94 95 93 87 82 71
72 66 74 66 55 49 32 33 25 26 27 22 30 38 42 58 94 99 99 95 90 90 86 84 80 66 62 66 62 89 86 86 82 85 85 86 85 76 74 70 80 92 90 86 88 87 75 67 61
56 78 83 59 56 43 34 34 32 29 28 26 25 37 49 61 100 100 100 100 100 98 88 84 73 66 64 64 58 83 83 82 67 82 86 88 89 88 79 63 74 88 87 85 85 82 66 54 51
64 84 74 52 46 42 40 39 40 36 42 30 32 54 72 96 99 97 96 97 100 99 100 88 79 74 71 70 62 78 84 84 72 74 82 83 87 89 90 76 70 86 86 85 89 77 59 53 49
66 73 55 53 46 44 45 45 38 39 39 33 35 40 48 83 97 93 90 91 94 96 100 97 99 81 80 78 74 61 87 88 84 67 78 81 84 87 91 88 76 86 88 88 89 74 62 58 50
66 60 53 47 46 47 48 40 43 43 39 34 39 38 34 45 71 94 96 93 93 94 97 97 98 86 83 81 81 67 65 89 88 72 71 78 75 78 83 91 80 78 87 87 83 66 54 50 44
64 56 54 50 48 47 44 47 48 48 44 42 42 38 36 35 34 39 67 97 98 94 96 98 97 100 87 87 85 77 64 79 83 79 74 75 76 81 85 90 82 72 84 85 76 57 50 41 34
61 56 54 49 48 46 49 50 49 44 43 45 46 43 42 40 36 31 30 55 88 99 98 98 99 100 91 88 90 83 72 65 72 80 81 81 78 82 88 88 83 72 79 82 77 54 47 37 32
54 59 56 57 51 51 49 56 62 46 43 46 46 48 43 41 35 35 30 27 46 70 85 96 98 100 99 89 90 88 80 70 64 65 71 80 81 80 84 82 84 80 78 81 70 56 44 34 31
66 60 76 54 57 50 47 59 44 43 49 51 51 53 51 44 38 31 28 28 25 35 69 82 93 97 99 95 93 89 87 83 73 66 63 65 78 78 79 86 86 85 76 80 66 55 41 32 30
70 88 80 62 55 50 58 65 46 43 46 53 52 51 47 46 43 34 31 30 29 28 29 56 78 85 88 94 98 94 87 88 85 78 69 64 66 73 78 79 83 87 77 84 70 50 38 34 30
82 74 72 71 49 59 64 71 53 45 52 56 54 54 54 50 46 36 33 30 28 27 28 28 36 70 78 85 100 100 99 92 94 89 80 71 67 62 72 78 76 83 81 85 72 50 37 35 29
70 70 69 63 49 50 59 59 52 42 45 46 45 41 38 34 32 32 29 27 27 26 26 28 28 28 61 100 100 100 98 100 99 94 87 80 78 68 55 58 69 79 84 80 67 44 37 35 28
73 77 76 62 51 50 58 59 49 42 41 41 39 39 36 35 33 32 30 28 27 25 26 27 28 29 34 88 97 99 98 100 96 90 91 84 83 77 61 61 67 77 82 81 63 46 39 34 29
81 77 73 70 57 54 65 59 44 37 36 34 35 38 38 39 37 33 34 30 28 29 26 26 27 28 29 56 82 99 95 99 100 100 98 86 86 84 77 69 69 72 76 77 70 50 45 36 30
86 53 58 60 65 80 62 81 61 47 42 37 36 36 39 35 33 34 34 35 32 28 26 26 27 27 28 38 82 96 92 94 99 96 81 86 84 85 84 78 74 72 71 73 72 55 46 41 34
84 54 60 63 73 69 67 79 55 41 33 32 35 40 42 39 37 37 42 43 40 35 31 31 29 28 28 30 68 90 96 93 90 91 91 96 88 86 84 84 85 79 72 69 72 60 50 44 43
59 58 67 78 74 88 66 65 43 36 39 41 40 45 53 53 50 48 49 49 47 42 43 43 34 30 29 27 32 83 88 92 94 90 92 90 94 94 91 85 84 84 77 70 71 65 56 47 40
57 70 87 70 82 75 73 75 52 46 42 40 41 48 52 53 55 54 56 56 46 41 41 42 41 41 39 33 36 43 72 86 89 88 90 93 94 94 92 91 90 85 79 75 70 68 61 54 40
65 61 77 54 75 75 73 85 45 41 36 37 43 45 46 48 53 55 55 52 49 47 47 44 40 44 44 39 37 39 48 90 89 90 87 80 78 72 74 84 87 86 85 81 74 69 62 56 42
74 84 63 86 79 89 70 58 30 33 40 39 44 44 49 50 56 60 61 57 56 53 52 49 47 42 42 55 55 50 44 41 52 65 77 85 82 79 82 91 94 93 91 85 79 74 64 48 46
62 66 82 90 72 64 51 63 41 35 39 48 47 49 51 56 68 73 73 67 64 62 58 52 53 52 52 50 53 55 52 50 48 48 66 79 86 90 88 91 96 96 92 87 80 71 56 47 42
75 82 82 79 84 77 72 40 48 40 42 49 50 50 59 68 70 76 78 75 75 68 61 57 67 71 64 60 58 64 62 64 68 76 81 92 99 97 95 94 95 93 88 81 72 58 46 41 42
63 74 72 81 77 95 93 71 44 43 41 48 52 55 68 70 81 78 85 82 79 81 86 78 71 66 68 69 74 82 91 93 96 99 100 98 99 96 93 92 90 85 77 67 56 46 42 46 62

GFSSGP_925_rhum_045.txt.gz
RH
44 41 34 34 40 46 48 39 40 36 30 23 24 24 26 26 36 36 78 88 74 80 86 80 79 81 81 83 88 89 87 86 85 81 87 89 85 84 85 93 87 85 89 91 93 94 94 90 78
48 37 35 50 46 46 40 40 38 34 27 28 27 25 32 32 54 83 88 85 76 80 81 88 74 85 81 77 79 88 89 86 84 76 78 90 82 81 94 93 93 93 97 99 92 82 84 75 82
44 38 45 50 52 46 38 34 34 28 29 25 22 24 28 36 56 75 76 84 84 81 79 77 76 80 75 78 84 85 89 88 80 77 82 90 82 85 93 90 92 98 96 92 85 86 83 84 91
44 44 45 52 57 50 32 31 35 32 26 24 24 23 35 52 56 67 72 89 97 86 82 77 78 77 77 79 80 86 90 93 80 79 83 88 81 86 80 78 80 84 79 88 87 75 86 91 93
44 49 56 62 56 48 44 38 33 32 30 24 24 23 32 54 66 74 83 88 96 89 82 81 79 82 81 82 82 87 88 92 81 81 92 83 83 86 92 90 92 86 90 82 72 87 91 95 95
59 50 61 59 55 44 39 35 32 29 27 24 24 30 35 64 80 99 100 100 96 90 84 85 85 83 83 84 83 87 86 86 82 86 93 85 86 88 93 95 96 94 90 86 93 95 94 90 76
63 60 59 57 49 44 38 33 30 29 27 24 23 28 34 59 88 98 98 99 99 87 88 89 88 86 84 77 65 72 79 91 89 89 90 87 86 90 94 96 96 96 96 94 92 91 90 74 67
63 54 66 59 48 42 33 34 28 29 24 22 27 29 29 59 98 99 99 98 97 88 84 88 90 90 80 75 63 60 77 98 89 84 86 86 76 75 81 82 93 95 88 87 87 89 78 66 61
56 67 68 56 50 40 36 34 32 30 30 27 27 36 54 65 99 99 100 100 98 98 91 89 90 82 65 66 57 61 83 88 83 78 85 88 92 86 81 76 83 87 86 84 86 83 69 56 53
61 72 66 49 44 41 38 38 37 35 39 32 34 37 86 98 98 93 93 93 99 100 99 94 89 77 71 70 61 78 81 84 80 83 90 93 89 88 83 67 74 86 85 81 93 74 60 52 47
65 64 56 51 43 42 46 45 40 39 38 34 33 38 60 87 94 89 87 89 94 95 99 98 93 82 80 75 67 68 83 83 83 65 79 86 87 89 93 86 72 84 87 90 96 73 60 57 50
67 60 53 46 50 49 50 43 43 42 38 33 40 38 34 74 81 90 87 86 92 92 95 99 99 90 81 78 75 66 76 89 86 76 68 78 84 88 90 94 80 76 87 86 86 76 61 54 49
65 59 53 48 49 48 45 47 44 46 41 39 40 40 37 33 39 64 84 89 90 90 92 93 98 96 91 87 84 78 68 79 88 88 71 71 78 79 79 86 90 73 82 85 84 75 56 50 42
60 55 53 50 48 46 51 50 48 44 42 42 43 40 39 38 35 34 36 62 91 90 91 94 94 98 99 97 89 82 80 67 69 82 83 72 71 72 75 85 93 85 76 84 84 68 54 45 37
61 66 58 54 52 50 50 53 60 44 41 40 39 41 40 39 37 35 29 29 33 66 88 93 96 98 99 98 93 87 83 79 67 65 78 80 76 75 74 84 92 87 71 83 85 68 52 41 35
67 61 73 54 56 50 44 54 42 41 47 45 43 42 46 41 38 36 32 31 29 29 51 78 91 99 98 98 99 92 90 90 80 70 69 78 81 80 78 82 88 83 79 80 85 72 53 40 34
72 84 78 62 57 54 50 62 47 45 46 45 43 42 43 41 38 34 30 30 27 29 28 39 83 97 99 99 99 100 94 90 86 81 74 70 74 76 84 81 81 83 88 81 82 68 55 42 34
81 80 76 63 52 60 64 68 55 44 43 47 44 43 42 44 39 35 31 30 30 29 28 29 31 78 91 100 99 100 99 99 97 91 86 79 73 69 76 81 80 86 91 90 84 71 53 40 36
65 71 71 64 51 52 60 60 51 43 44 43 40 38 35 33 31 30 28 28 28 29 30 28 29 29 73 100 100 99 99 99 100 95 95 88 84 76 72 73 79 81 90 92 83 78 49 39 35
68 75 75 63 53 52 57 57 47 42 43 42 41 39 38 37 33 34 31 28 29 30 29 28 29 30 32 74 90 94 95 99 98 100 100 95 88 84 76 74 74 76 85 90 90 82 52 38 36
76 78 77 71 57 54 61 56 46 38 36 33 34 35 36 34 32 31 36 40 33 32 31 30 29 29 30 37 81 94 98 99 99 99 99 99 95 90 83 81 75 66 80 81 89 83 62 43 36
92 58 62 60 66 73 60 68 51 44 35 36 43 45 44 42 40 42 47 51 51 48 39 32 30 30 30 32 75 92 88 89 92 97 99 100 100 99 93 86 81 69 65 77 80 84 67 49 41
76 55 60 64 71 68 66 66 43 37 35 38 42 45 48 48 47 48 51 53 48 45 44 44 40 30 29 33 47 90 95 85 88 94 98 100 100 100 100 96 88 80 74 74 78 81 69 53 51
58 58 66 72 69 82 63 63 35 36 39 41 41 43 47 48 51 52 54 54 55 50 48 46 43 42 40 32 37 72 97 95 98 98 99 99 99 100 100 100 97 91 84 79 76 79 77 68 54
60 80 86 69 82 76 72 73 47 40 42 40 42 43 45 47 53 56 59 60 60 57 52 49 48 46 44 47 43 36 48 100 99 100 98 100 100 100 98 96 100 99 93 89 86 82 78 74 62
66 65 77 59 60 60 71 76 42 40 40 42 43 43 48 51 55 60 63 65 65 63 59 54 52 50 47 46 52 52 48 45 90 100 99 99 97 85 90 98 99 94 98 97 93 88 81 78 69
72 79 59 82 77 77 56 53 33 35 41 41 46 50 51 53 60 67 68 70 71 72 71 69 61 54 54 58 58 55 54 53 50 46 71 96 94 91 88 91 100 100 100 100 97 94 88 82 73
62 63 79 83 73 59 41 49 30 35 43 46 45 49 51 63 70 73 70 74 75 81 82 75 72 71 67 62 61 66 68 68 65 61 56 63 83 96 99 97 100 100 100 100 98 94 88 81 73
73 78 78 71 74 55 44 29 41 40 45 49 46 49 60 73 70 74 72 77 77 83 81 78 76 75 74 72 68 64 67 78 83 82 84 87 91 100 100 99 99 100 100 100 98 92 85 77 62
64 74 68 76 73 89 84 50 40 39 43 47 46 50 72 69 72 72 76 82 77 79 72 78 80 76 74 73 73 77 81 76 92 100 98 98 98 100 98 99 100 100 99 95 90 84 73 61 54

GFSSGP_925_rhum_048.txt.gz
RH
51 44 36 29 29 26 25 22 22 26 23 18 18 19 19 19 23 28 67 69 61 66 73 84 77 68 80 83 87 90 88 85 82 85 93 90 91 90 89 86 89 91 89 86 92 93 90 83 86
56 39 32 28 30 31 22 20 23 22 20 19 19 19 24 23 33 50 60 76 65 70 75 80 72 74 81 87 87 90 86 81 76 77 88 85 82 84 93 88 85 93 91 97 96 76 80 82 90
48 36 29 31 32 30 23 20 17 20 19 18 17 18 20 26 36 45 64 75 67 70 68 80 75 78 78 80 81 85 84 81 76 77 81 87 80 94 96 96 99 98 98 94 80 84 85 89 94
38 30 29 35 35 27 21 22 21 21 20 18 17 18 22 40 41 53 70 71 68 68 70 90 78 81 79 78 82 80 86 81 78 80 78 86 81 92 87 93 91 91 90 85 83 85 90 93 96
39 30 38 41 33 26 25 21 23 23 20 17 17 18 19 44 65 67 72 71 67 68 68 87 76 75 74 78 77 81 91 82 77 79 83 84 84 87 80 83 82 82 77 85 88 88 82 90 88
39 33 42 43 34 27 26 23 23 21 19 16 17 17 21 54 61 77 77 71 71 72 72 75 79 80 82 81 82 80 88 84 84 81 88 84 86 91 88 90 88 82 83 88 91 95 95 88 78
40 42 41 35 32 30 28 22 24 20 19 16 15 18 23 39 71 94 92 75 76 75 72 70 80 85 83 81 80 81 83 83 84 83 85 86 87 90 94 95 96 94 94 96 92 90 91 78 68
37 38 39 36 36 33 24 25 20 20 17 16 17 18 20 42 79 97 96 94 95 79 73 69 70 77 79 86 77 74 72 86 84 84 82 82 80 81 92 85 90 95 88 86 85 88 78 68 62
43 40 41 40 38 30 24 24 21 22 18 18 19 23 44 52 89 95 97 98 100 81 76 74 71 72 74 69 75 72 75 98 89 84 83 85 70 78 83 80 82 83 82 82 85 81 68 58 56
35 38 30 28 30 30 27 22 23 24 24 22 22 28 58 72 90 86 88 86 94 93 86 78 76 73 72 71 71 66 78 93 86 76 78 71 69 69 67 75 78 84 81 80 93 76 61 51 57
36 35 28 38 31 29 27 27 26 23 27 20 21 28 46 73 84 82 81 81 87 91 96 97 80 74 72 71 69 65 73 73 72 67 66 68 72 80 80 73 79 81 84 81 95 77 57 49 44
46 33 33 37 40 40 33 27 29 25 21 23 27 28 28 53 66 75 77 79 81 86 90 95 97 80 75 70 72 65 69 76 72 70 64 69 73 76 77 72 69 72 77 75 83 70 60 54 46
44 42 36 34 41 41 37 35 29 31 26 26 28 30 27 27 41 60 71 75 80 83 88 92 97 88 81 80 72 69 70 76 74 75 71 67 70 72 74 77 73 69 70 72 75 70 56 47 40
40 41 38 35 40 39 42 38 38 30 26 27 27 25 23 25 26 29 45 57 65 69 78 88 91 92 81 99 84 78 74 71 76 77 76 75 67 71 74 74 77 75 73 73 72 68 53 44 39
47 49 40 43 38 36 37 40 43 28 23 25 22 21 24 25 26 27 27 28 33 44 56 70 81 86 87 97 98 89 84 81 74 76 76 78 74 70 71 72 75 81 78 72 74 66 52 43 37
51 44 53 33 40 41 38 30 31 28 29 29 24 21 22 25 25 24 26 28 27 27 33 46 62 77 82 97 100 99 96 89 82 79 77 78 76 74 73 74 74 79 81 76 74 66 54 45 39
47 40 41 42 41 35 41 30 27 26 30 29 26 25 25 26 25 25 25 26 26 26 26 28 46 60 71 84 98 99 98 98 86 89 87 82 80 80 76 73 74 78 82 80 75 68 59 49 42
50 42 46 39 44 49 47 36 35 33 35 32 28 25 24 24 25 23 25 28 29 30 29 28 30 44 57 71 94 100 100 98 91 86 87 87 84 85 84 75 74 76 82 83 77 66 59 51 45
40 43 38 41 43 44 42 42 38 34 32 32 29 25 25 24 22 26 27 27 27 29 30 32 32 33 41 54 88 100 100 100 100 97 89 87 86 86 88 80 76 76 78 81 79 69 60 52 45
45 43 41 54 46 44 44 45 36 33 33 33 30 28 26 26 22 22 28 30 28 26 26 28 30 33 34 42 60 82 90 98 100 100 99 98 91 92 90 88 77 76 78 80 83 73 62 56 46
54 48 54 49 50 45 45 38 38 33 29 32 31 27 26 29 30 32 35 39 39 38 36 33 33 34 36 37 45 61 72 80 85 96 99 99 99 93 94 95 87 83 81 80 82 78 68 60 50
61 56 55 56 55 48 46 35 38 30 36 34 34 36 37 37 36 38 38 41 43 49 53 50 44 37 37 40 39 45 63 73 75 73 82 92 99 99 97 98 97 92 89 83 83 82 74 68 56
63 51 53 53 56 58 50 50 32 28 34 35 34 39 42 43 44 44 46 48 49 54 57 53 47 45 44 40 40 41 53 63 66 67 75 79 90 99 99 99 100 98 96 92 84 80 76 72 63
47 51 54 56 57 80 54 49 27 28 28 34 34 38 42 43 45 46 50 52 50 53 53 54 50 46 48 52 44 44 46 59 65 71 77 82 87 97 100 100 100 99 98 97 91 86 79 75 72
71 68 91 92 91 65 55 52 27 30 30 31 39 40 42 44 47 50 51 52 53 54 55 53 50 49 48 48 52 49 46 51 62 68 74 82 87 96 96 99 100 99 100 97 95 94 87 81 79
95 93 72 63 48 41 54 48 29 30 28 30 35 40 42 48 49 52 54 55 53 56 58 59 57 53 52 54 56 56 57 53 49 58 74 79 79 82 92 100 100 100 100 99 98 99 95 92 85
78 96 48 61 57 58 34 35 29 32 34 34 40 43 45 52 52 54 54 55 55 60 65 70 64 61 63 64 63 63 63 66 62 60 58 62 70 79 84 92 98 100 100 100 99 100 99 99 94
54 48 71 76 70 55 31 28 24 39 36 35 38 42 44 51 52 53 53 58 58 65 66 68 67 66 66 68 68 70 74 77 77 76 73 67 66 70 83 96 99 100 100 99 100 100 100 99 96
60 60 57 50 53 40 23 18 23 27 30 36 32 39 47 54 55 53 52 58 61 62 63 65 66 65 67 69 70 73 76 81 81 87 90 93 93 94 95 96 98 100 100 100 100 100 99 98 93
53 53 44 55 66 65 62 29 30 26 30 33 33 41 48 56 56 50 50 54 62 61 63 65 67 67 69 70 70 75 83 85 86 87 93 100 100 99 99 99 100 100 100 100 100 99 97 92 87

GFSSGP_925_rhum_051.txt.gz
RH
52 46 29 25 29 24 25 18 14 18 17 14 16 15 14 16 19 34 53 53 48 58 74 85 75 72 74 84 88 87 85 81 81 85 92 94 94 90 92 75 92 89 91 86 93 91 86 89 89
50 36 27 24 30 30 23 17 19 16 17 16 16 16 16 17 25 44 47 58 50 57 71 75 76 70 80 88 86 87 84 82 76 77 91 86 83 90 89 85 94 90 90 97 83 74 84 91 93
59 35 28 29 29 28 23 16 14 17 16 16 16 15 17 23 31 37 53 54 53 56 63 77 71 70 83 83 82 84 81 78 74 76 80 80 86 95 93 99 97 97 96 77 68 74 87 92 94
45 29 27 34 30 23 19 16 13 17 17 16 15 17 19 33 33 44 56 52 54 54 59 80 72 76 81 86 82 81 78 79 74 75 78 76 92 95 95 95 93 88 81 77 75 89 91 85 89
39 31 38 38 31 21 17 16 16 16 17 16 15 16 20 43 48 51 54 50 52 52 65 86 76 78 81 82 80 78 79 78 76 78 78 81 90 88 94 85 87 86 76 69 82 89 82 86 86
42 33 43 40 31 22 18 17 17 18 16 14 15 15 26 45 50 55 55 52 52 53 60 77 82 75 74 80 82 78 78 78 78 78 83 84 89 89 89 87 84 79 74 77 90 94 95 90 80
44 41 43 34 27 25 20 16 19 17 16 15 12 17 24 40 63 64 56 54 56 57 58 67 75 78 78 82 82 82 77 80 78 79 79 87 87 94 91 84 86 84 91 94 96 89 85 74 68
39 38 42 34 29 27 19 19 17 17 17 12 12 17 21 37 68 78 74 59 58 60 57 58 66 79 80 86 78 81 86 87 75 81 75 74 76 76 82 82 80 78 82 83 82 84 75 67 61
35 47 45 36 30 25 18 21 18 15 15 15 12 16 35 40 72 83 89 90 80 61 59 55 57 64 64 65 85 82 81 78 81 86 75 68 71 79 62 76 63 77 78 79 83 81 69 60 57
42 46 37 26 24 27 21 22 17 21 18 15 17 22 43 44 68 76 80 81 88 66 60 58 57 58 60 59 69 70 73 87 82 86 86 65 58 62 61 78 73 81 77 79 83 78 63 57 62
36 33 27 22 28 28 24 22 16 20 18 15 17 18 32 48 63 63 71 71 80 84 74 64 61 59 59 57 58 57 58 83 81 66 66 60 59 65 64 73 76 85 78 86 86 83 62 50 44
39 28 21 24 30 34 27 20 20 20 17 15 16 22 22 36 47 55 58 62 60 75 82 88 70 64 60 57 58 52 57 62 58 60 56 58 60 64 66 61 64 70 72 70 83 78 59 51 47
39 28 26 29 38 34 24 23 21 21 19 22 22 24 22 21 28 43 52 60 61 66 77 85 88 76 67 62 56 54 54 61 62 60 57 54 59 61 63 62 61 60 61 62 70 66 58 54 46
36 32 32 29 37 37 36 28 28 25 20 22 22 22 19 19 20 25 39 49 53 57 62 75 85 91 75 68 64 61 59 60 65 64 64 57 57 61 62 62 62 62 59 60 61 62 59 49 43
39 37 35 31 32 36 35 36 35 26 21 23 20 20 19 18 18 21 24 29 38 43 49 59 71 81 81 67 82 71 67 64 63 67 67 66 62 60 62 63 62 64 64 62 61 61 57 48 42
43 42 50 32 34 32 35 35 24 24 24 22 19 17 16 16 17 17 20 24 26 27 30 40 52 65 70 69 79 91 73 70 68 65 67 68 68 64 62 62 63 62 66 67 63 63 58 49 43
50 44 41 32 27 34 40 28 20 22 24 22 19 18 17 17 17 17 16 19 22 25 26 26 30 43 57 62 74 90 98 87 76 70 69 67 68 68 66 64 64 63 66 69 68 65 59 52 47
46 41 28 27 37 33 34 34 22 25 26 23 20 19 19 19 18 18 17 18 20 21 23 24 24 26 35 46 56 80 89 96 96 77 72 74 72 72 71 69 66 64 66 71 72 67 63 55 50
29 32 26 26 37 39 35 31 27 24 26 25 23 20 18 17 16 18 23 24 25 25 26 26 26 27 27 34 44 82 94 90 100 96 76 75 79 77 76 76 71 67 66 70 72 70 65 60 52
38 32 32 36 36 38 28 36 30 28 26 24 24 24 22 21 20 20 24 28 26 24 23 23 25 27 28 29 32 42 77 88 94 98 98 89 78 78 80 80 79 72 69 68 71 71 68 61 54
38 37 30 37 44 39 40 39 33 30 28 27 26 23 21 22 22 26 30 33 35 39 42 35 30 30 31 32 32 35 49 68 78 95 93 98 97 89 82 84 83 79 72 72 73 74 72 65 57
43 36 37 49 48 36 37 23 36 32 32 30 30 29 29 30 30 32 33 37 40 47 52 46 43 39 34 34 36 37 38 51 61 66 69 76 84 92 92 88 87 86 82 77 76 76 78 69 62
49 46 49 50 49 51 44 43 30 28 35 32 32 34 36 36 37 37 41 44 43 50 53 52 46 41 43 40 37 36 36 39 45 55 61 64 67 81 92 93 90 93 91 88 81 79 82 76 65
46 51 52 52 53 74 47 38 34 29 27 30 31 32 36 37 38 40 44 45 45 49 52 52 47 44 42 44 45 40 40 41 40 48 58 60 65 72 82 86 90 94 95 91 90 85 87 82 77
50 60 82 87 94 60 44 49 26 22 21 26 31 33 36 38 40 43 44 47 46 49 51 50 49 47 45 45 45 45 46 43 43 44 50 58 64 72 82 86 90 92 93 96 95 97 94 86 83
65 60 63 63 63 51 45 46 26 23 23 29 32 36 39 42 43 45 46 48 47 49 53 56 55 52 49 51 52 51 48 49 48 44 43 52 59 63 64 84 87 93 97 99 98 100 97 93 89
96 96 44 48 37 41 33 28 30 26 26 29 36 39 41 44 45 46 45 47 50 51 57 60 57 56 57 58 58 57 57 60 61 60 56 52 51 56 63 71 79 85 90 99 100 100 100 99 96
69 56 84 77 75 50 35 26 23 33 32 33 36 36 39 45 47 46 45 49 53 53 58 58 57 57 58 59 58 60 62 65 67 66 68 70 68 63 60 64 81 82 88 98 99 100 100 100 99
56 58 52 51 50 46 27 20 23 29 30 32 29 35 42 48 49 46 44 46 53 53 57 57 58 57 59 59 59 62 69 72 72 71 74 80 87 90 91 86 84 87 89 91 100 100 100 100 100
45 44 42 56 63 53 54 33 20 24 26 29 28 37 43 50 50 45 45 49 50 53 57 57 58 59 60 60 60 64 69 72 73 75 76 81 88 95 96 95 98 99 98 100 100 100 100 100 100

GFSSGP_925_rhum_054.txt.gz
RH
37 44 41 31 50 42 40 27 18 18 17 16 16 16 20 18 44 73 47 48 64 75 81 74 73 73 78 84 87 83 78 73 78 80 82 92 92 83 80 83 92 93 86 96 91 87 90 93 94
51 47 32 43 48 48 36 22 22 17 20 17 16 17 18 41 46 54 54 50 60 74 77 73 74 73 80 85 84 81 75 78 74 75 87 86 85 93 93 93 91 92 95 93 73 85 91 91 94
48 48 47 46 47 44 35 21 19 20 16 17 18 15 17 40 40 48 55 49 58 73 77 81 77 71 86 81 79 76 72 73 77 76 83 84 93 99 97 98 92 95 88 69 66 78 92 94 94
46 41 40 48 42 33 26 18 17 19 17 16 16 20 34 42 41 52 52 50 56 64 74 76 72 76 78 71 71 73 74 74 78 77 71 85 97 99 100 98 95 88 74 72 67 84 93 94 92
45 47 53 48 43 30 21 18 15 19 17 17 15 21 49 46 49 52 50 52 53 73 76 71 70 80 86 79 75 69 76 70 76 77 74 85 96 96 87 92 89 80 70 69 79 91 89 86 76
79 48 67 58 41 30 23 19 16 16 17 15 15 22 51 47 51 51 49 50 51 71 84 75 70 77 79 77 76 73 72 71 78 76 78 86 91 94 85 83 82 78 69 70 82 90 83 75 71
88 77 70 52 40 31 25 18 19 19 17 18 13 20 55 62 59 53 50 50 50 63 76 80 77 76 74 72 71 76 76 72 78 75 75 80 92 88 95 83 82 75 68 71 85 85 74 69 63
61 86 74 50 42 38 22 19 18 18 19 14 13 30 59 68 69 65 59 54 54 56 68 75 78 75 74 73 77 77 78 84 79 77 75 62 67 87 86 84 84 73 68 72 80 77 68 63 59
46 83 90 64 45 36 20 22 19 16 18 14 14 40 40 66 75 80 80 71 63 58 56 64 72 78 75 76 76 76 79 86 80 82 75 55 54 50 49 78 72 65 71 80 80 74 65 59 56
49 66 64 42 34 33 25 22 23 21 22 19 16 35 41 64 75 81 80 81 80 62 57 56 63 69 73 71 78 78 80 76 78 81 78 53 71 67 65 68 69 70 80 81 79 76 63 55 55
48 57 43 34 31 33 26 24 20 23 26 20 20 25 47 51 57 68 73 76 81 75 61 57 56 58 60 59 65 68 74 79 78 79 78 60 62 62 65 71 67 71 82 82 81 80 63 51 60
47 41 34 32 34 33 29 23 24 22 22 22 29 26 31 48 56 56 62 65 75 78 78 70 65 58 58 58 58 60 62 73 73 79 68 59 60 61 64 68 60 63 77 81 81 76 69 51 47
46 35 30 28 38 36 27 28 26 23 21 23 26 26 24 21 30 47 52 58 58 73 76 77 75 68 61 57 57 55 53 71 70 68 62 60 58 64 67 64 64 62 75 68 79 74 72 57 52
39 36 32 31 39 36 32 28 26 24 20 25 23 23 24 22 21 22 45 53 58 61 70 78 78 75 72 64 59 56 54 56 61 60 60 56 57 60 64 65 63 61 62 67 69 70 68 57 53
37 43 39 34 39 39 34 40 36 26 23 26 25 26 24 23 18 18 20 28 43 53 58 69 75 80 77 75 66 62 61 59 61 65 64 62 56 59 62 62 64 62 62 60 61 62 63 60 50
48 46 52 38 37 37 40 50 34 28 30 31 26 24 24 23 20 18 18 21 25 28 29 56 68 75 79 77 73 70 69 68 65 65 67 67 65 59 60 62 63 64 65 64 61 62 62 59 49
54 66 57 45 34 36 40 42 31 25 30 32 28 25 21 20 18 16 17 16 19 23 26 27 29 54 70 72 70 77 70 74 71 68 67 67 69 68 64 63 63 64 64 66 66 64 64 61 51
66 61 50 45 34 38 48 46 30 24 25 28 26 23 21 21 20 18 18 20 23 24 24 25 26 27 30 43 63 66 77 75 74 80 76 70 68 69 69 66 64 64 64 65 68 68 66 63 55
41 46 46 34 36 38 40 40 35 28 31 33 31 27 24 22 19 18 22 23 23 24 24 26 27 26 26 26 32 63 82 83 79 76 84 81 74 72 73 70 69 66 65 65 69 69 68 66 57
38 42 41 32 39 40 37 39 32 29 30 30 30 29 26 25 22 25 29 29 29 27 25 24 24 26 27 28 28 33 62 75 70 77 76 88 90 77 78 77 75 73 69 66 69 73 73 68 61
42 46 36 41 44 40 41 44 37 32 29 28 28 27 25 24 23 31 34 36 38 45 47 42 35 28 28 30 32 32 33 62 83 88 87 83 87 92 89 84 79 83 79 74 70 75 75 75 65
47 34 36 47 55 55 43 39 34 38 35 33 31 30 29 32 36 36 39 41 44 51 54 52 47 42 39 32 32 35 37 40 52 74 75 79 81 80 74 79 93 83 85 81 79 74 81 78 71
43 45 49 50 57 59 51 61 39 38 40 38 36 38 40 39 40 43 46 45 46 51 53 53 50 45 42 43 43 37 38 38 38 38 44 63 69 72 79 83 78 77 85 85 80 77 79 82 79
49 57 57 55 60 91 59 50 48 42 37 37 38 42 42 43 44 45 45 46 46 50 51 52 50 48 46 44 45 45 43 41 40 40 42 46 56 62 66 75 85 77 82 88 89 89 87 90 88
56 71 95 96 97 87 48 56 47 30 30 34 38 41 41 43 47 49 52 51 48 50 52 55 56 54 50 48 48 49 50 49 50 46 44 45 50 60 64 68 74 78 78 81 85 87 88 90 98
68 69 92 75 92 74 45 69 40 27 30 33 35 39 44 45 52 50 49 49 50 51 56 60 58 56 56 57 58 56 56 58 60 60 59 55 52 50 55 62 68 74 80 83 88 90 87 94 100
88 96 47 70 36 70 55 36 31 29 38 37 39 43 47 50 52 48 47 49 52 53 58 59 58 57 58 59 59 59 62 64 67 67 67 69 67 68 62 60 64 74 78 83 85 90 91 96 99
80 61 84 94 83 64 44 39 41 40 36 38 47 48 49 50 51 51 49 49 53 54 58 58 57 57 59 59 59 63 70 72 73 72 75 78 77 76 76 78 80 85 80 78 84 91 99 99 99
91 97 75 70 71 84 55 37 26 35 33 41 38 40 44 52 56 53 50 46 48 54 58 58 59 59 60 61 61 65 70 72 74 75 76 80 84 89 92 95 91 89 87 92 88 94 95 100 100
53 55 54 97 85 72 76 52 23 32 36 36 31 43 48 55 56 51 48 48 52 54 58 57 60 62 64 65 66 69 74 77 80 82 82 80 78 82 84 86 90 92 94 95 98 99 100 100 100

GFSSGP_925_rhum_057.txt.gz
RH
33 36 50 47 53 58 53 40 20 20 20 20 18 21 22 35 56 69 55 57 68 74 80 78 77 80 80 82 85 81 74 71 74 80 83 89 74 92 93 91 92 94 97 90 89 92 92 94 85
33 44 46 50 60 60 53 32 22 25 22 19 18 19 33 59 58 59 66 71 70 70 78 79 76 77 82 82 79 76 72 77 74 80 79 70 83 94 94 92 95 98 97 86 90 91 93 94 76
34 44 60 57 63 63 49 27 26 21 19 19 20 18 37 51 58 56 58 74 68 69 75 79 80 76 83 79 78 76 72 74 72 74 70 82 95 94 94 95 92 92 72 75 87 90 93 92 65
46 48 52 61 61 46 38 28 23 21 19 18 18 52 52 52 53 56 62 68 72 74 73 79 76 73 78 74 77 74 72 75 77 70 76 96 96 94 94 100 92 82 71 72 78 89 92 74 60
47 52 71 64 56 46 31 21 19 22 21 19 17 44 66 58 54 52 62 71 74 81 76 77 74 78 76 73 74 73 73 74 77 69 78 96 98 100 98 95 85 74 67 58 64 82 76 70 65
80 71 80 80 61 42 32 20 18 20 19 16 28 55 66 57 52 52 55 67 70 78 74 68 69 79 81 74 72 72 72 73 76 69 69 98 95 88 87 86 81 73 64 59 70 78 70 66 64
71 86 82 76 68 48 36 22 20 20 19 18 17 66 80 70 59 52 57 66 74 76 73 72 74 80 81 74 73 74 73 74 74 72 52 92 90 88 86 83 79 76 64 61 69 68 68 64 61
82 75 75 73 69 59 35 22 20 20 19 15 19 62 81 73 71 64 57 73 77 75 72 74 78 77 78 72 74 74 75 77 76 74 64 61 83 86 76 83 83 74 63 63 70 69 64 59 54
64 88 87 82 73 58 36 44 20 19 20 18 33 50 74 69 70 66 62 64 81 75 70 70 72 73 72 72 74 74 78 78 80 74 75 51 56 72 72 74 81 72 64 69 74 69 63 57 54
87 86 68 52 56 58 44 40 40 22 22 24 55 73 77 75 69 79 75 76 67 74 74 69 70 69 72 74 75 74 75 78 77 75 78 49 48 42 47 75 66 58 66 76 77 74 64 54 52
59 78 59 52 47 60 45 37 34 26 26 23 43 65 76 83 83 80 77 72 70 66 72 74 69 68 72 78 78 77 77 79 73 77 79 49 69 69 60 62 70 58 75 83 79 76 64 57 56
58 49 50 46 48 66 40 29 29 25 26 34 28 56 62 72 73 83 79 72 65 72 72 73 74 69 73 74 74 65 62 64 69 80 78 52 68 71 70 67 66 56 72 80 78 74 69 51 51
62 45 41 39 40 44 36 31 27 25 28 31 29 29 40 56 65 60 66 70 68 63 69 67 66 64 62 61 58 62 60 62 70 76 79 66 63 67 64 64 62 57 55 69 72 76 72 56 52
49 47 39 36 42 36 33 31 27 25 28 28 28 26 24 23 23 48 60 60 71 72 64 60 68 67 69 60 58 59 61 57 68 72 77 73 58 63 64 67 65 63 61 64 73 73 74 66 56
44 57 51 50 46 40 34 39 38 31 28 27 28 28 26 24 21 20 33 56 57 63 65 64 57 66 69 68 62 59 57 59 67 68 63 65 60 59 65 68 67 65 62 63 70 71 74 77 59
51 55 76 45 46 40 37 52 40 33 32 33 34 30 29 26 22 19 18 19 28 51 63 65 72 67 64 72 72 64 64 60 61 62 64 64 63 57 60 62 65 66 65 62 62 65 73 70 60
65 77 69 49 43 46 44 51 38 34 35 37 36 34 31 28 24 20 18 18 18 24 29 44 70 73 72 68 72 74 68 66 67 64 64 65 67 68 59 59 62 63 65 66 64 61 62 64 63
81 70 61 54 43 44 50 49 39 32 36 39 38 33 30 27 24 19 22 24 23 24 26 27 31 55 66 66 72 73 73 68 67 68 67 68 69 70 70 66 61 62 64 65 68 66 63 64 64
55 56 61 50 38 43 48 49 42 38 30 34 35 33 30 26 22 25 24 25 24 24 24 25 26 27 27 35 57 76 78 77 70 68 72 71 73 76 72 72 71 68 64 65 64 69 69 67 66
52 58 56 40 40 43 46 51 45 40 35 33 35 36 32 26 29 34 33 33 35 35 31 26 25 25 27 28 32 38 67 79 73 73 71 69 68 70 88 83 74 71 68 66 67 66 73 71 70
49 53 50 49 46 44 42 47 41 36 33 32 31 31 28 24 29 42 43 45 43 44 44 45 42 35 29 28 29 32 34 53 75 82 82 80 75 67 64 74 89 83 78 73 70 70 73 83 76
58 40 40 54 59 65 42 58 40 40 40 36 34 32 29 42 44 47 48 48 48 50 50 51 50 46 43 42 37 32 34 39 38 44 55 69 78 75 77 70 71 72 80 92 84 81 79 85 89
54 48 55 55 59 58 54 66 50 44 45 41 40 41 48 50 51 54 52 47 51 52 53 53 51 47 46 46 46 46 44 39 38 38 38 40 44 65 77 74 74 70 68 70 86 92 93 90 90
53 61 65 67 71 91 66 64 52 50 40 43 44 51 48 48 53 54 48 49 52 52 53 54 56 54 51 48 48 49 51 50 48 47 45 42 42 47 66 71 67 73 80 76 73 74 84 97 98
61 69 96 97 96 92 54 66 52 38 37 39 48 50 50 51 57 60 59 54 52 54 58 60 58 57 58 57 56 56 58 59 62 64 64 62 58 53 53 59 74 74 72 72 74 77 76 80 94
69 65 87 85 98 85 49 73 54 34 33 38 41 47 52 55 62 61 58 54 55 58 58 60 59 60 60 59 60 63 66 67 67 68 70 70 70 69 65 62 65 64 72 73 74 70 78 80 84
85 91 54 73 52 83 65 45 33 43 47 45 48 54 54 56 62 61 56 57 57 59 60 59 58 60 60 60 62 67 70 70 73 75 76 77 77 75 76 75 74 72 81 94 92 96 85 89 85
80 67 83 94 90 70 63 47 49 50 51 46 51 53 53 62 62 62 57 56 58 59 60 59 59 60 60 60 64 68 70 73 75 76 76 77 79 80 75 75 81 83 86 93 85 90 81 84 84
83 95 78 77 85 88 64 50 28 36 44 48 53 51 58 62 64 60 56 51 56 61 60 60 60 62 64 65 68 69 72 74 74 75 76 76 76 79 78 80 82 85 87 87 86 82 84 84 94
70 76 70 93 85 74 82 58 32 36 39 45 48 49 58 64 62 59 53 55 61 62 59 60 63 66 69 70 72 74 76 78 83 85 85 85 83 82 80 80 78 79 81 84 86 93 99 99 99

GFSSGP_925_rhum_060.txt.gz
RH
33 32 44 44 53 62 60 48 24 22 22 20 20 43 55 49 55 48 64 75 72 77 80 81 82 82 84 83 82 81 77 74 77 77 80 81 85 92 89 92 96 97 90 92 91 90 94 83 54
33 41 43 56 63 65 58 38 32 25 22 22 22 26 53 68 60 86 80 82 69 78 86 83 82 82 83 83 77 78 72 74 78 81 76 75 95 94 92 94 98 97 92 91 91 93 94 66 54
36 41 59 58 69 64 52 32 28 22 21 20 21 36 50 63 61 69 68 83 74 80 80 79 81 82 83 81 78 72 73 72 67 78 61 91 92 95 92 96 97 84 74 69 87 90 79 56 59
44 47 56 70 67 51 40 39 25 23 20 20 37 63 59 60 56 64 76 75 75 81 78 78 78 78 82 79 77 75 72 70 66 68 88 90 94 90 89 93 90 70 69 68 79 83 57 50 60
46 60 75 70 66 52 43 34 27 22 21 19 27 66 71 61 65 72 78 72 72 80 80 82 82 79 80 78 77 75 74 72 64 71 95 90 95 90 95 97 84 69 66 50 54 62 62 53 63
79 69 85 84 68 51 46 36 23 22 20 29 69 71 74 68 65 80 76 72 64 71 76 77 72 80 75 76 77 77 74 72 73 54 94 100 98 100 100 90 75 71 65 46 65 62 60 57 57
66 76 87 79 72 60 45 36 24 23 20 20 52 80 80 74 70 77 76 75 78 75 77 76 72 77 77 73 74 77 75 74 68 54 70 91 91 94 94 84 78 75 64 47 57 59 59 59 57
77 64 80 78 70 65 45 48 32 21 20 17 49 88 90 78 74 75 83 83 83 80 73 70 80 79 74 71 73 74 76 76 72 67 44 72 84 83 85 85 86 82 68 59 62 65 62 56 56
76 87 73 69 67 59 61 59 41 25 24 42 51 66 69 78 76 86 92 93 88 82 75 74 79 79 77 75 73 76 76 76 77 75 63 58 72 74 68 79 84 80 70 66 76 71 62 56 52
82 74 68 50 50 74 73 62 56 31 34 66 93 86 80 76 74 84 90 95 95 92 81 71 72 74 75 76 75 76 78 78 79 75 74 47 55 65 62 60 73 77 70 70 79 71 65 58 54
89 76 60 50 48 81 80 73 57 46 27 47 88 93 86 81 81 82 83 86 84 81 80 74 69 69 72 76 76 76 77 77 77 72 76 56 47 45 49 71 74 68 61 71 86 80 68 55 52
74 58 56 52 50 84 81 68 64 42 29 32 69 86 88 88 86 80 79 77 82 80 78 74 74 72 70 72 74 76 76 79 78 66 75 80 53 64 65 60 60 50 51 66 73 76 73 56 57
62 55 51 60 68 77 74 79 72 42 31 35 56 64 82 87 82 69 62 68 70 78 80 77 76 76 74 76 75 78 72 71 62 61 74 78 53 67 68 68 66 63 57 58 69 74 72 69 52
61 53 55 56 50 60 80 78 65 32 28 31 32 36 39 62 71 74 76 67 70 65 69 76 78 75 76 79 77 70 63 59 63 68 70 77 66 63 65 64 67 66 62 52 55 65 71 73 66
52 66 57 52 48 44 49 64 60 29 31 30 30 30 26 26 24 60 64 70 66 63 62 64 68 70 69 67 68 63 61 60 58 66 71 74 74 65 64 64 66 68 66 63 62 70 73 78 75
55 68 81 54 49 42 36 51 39 34 35 34 32 30 30 31 24 22 28 56 61 66 66 59 61 65 70 68 62 61 61 61 61 62 71 70 73 66 62 63 66 68 68 66 65 68 72 73 78
68 88 80 59 48 48 42 50 39 32 37 37 39 37 34 32 27 22 21 22 24 47 63 69 65 65 65 68 74 69 64 65 67 63 67 66 65 64 62 60 62 66 68 69 67 66 70 72 74
83 74 67 58 52 50 52 52 37 35 35 39 39 39 34 28 29 23 21 23 25 27 30 47 73 76 75 73 72 75 76 72 67 69 67 67 66 67 66 67 64 62 65 66 68 68 65 67 65
62 63 68 54 44 48 56 53 45 39 37 37 43 38 32 28 29 29 29 27 26 27 27 27 29 34 52 79 84 82 79 77 74 70 69 71 71 71 75 72 71 70 67 64 66 67 70 69 69
61 63 66 48 44 46 51 55 50 44 42 36 35 37 36 30 36 38 39 36 34 35 32 31 33 31 29 31 36 57 73 81 80 78 78 75 73 70 72 70 69 75 76 74 72 69 71 74 78
61 65 59 52 48 43 48 56 50 45 39 35 35 34 34 31 39 49 51 48 46 45 45 43 40 40 40 36 32 31 34 40 67 64 63 63 78 81 78 75 71 74 82 83 80 76 75 81 80
73 48 46 51 59 69 43 72 42 46 43 41 41 38 36 36 47 52 54 52 49 50 50 49 49 47 46 45 44 40 35 35 35 36 39 46 54 67 79 82 81 81 79 81 74 74 84 85 91
58 47 55 58 62 58 56 61 54 43 48 44 44 41 40 54 58 58 55 53 56 53 52 51 51 51 49 47 48 48 49 48 46 44 42 41 40 42 46 55 82 82 72 71 71 78 82 90 99
54 61 68 73 72 90 66 61 61 54 46 41 44 48 56 59 62 61 55 57 56 54 54 55 55 55 54 53 53 52 54 54 54 56 55 55 53 54 56 63 73 79 83 75 76 77 79 81 84
61 69 95 94 96 90 61 69 52 42 39 42 45 57 58 60 66 67 66 60 57 58 57 58 58 59 59 59 60 62 65 67 69 70 70 66 64 66 64 64 64 71 76 77 79 79 76 78 80
75 66 87 86 96 80 56 82 56 41 37 38 42 50 55 61 69 68 64 60 60 60 60 60 61 61 60 61 67 69 69 71 73 75 77 77 76 78 77 72 69 67 68 75 84 89 90 92 90
83 94 60 73 66 87 68 56 38 44 45 52 54 55 60 64 70 69 63 61 61 62 62 60 60 61 61 63 68 69 71 72 75 76 77 77 77 76 74 70 70 74 78 89 95 98 100 97 89
83 68 80 92 85 75 66 61 53 51 54 52 58 58 61 66 70 70 69 64 62 63 61 60 60 61 62 64 67 70 71 72 74 75 74 74 73 74 74 72 69 73 80 87 90 87 85 81 81
95 92 82 76 84 89 76 59 37 45 45 51 55 58 59 70 70 68 62 61 64 65 63 62 62 62 65 67 69 70 72 73 75 76 78 80 79 79 78 79 78 78 78 79 81 83 81 82 85
72 82 73 88 84 80 82 59 34 36 44 48 51 50 56 66 67 64 59 62 69 65 64 64 66 67 70 72 73 75 78 80 81 84 85 85 84 82 81 81 81 80 81 82 83 88 93 99 99

GFSSGP_925_rhum_063.txt.gz
RH
37 32 42 40 54 65 62 50 36 26 23 21 23 39 36 63 47 46 74 80 81 88 84 84 84 82 83 82 82 80 84 86 78 77 82 85 93 90 92 97 95 93 92 90 90 94 91 84 68
36 44 40 57 65 69 59 43 35 28 22 28 38 40 64 69 66 96 93 91 76 83 84 84 82 83 82 78 86 84 78 81 77 76 73 84 91 91 88 96 97 94 90 89 91 95 77 69 78
36 44 54 60 72 67 53 35 35 26 23 24 31 52 60 70 79 82 74 94 85 85 80 85 81 84 78 83 84 77 72 77 79 78 67 85 94 94 87 99 92 70 60 59 80 78 64 66 78
46 47 59 74 69 55 44 41 38 30 21 22 52 68 65 66 66 66 85 94 83 85 82 84 83 81 82 81 79 73 72 64 70 69 93 91 89 93 95 96 83 66 58 30 41 53 56 67 75
52 59 74 73 69 57 47 42 38 30 26 26 45 78 75 70 66 81 90 86 80 84 78 77 78 78 84 80 77 74 71 60 56 88 93 82 96 93 94 92 79 67 59 34 45 50 50 64 72
73 62 84 84 70 55 54 43 40 26 23 60 75 80 78 76 90 88 83 82 78 80 81 76 76 80 81 80 77 76 73 59 49 76 83 87 91 89 98 94 76 73 64 44 53 59 53 61 69
72 77 83 78 76 61 49 52 40 32 25 32 68 90 82 85 87 85 82 82 82 80 81 79 78 80 75 78 77 78 74 69 48 65 81 81 89 94 99 92 81 84 76 57 59 63 61 60 66
72 62 86 76 68 64 60 57 49 34 27 31 62 89 86 86 86 86 85 82 79 76 77 78 74 77 74 79 77 77 76 74 58 44 84 86 80 86 91 86 89 88 78 67 71 69 65 62 62
73 80 69 65 66 58 66 64 55 48 34 58 74 76 79 84 86 92 99 97 92 86 82 76 77 82 74 74 75 75 77 76 74 68 47 75 83 82 83 83 81 79 73 59 61 68 65 60 58
89 82 66 50 52 68 72 69 67 57 53 69 94 93 90 92 97 100 99 99 100 92 85 76 78 84 79 76 77 78 79 79 78 78 67 54 65 69 72 77 86 83 74 63 57 64 63 59 55
88 73 60 49 49 77 75 67 61 64 49 35 84 96 90 90 98 98 100 97 90 81 83 82 84 82 81 78 78 80 81 81 80 79 71 65 52 59 64 63 72 81 77 67 73 74 65 58 52
86 67 54 57 78 82 76 67 69 62 53 52 42 91 90 93 93 94 95 95 91 86 79 77 78 77 80 78 78 78 78 79 79 78 73 76 52 46 45 45 67 70 63 58 63 71 70 65 54
68 63 56 79 75 74 70 73 78 71 56 52 45 87 88 89 87 85 84 87 85 85 80 77 78 76 75 78 78 77 77 79 78 80 71 75 78 49 58 56 57 60 57 50 55 64 72 71 63
67 54 65 80 76 74 78 71 74 64 55 40 76 85 85 83 80 81 81 82 83 80 78 76 76 75 73 74 76 76 78 77 75 68 65 69 76 51 59 64 67 68 68 63 57 54 64 68 71
65 72 74 77 69 68 71 89 87 61 54 43 36 46 47 66 71 73 71 70 70 76 77 74 71 75 77 74 74 76 77 74 66 60 68 70 75 76 62 62 63 64 67 69 66 60 63 72 77
74 74 85 67 57 54 79 85 75 66 57 43 37 35 33 30 29 50 62 63 65 68 71 73 78 76 74 76 76 77 75 69 64 62 60 67 73 76 78 68 65 64 65 70 70 66 66 70 75
68 93 81 68 51 59 71 59 58 57 56 46 38 41 37 33 29 26 25 48 64 62 64 69 73 74 76 75 71 69 67 65 64 64 62 62 68 73 76 76 67 64 66 68 71 70 70 70 72
86 83 73 67 55 52 62 49 40 41 39 39 36 42 43 36 30 25 24 23 22 36 59 64 69 74 78 80 81 80 79 73 68 68 70 66 65 71 71 75 71 67 69 70 73 73 72 71 69
66 68 70 55 51 53 54 52 45 40 41 42 44 46 45 37 30 32 32 29 30 31 33 44 64 72 77 82 83 82 79 79 81 77 74 76 76 76 76 74 71 70 72 71 71 75 77 76 74
61 71 72 52 50 52 56 57 48 43 47 43 40 43 44 33 40 42 38 35 36 36 33 31 31 31 32 42 66 80 83 82 82 82 83 85 84 87 90 86 82 74 79 77 80 78 78 81 82
64 71 66 60 50 46 49 57 51 45 49 42 41 38 38 38 44 52 52 48 47 47 47 43 40 36 34 32 30 32 36 40 50 68 74 79 83 82 88 92 90 84 84 81 79 87 86 91 86
72 52 52 56 59 75 48 80 50 50 50 46 47 45 41 37 46 54 58 56 51 49 49 50 50 48 46 43 41 38 34 34 34 38 36 36 40 46 54 67 82 84 85 88 81 84 91 90 95
62 49 55 53 62 58 57 66 55 43 53 46 42 48 44 41 53 61 59 56 58 55 51 51 52 51 51 50 49 49 48 48 48 47 44 41 38 40 42 47 50 63 82 88 86 82 82 86 93
57 62 68 73 72 90 65 64 66 51 44 38 40 47 43 58 64 63 58 61 60 57 56 54 54 55 56 56 56 55 56 56 56 60 61 60 59 57 59 59 62 69 73 86 92 92 90 82 82
59 71 96 95 97 92 65 67 52 42 42 40 39 47 53 66 73 74 75 66 62 60 59 57 58 59 60 60 62 66 69 70 70 72 72 72 72 73 70 68 66 69 75 82 89 92 94 88 93
70 64 89 86 96 81 68 81 58 45 40 41 42 47 65 73 76 75 71 65 64 62 60 60 61 62 62 65 68 71 73 75 77 78 78 77 78 80 78 74 73 74 75 78 88 95 98 100 100
80 93 57 77 73 89 72 60 42 40 41 41 52 61 67 70 77 77 71 66 65 64 62 60 61 62 62 66 69 70 73 74 76 77 78 76 76 74 73 72 70 72 79 88 99 99 96 91 93
83 73 83 91 81 80 68 68 51 41 47 51 62 64 66 68 77 77 73 68 66 65 62 62 62 61 63 65 68 69 70 71 72 73 72 73 74 74 74 73 73 73 74 78 85 88 87 86 87
97 94 82 76 81 80 82 60 46 36 42 54 59 60 66 75 77 78 76 69 67 66 64 64 64 64 66 69 70 71 73 75 77 78 80 82 82 81 79 80 80 79 80 80 82 84 86 87 97
81 81 83 90 85 86 84 69 33 43 42 53 58 57 62 70 75 74 68 70 72 69 66 66 66 66 69 72 73 75 78 80 82 85 86 87 86 86 85 84 83 84 85 85 85 86 88 91 96

GFSSGP_925_rhum_066.txt.gz
RH
60 45 47 37 52 66 55 45 41 32 24 22 24 32 36 59 47 50 85 90 76 84 84 83 83 85 83 82 79 80 83 86 76 80 90 97 92 94 96 96 95 93 88 88 93 94 89 88 87
58 52 39 57 64 67 56 46 37 32 25 51 40 51 64 76 77 98 97 97 76 89 83 83 82 82 81 80 81 86 87 83 80 76 76 89 92 92 94 98 96 90 82 90 95 93 82 84 76
59 51 50 60 76 68 48 39 41 37 30 26 48 62 65 76 90 90 84 96 88 86 82 83 80 84 83 86 85 78 75 78 79 79 70 96 94 91 93 98 82 70 51 83 91 80 71 80 75
60 46 57 70 69 56 45 46 43 43 24 25 52 70 70 72 79 74 87 93 89 85 84 82 85 83 84 83 82 76 71 73 66 75 90 96 96 92 99 96 76 67 39 62 68 65 66 76 75
61 52 68 76 68 58 48 47 48 42 31 26 51 78 79 77 74 86 94 94 99 85 86 84 84 83 82 81 78 74 69 52 61 86 83 89 96 96 99 91 75 68 43 51 61 60 67 74 76
76 61 80 83 67 57 54 50 52 40 31 58 75 82 82 88 99 100 94 88 81 83 88 82 81 82 81 80 77 75 70 52 58 80 80 82 91 89 93 92 75 74 60 55 62 61 62 72 75
85 79 75 76 64 62 50 56 50 52 37 26 70 86 88 90 100 100 92 87 86 81 82 82 77 80 80 79 78 76 72 56 52 82 80 79 81 83 92 90 79 83 79 67 69 68 66 68 72
87 76 81 74 72 63 62 54 50 56 45 34 61 83 93 86 98 97 96 92 86 82 86 83 76 79 78 79 78 78 75 66 43 80 83 82 86 87 92 81 76 77 74 52 56 60 64 67 66
83 91 75 78 64 60 66 60 62 54 47 50 92 89 86 87 96 96 100 100 95 92 89 86 79 78 80 77 78 80 78 74 68 46 69 84 88 92 94 88 86 88 82 63 51 58 60 58 59
90 88 72 52 58 66 72 70 69 57 56 62 55 82 100 100 100 97 96 93 98 100 88 85 80 80 82 78 79 77 79 77 77 75 61 56 73 79 84 86 86 86 84 70 58 65 67 60 55
95 78 63 51 68 70 73 72 62 60 51 58 65 53 89 96 100 95 94 94 99 97 87 85 82 85 83 79 81 82 81 80 80 80 78 65 54 62 66 66 65 77 78 73 64 66 66 62 57
94 72 61 66 72 70 67 65 68 72 54 57 53 54 83 96 95 98 99 100 98 90 86 80 80 86 88 82 81 80 81 81 81 81 79 73 65 48 49 49 49 62 74 72 66 62 69 67 61
80 74 65 67 72 76 65 76 70 71 57 56 52 65 91 96 99 99 98 96 90 88 82 79 80 87 86 86 82 81 80 79 77 80 80 76 73 69 45 43 43 55 64 57 55 59 63 67 68
67 63 62 82 75 79 73 78 66 45 60 58 53 59 90 93 93 92 95 93 91 85 81 77 75 75 79 80 80 79 78 77 79 79 79 78 68 75 56 52 61 61 64 67 65 62 61 62 69
63 83 90 90 84 84 70 77 80 54 57 60 60 43 51 71 81 87 88 88 86 81 77 77 74 74 76 76 74 76 77 78 80 77 72 72 68 71 76 58 62 63 65 69 72 71 69 66 65
76 82 94 87 90 83 73 83 74 62 78 70 62 46 39 35 35 68 75 78 81 78 76 75 77 77 77 77 74 74 77 78 78 74 69 66 70 73 76 79 72 66 66 67 69 72 73 70 70
81 92 84 91 74 86 72 78 56 72 78 73 61 54 41 40 32 27 34 67 73 74 78 79 80 79 77 77 78 79 79 80 79 75 69 67 67 67 73 76 76 78 75 69 69 71 75 75 72
90 92 79 89 71 79 74 62 68 71 75 74 57 52 44 41 40 28 25 26 46 62 62 76 81 82 81 83 83 80 78 77 75 71 67 66 68 69 71 74 79 80 83 82 72 73 73 76 76
74 76 78 58 59 73 80 66 55 64 76 72 62 50 50 42 35 31 30 26 26 26 39 58 66 78 82 85 88 90 86 82 81 78 76 75 77 81 80 78 78 76 79 77 73 75 80 80 81
68 78 75 55 56 63 62 65 50 52 63 61 51 44 41 42 36 38 36 37 36 34 35 40 45 50 55 70 86 89 88 88 85 84 86 88 91 90 91 88 87 87 85 81 82 85 87 87 85
67 78 76 68 58 48 60 63 60 53 48 43 39 41 41 45 42 48 52 45 43 41 39 37 36 34 33 32 34 39 46 53 61 71 82 88 92 95 97 96 96 98 100 97 91 90 91 97 93
72 60 56 62 68 86 51 86 64 53 51 49 44 39 45 44 43 51 56 59 53 51 49 46 44 42 40 39 38 37 35 34 35 38 42 42 41 44 48 55 66 80 96 100 96 92 93 100 99
63 56 56 55 67 61 59 73 62 45 51 44 40 39 46 44 44 54 60 57 59 58 54 53 51 49 49 48 47 46 48 49 49 48 48 50 50 50 53 54 56 58 66 81 98 100 98 95 100
62 64 70 75 74 92 68 70 71 57 43 36 39 39 41 43 44 60 59 63 64 61 59 57 56 57 56 55 54 53 54 56 58 61 62 62 62 61 62 63 65 70 73 74 77 99 100 99 100
61 71 96 94 95 93 67 74 55 43 40 37 34 36 46 48 62 73 82 73 67 63 58 57 57 59 61 62 63 65 66 68 71 76 76 75 73 72 69 68 66 66 69 76 89 97 100 100 99
67 63 89 86 96 83 70 86 59 44 41 42 39 41 46 67 78 79 81 71 68 65 62 60 59 60 63 66 68 72 75 75 76 77 78 77 77 78 75 71 67 65 70 74 91 97 100 100 99
81 86 58 78 75 88 75 63 43 41 43 42 42 57 64 77 84 82 77 69 68 65 63 61 61 62 65 67 70 71 74 75 76 77 77 76 74 73 73 72 72 70 71 78 95 98 93 98 97
80 72 84 90 82 82 70 68 57 41 40 39 48 64 72 76 82 83 80 71 67 65 64 64 63 63 66 68 68 68 69 70 71 72 72 73 74 75 75 75 76 76 77 78 85 90 91 89 89
94 92 81 77 79 78 80 66 50 40 34 40 48 63 71 79 82 84 81 72 69 68 66 65 64 65 67 69 70 71 72 74 76 77 79 81 82 82 81 82 82 82 83 86 88 90 93 94 99
74 85 81 94 88 90 87 74 37 39 44 43 54 61 66 71 80 83 81 77 77 72 69 67 68 68 70 72 73 75 78 80 84 87 88 90 89 88 87 86 86 86 86 88 89 90 92 94 97

GFSSGP_925_rhum_069.txt.gz
RH
73 51 54 39 43 48 44 37 40 32 25 26 25 27 35 50 38 33 86 86 74 91 96 90 85 84 85 85 83 78 82 85 76 87 94 92 95 94 95 94 94 88 88 91 94 91 92 90 82
70 54 42 52 49 47 42 43 38 34 28 45 35 55 54 61 76 93 93 97 79 94 97 96 83 83 82 80 78 80 89 77 76 78 76 90 92 95 98 96 94 83 90 94 96 92 90 83 78
58 52 46 52 59 48 37 42 43 39 37 30 50 60 63 70 84 88 86 98 97 98 86 83 82 83 82 79 82 82 76 76 76 69 71 89 85 94 98 96 76 49 59 86 84 74 80 76 75
53 48 51 52 61 51 40 45 44 42 26 25 51 66 69 79 81 86 96 98 98 95 84 85 81 83 83 82 80 74 72 75 77 71 76 85 90 95 93 88 71 47 47 74 71 68 74 73 71
53 53 63 69 59 54 47 45 49 39 34 28 52 67 77 82 78 96 98 98 99 88 88 86 88 82 82 83 77 74 69 58 63 81 78 83 86 97 91 86 72 58 56 64 69 72 74 75 74
82 66 69 68 63 54 50 48 45 45 37 48 63 75 80 97 99 99 99 97 100 92 91 95 88 82 82 79 75 74 62 57 82 78 77 70 86 91 92 86 74 70 55 78 86 76 77 78 76
74 84 73 67 56 55 49 52 49 50 43 28 69 73 84 92 97 99 100 100 99 93 93 95 85 84 81 78 77 74 53 53 82 80 80 84 84 83 89 86 73 71 51 53 61 59 62 72 73
83 73 82 67 57 50 59 51 53 52 42 41 64 66 78 85 99 100 100 98 96 91 85 83 80 84 83 80 78 76 71 46 79 83 82 82 83 87 90 83 76 80 77 58 62 66 64 62 65
81 92 83 72 59 58 62 56 57 52 48 64 64 88 91 98 100 100 100 100 99 96 89 87 83 81 81 79 79 79 77 61 43 77 80 80 85 88 89 85 83 85 82 67 57 65 66 62 60
87 83 72 55 54 68 68 63 61 49 47 50 44 44 85 100 100 95 95 93 97 99 99 93 87 83 83 83 80 80 79 76 71 60 52 65 73 77 83 85 85 84 81 74 59 58 66 63 60
81 80 61 50 64 65 67 68 60 54 53 58 56 52 56 97 97 92 91 89 93 98 99 95 89 87 87 88 83 80 80 79 79 78 76 62 54 62 65 70 77 81 81 77 66 55 62 65 63
81 70 56 67 67 64 64 64 60 59 51 55 52 53 55 90 92 90 91 92 97 100 97 89 86 88 89 87 83 81 81 81 80 80 80 76 68 54 51 53 57 57 66 73 70 62 58 66 67
84 73 58 70 73 65 63 72 61 64 58 52 48 47 78 78 90 94 96 97 100 98 90 90 86 88 89 87 85 83 81 80 81 82 81 78 72 68 60 46 45 44 60 63 60 56 56 59 66
75 71 71 74 73 73 67 70 55 62 53 49 50 51 42 82 90 96 100 100 100 93 88 86 83 81 88 89 86 84 82 80 82 82 81 80 79 68 73 61 50 56 56 63 68 68 66 66 65
66 77 85 81 78 77 70 70 70 55 58 55 53 52 46 36 64 87 92 100 98 88 83 82 77 80 82 81 82 81 78 80 80 80 81 78 77 73 72 77 58 59 65 68 70 72 74 74 72
83 84 88 84 80 92 87 79 55 59 59 58 58 53 51 42 34 40 77 84 93 92 84 81 80 78 78 77 76 75 75 78 78 79 80 77 71 72 76 77 77 75 69 69 71 72 72 74 76
82 92 89 96 75 89 87 76 56 64 60 65 60 54 51 43 37 31 29 62 79 82 82 83 82 80 78 76 77 78 78 79 78 80 81 77 72 71 73 74 75 79 82 83 81 76 74 74 74
91 91 91 86 90 84 84 72 69 70 65 59 60 55 52 48 41 35 28 26 49 77 77 79 81 82 83 82 82 83 83 82 81 80 79 79 74 72 74 75 74 76 81 83 81 83 80 75 81
73 78 80 77 75 82 81 65 72 67 68 61 57 56 50 47 41 35 30 27 29 41 53 64 77 80 83 85 87 89 85 81 78 76 76 75 74 75 82 84 83 81 83 78 80 85 84 86 81
69 82 74 59 70 66 78 73 59 63 66 58 43 52 49 45 38 35 31 28 31 34 36 47 62 73 83 86 87 88 87 88 87 87 88 92 94 95 96 95 95 94 93 91 88 88 96 92 87
71 77 74 67 68 55 68 71 65 55 58 58 54 50 45 43 38 35 41 38 37 39 40 42 44 46 48 58 71 78 80 77 76 80 89 95 98 100 100 100 100 100 100 99 100 100 100 100 94
74 64 62 69 73 84 61 81 66 55 58 56 49 44 43 40 40 39 45 49 50 48 47 45 43 42 41 39 37 35 34 35 36 39 44 46 45 45 49 53 60 64 76 93 98 100 99 100 99
65 61 61 64 68 65 62 74 63 57 58 55 49 42 39 38 39 38 45 48 55 56 55 52 49 46 45 44 44 44 44 45 46 47 50 52 51 52 52 53 54 54 58 64 90 100 99 100 100
63 64 68 74 68 86 68 69 66 54 48 45 42 41 40 36 38 40 48 54 64 62 58 55 52 50 50 50 49 50 52 54 56 60 63 66 69 70 67 65 65 66 68 72 84 97 98 99 100
60 71 91 88 91 87 69 73 54 44 41 38 36 35 34 36 41 47 64 74 69 64 61 58 55 56 58 57 58 60 62 65 67 70 72 72 71 71 70 69 68 67 69 72 87 100 98 100 98
64 63 83 89 92 82 71 81 54 44 42 41 40 39 40 42 44 52 63 74 73 67 65 62 60 62 64 63 64 69 72 74 75 76 76 75 74 74 72 70 67 65 64 69 81 98 96 100 100
78 79 58 78 76 77 67 60 45 38 34 34 39 42 48 51 62 64 75 74 71 67 63 59 60 63 66 66 68 69 71 73 74 75 75 75 74 73 72 70 69 68 68 70 84 93 89 96 100
71 66 78 86 80 76 64 62 48 36 36 34 33 44 52 66 76 76 76 77 70 66 65 63 61 62 65 66 68 68 69 69 70 71 71 73 74 76 76 76 75 75 74 75 79 89 93 91 93
89 87 86 73 74 74 70 54 46 43 32 39 40 46 57 71 75 75 77 76 72 69 67 66 64 64 66 68 68 70 71 72 74 76 77 79 81 81 81 81 81 81 81 83 86 87 89 94 99
79 83 78 88 86 87 78 67 40 36 39 45 47 54 62 70 76 77 78 80 78 73 70 67 67 68 70 71 73 74 76 78 80 82 84 86 86 87 86 85 85 86 87 89 89 89 93 95 98

GFSSGP_925_rhum_072.txt.gz
RH
77 60 53 38 29 25 23 23 28 24 18 20 18 17 28 26 21 32 67 67 59 67 77 92 84 83 84 86 85 84 85 83 87 96 96 96 96 96 96 95 87 89 90 93 94 95 96 92 73
69 52 40 35 28 27 23 24 26 27 24 29 30 31 30 35 48 68 64 76 64 70 81 81 85 83 86 82 78 83 88 74 74 86 89 95 96 97 97 96 85 92 92 96 97 96 87 78 74
65 47 31 29 26 25 20 27 29 30 26 28 33 41 38 46 59 57 62 70 66 71 72 86 81 84 83 77 78 84 76 75 72 59 87 89 97 99 98 79 62 88 96 96 95 90 78 75 70
51 36 32 29 28 25 26 34 34 28 21 24 29 42 51 63 58 60 74 68 67 69 69 84 84 83 80 78 84 78 76 73 74 66 80 88 96 99 87 72 54 71 90 88 82 78 75 70 72
50 36 36 33 32 31 32 35 36 29 25 23 36 44 55 65 71 76 72 66 67 66 72 90 85 82 80 82 76 72 68 63 68 69 77 84 94 98 84 74 61 62 76 82 76 79 75 75 74
55 40 40 36 33 38 36 36 32 30 24 34 44 47 55 83 89 89 70 68 69 68 79 86 87 82 84 78 74 69 52 75 86 77 63 73 94 82 86 76 71 49 59 53 53 60 63 65 67
57 48 38 38 40 44 38 39 34 32 24 37 51 47 64 84 92 93 70 68 74 71 74 90 94 90 83 76 73 67 54 84 88 86 80 81 83 78 87 80 79 71 66 71 65 62 66 67 67
56 45 45 45 47 43 48 43 43 33 33 40 56 48 62 71 99 99 87 90 80 77 78 84 85 85 86 87 75 67 49 80 83 83 83 82 79 81 88 81 81 81 64 61 70 70 69 67 67
69 65 59 45 44 43 49 44 45 39 37 38 40 64 71 82 99 99 99 92 79 78 80 78 78 77 80 79 85 77 55 60 80 78 80 81 77 84 88 88 80 82 80 64 63 69 68 63 60
63 69 50 37 35 37 48 45 47 38 39 39 37 44 80 98 99 94 86 91 87 86 81 79 79 78 80 80 84 80 79 64 60 69 76 71 76 78 85 89 81 83 83 77 63 65 67 64 66
66 73 41 37 39 47 50 49 48 36 44 41 42 42 58 98 97 89 84 84 85 86 96 79 80 82 82 80 80 77 77 74 73 72 74 68 69 74 75 76 82 84 84 83 81 81 72 73 71
66 55 46 43 41 43 49 46 47 45 42 40 39 42 54 84 90 87 84 80 79 87 95 89 83 85 82 82 80 77 77 78 75 78 78 75 71 71 63 62 66 70 66 74 78 68 66 70 72
58 48 45 42 46 42 50 57 46 47 42 39 36 35 58 70 81 83 86 79 78 80 92 88 85 84 85 85 80 80 78 80 77 82 81 78 76 70 69 63 60 60 62 69 70 69 64 63 63
46 49 47 48 49 51 51 52 51 43 40 36 35 36 36 52 71 82 89 89 91 81 78 82 86 83 83 84 83 80 78 78 82 82 84 85 80 77 74 72 60 61 65 70 72 72 72 71 70
53 60 55 55 54 58 49 58 57 36 42 39 34 33 35 34 35 65 71 81 88 85 80 78 81 81 80 83 85 80 81 81 81 83 84 86 85 84 78 76 73 63 69 71 72 74 76 76 76
61 55 74 55 56 68 58 66 48 38 44 39 33 33 37 34 32 29 53 73 82 85 83 80 84 84 81 79 82 80 79 79 80 81 83 86 84 84 83 80 79 78 74 76 75 74 74 74 73
63 58 62 70 53 74 61 54 45 40 43 42 36 34 36 37 32 31 28 39 75 82 86 87 86 81 81 80 79 80 83 80 78 81 82 83 86 85 84 79 78 78 81 80 80 78 77 74 72
53 50 53 58 67 66 65 57 64 54 50 42 33 33 36 38 35 32 32 27 34 71 81 86 90 84 80 81 83 83 88 84 80 79 80 83 84 85 85 84 82 80 80 81 80 82 78 79 77
33 44 58 53 69 67 62 60 53 46 46 45 36 32 35 36 33 34 33 31 29 38 60 73 81 83 83 84 84 88 85 84 92 89 86 85 84 83 85 85 86 90 90 83 83 83 83 82 81
47 48 54 57 63 62 61 63 52 43 41 37 40 34 32 33 34 33 31 29 32 30 39 52 67 82 85 85 85 86 88 87 86 95 97 98 98 99 99 99 98 96 96 95 94 93 92 90 89
46 44 54 52 65 56 59 63 56 44 38 40 33 29 28 30 32 32 30 30 36 36 41 45 53 60 67 79 83 90 90 89 84 93 99 95 98 100 99 98 100 100 100 99 98 99 100 100 96
59 42 48 58 61 55 50 37 43 47 47 41 37 33 31 35 33 32 32 33 38 44 57 52 53 52 47 46 50 52 53 50 50 54 55 56 55 54 58 64 70 80 93 98 99 100 98 100 99
53 49 47 50 45 50 55 53 29 40 43 40 35 33 31 29 34 33 32 37 47 58 62 60 58 56 46 48 50 48 47 49 50 53 59 60 54 52 51 52 54 62 67 87 90 95 100 98 100
50 51 52 52 48 68 43 48 34 37 36 33 30 31 32 30 30 32 31 40 51 64 64 66 61 61 57 55 52 58 59 58 59 66 67 73 79 73 65 64 64 65 67 78 83 96 99 98 100
48 52 83 79 83 58 52 54 35 29 30 30 29 27 28 28 28 30 36 45 53 64 66 64 60 63 66 62 62 64 67 70 71 74 74 75 75 80 78 67 67 66 65 66 86 96 98 97 96
56 44 56 62 62 48 56 57 33 28 30 30 30 28 26 26 26 32 32 43 55 62 64 60 61 66 66 67 63 65 71 73 73 74 75 74 74 76 72 70 68 65 64 67 89 97 100 91 98
60 65 43 57 55 55 43 42 32 24 25 22 23 27 29 27 28 30 37 44 54 60 62 59 62 67 69 70 69 71 72 74 76 73 74 76 73 73 72 70 69 68 68 70 81 96 100 98 99
57 43 62 72 75 58 42 38 27 29 27 24 24 25 26 31 37 39 44 54 58 59 61 62 62 65 69 70 69 70 70 69 71 73 76 73 72 71 73 74 74 74 74 75 82 96 99 100 99
63 61 62 49 56 50 44 31 26 27 27 28 29 33 35 38 45 47 52 57 61 63 64 62 63 67 69 70 73 72 72 70 70 76 76 79 80 81 83 82 82 82 83 85 91 95 96 97 98
68 55 50 62 70 63 57 39 28 26 26 32 34 37 40 45 50 51 53 61 65 65 63 63 64 65 68 72 73 76 82 83 85 88 88 88 92 91 90 88 89 89 89 90 91 93 94 95 97

GFSSGP_925_rhum_075.txt.gz
RH
70 50 43 38 34 24 24 22 17 20 18 15 15 16 24 24 20 48 42 42 52 59 77 92 80 82 85 88 86 85 85 90 93 96 96 96 95 96 92 85 88 89 92 92 95 95 96 94 91
65 43 38 27 32 26 24 17 23 19 17 20 21 21 27 35 38 48 46 44 50 59 77 80 83 83 86 84 79 82 73 72 87 96 97 95 96 96 93 85 90 91 95 96 97 96 93 83 72
68 42 30 27 25 24 22 18 17 23 23 22 21 29 27 46 43 41 44 46 52 63 69 82 86 85 84 75 78 85 75 74 63 80 84 94 98 98 95 86 95 96 97 97 97 90 76 70 72
46 35 30 30 27 18 16 19 24 22 21 23 21 26 43 48 41 41 52 46 53 60 64 80 84 85 77 74 88 82 78 74 62 64 75 94 97 95 70 48 58 76 86 95 94 81 72 75 76
54 32 32 33 26 17 20 26 29 22 20 25 27 36 49 59 57 54 50 48 51 52 79 92 85 82 76 82 80 77 73 72 63 60 80 95 98 88 74 54 48 54 62 67 71 66 63 64 65
58 33 39 34 26 21 23 27 25 23 21 23 32 38 61 73 64 54 50 49 50 55 74 90 87 83 82 82 74 67 56 75 81 59 80 96 96 87 80 69 51 70 75 74 73 68 67 66 69
65 42 40 29 26 34 30 30 26 25 21 36 31 40 63 74 87 58 50 50 50 68 78 82 92 89 83 76 71 57 74 88 83 69 69 91 82 76 84 73 69 52 62 62 60 65 66 67 64
52 52 40 31 30 38 34 34 36 30 28 39 43 38 64 76 88 87 55 51 50 67 70 82 85 84 85 84 72 50 84 90 90 86 85 92 78 80 85 74 78 73 54 60 64 61 57 59 62
54 83 58 41 44 36 37 32 36 32 31 36 38 52 63 86 97 94 87 72 54 73 79 80 80 73 73 74 80 58 77 84 82 82 82 77 74 84 82 90 77 80 76 59 64 65 61 58 57
85 88 44 30 27 35 33 33 36 32 33 35 35 44 77 91 97 94 89 83 71 77 80 82 78 71 75 68 81 73 58 76 71 69 73 65 64 68 74 84 75 77 77 74 60 53 57 56 61
73 80 46 35 42 28 40 41 39 33 37 36 39 42 81 90 94 93 81 70 74 75 74 80 78 74 76 66 72 64 66 54 52 56 59 54 58 68 70 72 82 84 79 84 79 79 76 62 63
70 62 61 65 37 37 41 32 37 41 40 34 34 39 72 90 90 86 73 73 70 74 79 75 77 80 78 73 68 58 59 62 60 64 63 61 58 59 53 53 55 62 59 61 67 60 57 59 60
67 47 50 72 46 35 34 38 47 44 36 33 31 35 59 79 81 86 89 78 70 75 85 75 70 70 77 77 65 58 58 64 62 66 66 63 62 58 58 53 50 50 50 55 58 61 56 55 53
34 39 53 54 60 37 39 39 44 41 33 33 31 32 42 60 68 81 84 84 79 71 73 74 73 74 72 72 72 68 59 60 63 66 71 70 66 66 62 62 55 51 54 58 62 62 63 63 62
35 41 46 62 80 61 40 49 49 29 36 34 32 29 34 36 55 61 67 78 76 74 70 72 72 70 76 74 75 62 60 61 65 68 70 73 74 74 69 66 65 57 60 62 61 64 66 66 66
48 42 67 44 49 54 48 53 42 30 34 38 34 29 30 33 33 34 54 62 69 71 66 69 67 69 64 66 74 68 62 64 66 66 68 72 72 75 75 73 72 71 67 68 69 68 68 67 66
58 54 53 44 43 56 55 45 36 36 36 38 36 31 28 31 32 30 30 48 64 69 69 73 73 71 68 68 68 65 65 66 64 66 68 71 74 75 75 71 70 70 72 73 72 71 70 69 68
52 43 42 38 49 49 56 53 49 42 45 41 36 32 29 31 31 29 30 28 42 64 69 75 80 75 71 70 69 70 72 73 68 66 67 70 71 74 77 76 74 72 71 74 73 73 73 74 72
25 29 38 31 39 56 55 54 51 45 44 45 40 34 30 28 28 30 30 28 26 46 66 73 77 82 77 75 74 74 73 75 77 76 77 75 77 78 79 80 77 77 80 78 76 75 77 78 78
33 31 41 39 46 55 47 44 41 37 39 36 34 30 29 27 27 30 30 29 26 26 46 58 67 73 77 76 79 77 76 74 72 78 86 86 86 87 89 88 88 86 87 85 86 86 86 85 83
36 30 47 50 51 51 40 43 41 39 38 33 28 28 27 26 27 27 32 30 29 29 32 42 52 68 76 80 83 86 85 87 86 90 91 92 88 95 97 98 97 95 95 95 93 96 96 96 92
49 28 33 39 58 57 42 36 28 36 41 35 31 31 27 26 25 25 31 30 30 32 42 43 47 52 57 64 70 74 72 68 62 63 69 67 66 68 68 74 79 84 88 93 92 96 92 96 94
37 34 38 47 51 34 45 48 27 30 42 40 30 29 29 26 26 30 31 32 34 42 56 50 49 50 52 51 47 46 44 43 47 50 54 57 62 53 51 53 58 70 74 81 85 86 89 91 90
42 41 44 42 39 59 42 38 27 25 27 25 24 24 26 26 26 27 32 34 41 54 60 56 53 52 55 54 52 51 50 51 53 58 58 62 69 77 68 63 66 69 78 83 88 92 90 97 94
43 48 70 68 75 59 37 35 29 24 25 25 25 23 21 22 25 26 30 33 41 60 62 61 54 56 58 59 58 58 60 59 58 62 62 64 63 72 74 72 75 76 75 73 80 89 91 93 95
47 39 49 54 52 41 42 50 30 23 20 24 25 24 23 23 22 24 27 33 40 56 63 58 54 56 58 59 62 64 66 64 64 68 66 66 67 69 74 75 74 74 73 76 81 87 88 95 100
53 66 40 48 41 42 39 31 25 20 23 21 20 22 25 24 23 23 25 31 37 51 56 54 54 57 59 61 61 63 65 68 70 71 71 71 71 71 70 75 75 77 75 76 80 87 89 93 100
49 40 52 62 68 46 37 30 26 25 24 22 24 24 24 22 23 27 27 31 38 51 55 53 54 58 60 61 60 64 66 68 70 70 71 72 71 72 73 75 77 78 79 81 84 90 95 96 98
57 54 51 45 50 51 33 27 19 26 25 28 29 30 29 29 30 32 35 41 44 50 54 54 55 58 62 62 65 65 67 68 68 71 73 75 76 77 78 78 79 79 81 82 83 87 90 91 95
61 48 40 57 56 48 55 38 21 21 24 27 31 30 29 34 36 37 40 46 51 53 56 55 57 59 61 62 63 66 71 71 73 75 79 80 80 83 82 82 81 82 84 84 84 87 89 91 92

GFSSGP_925_rhum_078.txt.gz
RH
57 58 51 44 63 46 40 28 23 30 26 30 24 22 32 50 44 70 43 51 77 87 83 74 81 82 86 88 82 83 84 81 87 96 95 95 91 86 87 88 89 95 89 91 94 95 94 92 86
63 60 40 56 50 44 33 23 29 24 23 22 22 29 43 56 46 45 46 55 71 85 80 80 83 84 86 83 77 68 70 79 78 93 96 96 95 87 88 89 90 92 93 95 96 93 88 80 73
54 59 49 49 46 43 30 22 24 24 23 22 24 31 62 67 44 43 48 54 68 82 85 87 85 86 85 76 77 69 72 68 66 83 96 96 97 88 86 93 94 99 97 94 95 81 90 84 66
52 48 46 44 38 31 24 22 25 26 21 21 21 46 64 61 40 45 47 54 69 71 80 80 84 86 79 77 80 77 77 62 59 75 92 95 87 69 63 74 77 81 92 86 68 61 65 64 65
56 61 52 48 38 25 20 28 27 24 23 25 32 60 74 68 56 48 45 55 63 79 78 82 86 84 76 88 82 79 77 70 56 69 92 97 84 73 49 58 68 70 70 70 65 65 67 66 64
80 57 50 48 39 25 29 28 27 24 22 33 34 73 82 71 60 48 45 52 65 82 90 84 86 80 82 88 80 75 67 69 57 68 90 94 86 81 61 52 58 59 60 63 63 64 65 66 64
85 68 61 41 35 28 36 29 28 24 23 37 31 47 90 79 69 55 46 50 74 82 89 91 85 79 86 79 72 57 73 91 62 70 85 87 77 79 70 64 49 58 55 51 55 58 60 60 60
72 76 60 49 35 38 34 34 39 35 43 39 42 49 93 77 88 72 52 57 70 76 85 91 89 85 81 75 67 70 85 83 81 76 92 87 79 79 78 70 66 47 50 53 52 52 52 53 54
65 85 79 57 49 42 35 38 35 32 40 38 47 77 84 84 81 74 61 56 69 78 76 84 83 85 81 79 55 77 87 88 84 84 89 77 74 82 77 90 71 70 58 46 48 51 51 50 56
88 93 67 44 47 42 40 36 35 35 39 42 50 73 80 88 75 79 74 70 75 76 79 83 76 72 71 78 66 56 81 83 81 80 74 75 77 83 88 80 72 70 70 66 53 42 42 56 63
78 84 58 56 56 45 36 46 37 35 48 44 44 74 85 92 90 66 74 64 75 69 78 79 74 70 67 71 74 65 51 67 73 71 61 65 64 70 76 69 63 63 73 68 76 70 63 65 65
86 74 67 64 74 60 48 39 44 45 46 36 36 67 86 91 92 91 80 75 68 71 75 77 75 73 71 70 69 67 63 54 54 57 59 56 55 58 58 62 63 67 68 63 72 68 66 60 59
88 69 61 60 69 72 60 40 42 47 39 34 32 58 85 90 89 86 87 71 71 75 77 76 75 77 72 68 65 60 60 61 62 64 64 62 60 60 56 52 52 53 52 53 60 62 59 56 55
55 50 62 61 59 66 82 44 46 40 38 35 32 44 70 80 85 90 94 90 79 76 71 77 77 78 76 72 65 60 58 60 62 66 68 66 64 62 60 60 55 50 52 55 61 63 63 64 63
33 61 76 76 63 67 81 88 55 42 38 37 35 38 43 53 70 78 79 85 80 74 74 69 76 75 75 76 71 59 61 59 62 67 71 71 70 71 65 65 62 53 55 59 60 63 64 65 66
49 51 82 79 63 64 74 66 46 38 44 41 36 35 41 39 40 55 72 67 78 75 77 72 70 75 80 76 74 68 62 60 64 67 69 72 72 76 76 72 71 70 64 65 68 68 68 68 68
74 80 60 66 65 71 83 83 43 39 43 44 42 38 35 41 34 32 44 60 69 71 69 71 73 73 66 74 74 67 64 61 62 66 67 69 73 73 75 74 72 72 73 73 72 72 72 71 66
71 60 55 50 70 61 80 73 50 41 41 39 40 39 37 34 38 32 30 32 54 68 68 70 69 70 66 69 73 72 68 66 63 65 64 66 71 74 75 77 75 72 71 72 74 74 73 72 71
44 46 44 39 42 57 58 62 57 49 47 50 45 43 39 37 33 31 30 28 29 56 68 73 77 76 72 68 66 66 66 69 71 72 71 69 71 74 78 79 77 75 76 76 79 78 78 78 77
74 47 42 40 62 65 58 56 48 51 53 52 49 44 42 37 33 34 31 29 28 30 60 74 76 78 75 76 76 74 74 75 76 77 79 80 78 78 80 82 83 81 77 76 81 84 84 82 81
83 53 48 76 58 63 59 58 47 44 42 39 41 40 38 36 34 37 35 30 27 27 34 56 65 75 77 79 79 81 83 85 83 86 88 87 88 90 92 92 90 90 91 88 84 85 94 98 91
68 43 39 52 69 76 56 60 48 38 46 42 41 37 35 33 29 29 37 33 30 29 31 36 49 65 78 81 84 83 83 79 77 81 89 89 78 74 72 74 82 84 86 87 88 90 91 95 97
58 39 50 56 62 50 64 66 40 36 45 46 45 39 37 35 33 30 37 35 30 32 32 38 44 50 57 62 74 73 72 50 54 56 55 50 53 50 47 48 51 57 65 69 74 78 87 90 89
46 56 62 54 59 83 50 49 43 39 41 41 38 34 33 36 31 32 36 34 35 40 44 42 47 50 49 50 48 47 45 44 44 48 54 60 66 67 62 60 63 66 71 71 74 81 85 80 85
53 74 90 90 90 77 40 48 44 30 28 25 30 26 27 32 35 36 44 43 44 50 54 50 49 52 53 53 51 51 52 52 53 59 61 63 66 72 74 69 66 68 69 68 69 73 83 93 90
56 52 80 66 79 67 40 56 41 28 28 29 27 26 28 27 28 35 40 43 48 54 59 59 54 55 57 57 57 56 57 60 61 63 64 66 66 68 70 66 66 67 67 67 69 74 81 88 88
57 71 43 64 41 68 55 38 26 26 27 24 26 26 26 28 28 25 27 44 52 60 59 57 55 57 58 60 62 60 60 59 60 61 63 66 65 65 64 66 68 68 68 67 68 72 87 89 84
66 45 64 84 71 49 50 40 40 28 28 28 33 35 32 25 24 30 32 36 42 54 59 58 56 56 59 60 60 62 64 60 59 62 65 64 65 64 65 68 69 70 72 74 76 81 90 88 87
63 83 56 53 71 79 58 42 30 33 34 38 39 38 38 37 35 36 37 33 38 52 56 54 56 60 61 60 61 61 58 58 61 62 62 64 65 66 69 71 72 75 75 76 79 85 85 89 90
64 58 54 87 70 69 73 58 24 32 32 36 38 31 30 40 44 42 44 44 47 53 56 55 57 60 61 62 59 57 60 62 64 66 68 69 73 74 74 75 76 78 80 81 82 85 88 90 91

GFSSGP_925_rhum_081.txt.gz
RH
50 52 70 59 60 64 60 35 25 33 30 30 28 25 49 59 65 60 68 75 77 81 82 80 77 87 89 84 82 84 82 80 83 90 83 88 86 90 91 93 86 84 87 90 93 92 92 71 70
52 63 60 62 67 62 47 30 32 29 26 28 30 37 65 64 49 61 91 81 75 78 84 84 85 87 88 79 80 81 79 79 88 85 96 89 86 87 88 94 88 89 91 96 95 85 68 76 76
60 65 64 70 63 60 43 25 31 29 24 27 42 50 74 75 48 53 85 86 76 77 83 85 86 88 83 76 65 72 75 77 91 86 92 92 86 91 90 96 92 91 98 94 91 82 60 75 79
65 77 78 66 59 43 32 33 27 30 23 23 42 59 80 81 77 60 82 82 76 82 78 85 87 86 78 75 72 70 67 69 87 95 88 74 84 94 94 96 98 96 92 88 80 73 65 64 75
66 92 83 73 62 33 28 29 29 26 25 27 48 82 88 78 63 64 78 77 87 89 84 88 87 82 80 78 78 76 58 63 83 94 89 80 52 42 58 67 72 72 73 72 68 66 62 65 70
85 90 75 76 55 37 31 31 26 27 25 29 62 80 92 82 74 67 69 77 81 87 84 89 86 79 90 82 82 76 67 61 79 92 92 83 67 42 46 52 58 63 59 57 60 60 59 54 51
88 92 79 54 49 39 38 31 33 28 31 44 50 82 87 91 84 66 72 72 81 82 86 91 84 82 90 84 78 70 72 58 76 90 91 83 79 63 45 56 52 48 50 50 52 53 52 52 51
86 87 72 62 48 44 38 40 41 38 47 40 46 85 75 73 81 72 69 92 85 85 84 87 83 86 81 74 58 72 88 66 78 92 96 80 76 79 66 53 46 50 46 45 44 45 46 47 47
75 87 84 68 59 49 38 42 36 32 44 59 69 83 72 66 41 78 87 96 79 87 87 83 84 85 76 70 60 79 82 69 72 88 89 78 75 77 68 67 63 49 40 41 42 44 44 44 55
81 90 76 56 60 47 41 38 37 42 50 79 88 81 92 78 61 69 94 90 95 93 89 78 78 81 77 65 57 80 83 76 71 87 82 76 79 78 73 74 64 63 60 53 43 36 38 59 62
80 88 70 72 73 62 47 44 38 46 54 47 96 91 94 96 79 74 79 91 71 80 81 79 74 79 77 69 52 72 80 78 76 64 74 83 84 83 80 70 63 59 61 57 71 65 61 65 65
87 73 73 76 81 76 54 47 50 47 48 40 76 86 94 96 93 75 91 87 79 69 70 81 73 70 71 70 70 51 56 65 72 68 62 73 81 68 63 64 65 65 68 67 73 69 68 63 60
78 77 76 71 80 73 68 66 51 50 41 41 77 80 95 96 92 89 76 82 72 69 71 74 71 68 68 69 70 67 60 55 60 65 62 59 58 57 59 61 63 58 56 60 65 68 62 59 57
69 67 72 73 69 89 76 74 53 49 41 40 77 86 90 91 92 90 89 85 74 72 75 76 74 68 67 62 66 72 66 61 59 62 64 64 62 61 58 54 53 52 52 51 58 62 64 64 64
64 72 72 75 75 82 76 79 67 45 42 41 55 80 82 82 84 88 90 71 74 74 72 70 74 73 72 62 58 66 61 60 64 65 67 66 66 65 62 62 63 54 51 56 60 64 64 65 66
68 68 90 67 84 84 86 82 71 51 47 46 46 52 54 57 70 78 82 75 67 65 71 79 76 79 75 69 62 58 59 61 63 68 70 71 68 70 71 66 68 66 60 61 65 66 67 69 70
76 99 95 92 78 89 84 80 61 66 50 50 46 44 47 46 44 61 74 80 70 67 70 66 74 68 73 74 69 60 66 66 63 66 65 67 72 73 75 76 74 74 74 71 72 72 73 74 72
82 78 74 80 85 79 87 78 64 67 59 54 52 46 43 47 42 38 43 58 72 70 68 67 72 74 71 69 71 66 68 67 62 63 62 65 66 70 74 76 75 74 73 74 75 76 76 76 74
69 62 63 57 73 75 74 66 59 56 59 55 53 50 46 44 37 33 31 36 42 77 73 69 70 71 74 72 70 72 72 68 66 71 71 71 74 76 77 80 79 76 76 78 77 79 80 71 75
81 61 54 53 70 61 62 62 59 58 61 57 56 56 51 44 41 38 31 29 30 54 74 69 70 70 69 70 70 68 66 67 64 68 74 76 76 78 79 81 76 77 78 73 73 74 79 74 71
85 68 59 60 74 80 74 79 65 54 55 55 55 56 51 45 41 44 39 30 28 30 60 72 67 66 66 67 69 73 73 74 73 74 74 79 79 77 78 83 86 83 82 77 77 77 83 87 75
92 62 55 64 77 88 66 90 62 52 59 57 58 57 55 52 44 42 41 36 29 27 29 54 64 68 73 73 72 68 66 73 81 86 85 86 84 87 87 89 93 93 90 90 88 89 87 90 92
79 65 56 60 72 66 75 69 53 44 56 57 52 52 48 44 44 41 41 37 29 28 30 39 56 70 82 81 82 83 85 81 77 83 87 86 77 54 46 46 47 51 57 64 67 72 80 85 89
67 65 77 75 72 92 68 66 56 51 45 48 51 52 46 42 42 38 37 38 34 32 32 34 40 50 62 77 79 82 76 65 64 64 59 52 53 57 58 55 55 59 62 65 66 70 74 79 82
70 76 99 98 95 78 52 58 51 36 32 40 46 46 36 41 42 42 52 48 48 43 42 43 44 46 45 47 55 55 60 53 49 46 49 60 66 70 67 64 61 61 62 63 62 63 66 77 94
77 77 83 84 90 68 46 64 43 32 32 34 34 33 32 31 32 35 52 46 45 44 44 47 50 52 52 51 51 51 50 49 50 55 59 63 65 68 68 66 60 61 61 61 62 63 69 83 93
71 83 47 68 52 76 63 47 32 35 34 32 32 31 31 31 31 30 41 46 53 50 48 49 52 52 54 55 55 57 58 58 61 63 62 60 62 63 62 59 60 61 60 60 61 62 72 91 90
59 53 67 85 68 61 68 47 47 36 36 44 45 45 41 37 35 36 42 53 51 54 51 52 53 56 59 60 59 57 57 55 51 54 57 54 59 61 60 59 63 64 65 68 68 72 80 85 89
70 80 62 61 81 82 64 52 37 39 47 50 47 42 41 40 41 44 42 38 48 54 57 58 58 59 61 62 63 62 59 58 58 59 59 61 60 60 64 66 66 70 71 72 74 80 82 84 89
69 70 63 87 71 79 80 57 31 42 45 45 43 39 39 42 46 46 47 48 58 62 62 60 60 60 61 61 60 59 60 62 63 56 56 65 63 67 71 72 74 75 76 78 80 83 85 88 92

GFSSGP_925_rhum_084.txt.gz
RH
72 58 66 65 63 66 64 41 31 43 54 31 30 37 63 65 55 60 94 92 83 94 84 85 82 86 90 92 91 81 73 86 88 91 90 94 96 93 85 86 88 86 90 92 94 96 95 82 78
75 60 70 66 73 70 48 37 30 34 40 34 35 52 68 67 66 94 95 93 84 88 88 87 82 90 89 92 93 80 80 84 85 89 87 90 91 94 92 88 86 86 93 95 84 79 76 78 78
72 67 77 75 75 62 42 29 27 27 32 46 44 62 71 86 72 76 94 100 84 90 88 82 88 88 90 95 90 79 89 82 89 88 88 89 88 89 87 89 87 95 95 84 63 76 77 78 76
72 85 92 72 73 48 35 30 25 33 35 33 46 68 78 84 88 84 99 99 93 92 88 87 89 88 87 76 90 80 91 91 91 82 87 92 90 93 96 90 92 92 90 93 57 72 77 76 73
75 95 84 87 76 41 34 28 32 34 33 37 44 84 83 75 85 98 94 93 94 92 89 87 89 86 72 74 71 79 93 90 92 85 88 94 95 95 99 95 74 64 64 62 59 59 72 72 72
95 90 83 87 71 46 33 26 31 29 28 51 67 69 80 80 89 95 93 79 82 90 90 90 87 82 78 80 73 65 88 93 96 86 72 82 95 92 90 71 65 62 65 55 53 53 62 66 67
94 89 85 69 59 46 36 32 30 29 30 46 62 79 94 87 87 89 93 70 80 88 92 91 83 87 81 82 77 66 72 89 97 87 80 60 41 44 48 52 56 66 62 59 55 53 50 47 46
93 80 82 67 56 50 38 42 40 38 53 47 58 88 97 78 84 76 88 80 87 87 91 90 85 99 84 80 72 67 60 80 91 95 82 76 61 43 48 48 48 49 52 51 53 51 49 47 46
88 90 85 73 55 44 41 43 37 39 52 67 74 72 65 63 83 57 91 86 100 98 89 84 88 90 79 66 65 78 61 79 98 99 81 75 75 65 52 45 45 47 47 47 47 45 44 44 47
91 85 78 59 60 49 48 39 39 53 73 94 94 89 83 79 76 78 95 95 100 100 96 84 85 82 73 62 73 80 67 75 88 91 82 78 75 70 66 64 61 56 49 43 43 43 46 55 59
83 84 68 67 84 72 59 52 40 54 54 67 91 87 93 87 82 76 84 84 99 94 90 86 84 78 72 56 79 83 72 62 80 89 80 79 81 79 79 70 64 62 61 57 66 61 50 64 62
96 73 65 77 87 77 84 73 54 47 48 60 84 82 94 87 84 82 84 98 89 99 81 86 78 78 75 57 63 81 81 74 75 81 81 83 83 84 80 73 66 63 67 66 73 70 70 65 62
82 75 72 86 83 79 71 75 56 51 44 65 87 89 94 95 94 78 84 91 92 85 92 82 77 73 74 68 57 59 69 63 64 70 71 78 78 76 68 64 69 64 63 63 64 69 67 62 60
65 85 69 88 82 79 82 78 58 47 47 85 83 92 94 92 93 91 78 92 74 63 70 86 80 72 65 67 69 61 59 60 62 64 69 66 67 64 63 59 58 59 57 55 55 61 66 66 66
72 87 90 82 79 88 80 76 67 62 47 81 82 86 90 93 94 93 87 82 84 91 71 82 76 72 68 63 63 72 72 60 58 62 66 64 64 61 62 58 56 56 53 54 56 63 66 67 68
74 83 96 92 87 94 75 81 68 72 66 54 68 82 85 87 88 90 78 81 72 73 79 73 78 78 71 68 63 67 70 66 61 63 66 67 67 67 65 63 63 65 58 56 61 64 65 67 70
88 99 86 89 74 90 81 83 64 71 69 56 56 60 56 55 57 76 77 70 68 65 61 76 76 66 79 75 66 63 63 66 66 66 67 69 71 69 70 70 66 70 73 68 65 70 73 74 72
90 90 83 82 88 81 94 90 79 73 75 64 57 54 52 52 47 62 75 71 72 76 63 65 60 47 55 81 77 69 70 68 65 65 66 66 66 71 70 71 72 75 76 76 77 77 77 78 80
71 84 82 75 77 80 86 82 78 69 64 69 64 59 51 48 43 41 59 63 74 75 71 70 75 72 82 81 70 72 68 72 68 68 70 68 65 70 72 75 76 75 68 69 69 78 75 73 76
72 62 82 68 77 75 76 81 69 74 60 64 60 60 53 48 40 42 36 42 56 65 66 66 73 73 78 68 67 67 66 71 65 66 68 70 70 74 76 77 82 81 76 70 76 75 70 69 69
84 82 69 86 84 73 76 78 68 59 57 59 58 53 54 50 50 45 40 34 36 51 68 63 62 67 70 73 71 68 70 70 66 69 72 70 82 82 82 83 84 80 80 79 76 77 76 82 81
80 68 62 71 87 97 85 93 69 63 60 60 62 66 62 59 50 47 45 38 32 30 52 66 64 69 69 70 71 72 70 71 67 65 72 72 84 88 86 87 86 83 84 87 89 89 89 93 91
78 70 64 72 86 78 99 84 54 50 60 62 63 64 61 59 57 53 45 37 32 28 30 57 62 64 67 71 73 70 62 66 59 71 80 88 88 86 80 80 76 69 63 57 56 62 70 80 83
79 78 83 86 97 98 77 72 61 51 50 51 54 59 56 53 51 47 41 38 37 31 29 38 61 66 67 64 68 68 70 68 74 87 90 86 82 70 50 42 42 43 47 53 58 61 66 72 78
84 81 98 98 98 83 63 77 68 38 38 44 50 55 55 52 50 47 48 50 44 38 32 42 59 66 72 81 79 72 72 75 73 79 83 74 60 52 51 52 52 53 55 57 58 60 62 66 74
84 75 89 89 92 70 60 77 48 33 33 37 40 48 35 32 41 48 48 52 51 44 38 40 47 51 54 60 69 76 83 73 69 66 62 55 52 57 61 60 58 58 59 60 60 60 62 67 75
82 83 53 66 60 78 59 48 35 37 38 38 38 39 37 36 41 38 46 50 54 49 41 39 40 44 48 49 52 52 54 54 51 50 52 56 60 63 63 63 60 59 58 59 59 59 62 72 88
63 58 67 83 71 65 67 56 45 42 38 41 43 46 42 40 41 42 49 53 50 52 53 52 50 49 51 54 56 56 56 54 54 53 59 62 60 61 62 60 60 61 59 62 63 66 71 78 84
69 70 67 65 82 74 69 57 38 40 48 50 48 44 42 44 48 49 48 44 53 56 60 59 58 57 60 61 62 62 62 62 62 62 57 57 56 52 54 60 64 62 62 65 68 71 76 80 85
70 70 65 84 69 84 80 56 43 44 50 49 47 41 41 42 49 53 51 49 50 56 63 64 61 60 61 63 63 62 61 62 63 63 64 61 62 69 62 63 65 68 71 72 74 77 81 82 90

GFSSGP_925_rhum_087.txt.gz
RH
82 77 66 75 75 67 57 42 40 55 66 51 36 54 67 69 54 59 97 96 88 91 89 86 83 87 91 93 88 89 92 81 96 99 98 96 97 97 88 89 90 91 90 91 93 94 96 96 96
82 69 75 81 79 70 51 36 31 46 62 49 38 56 68 77 88 94 96 98 91 92 90 84 83 92 91 95 96 90 97 90 94 97 99 97 89 82 86 89 88 92 94 96 96 95 93 87 88
80 70 94 91 90 56 49 40 25 35 53 51 44 61 77 86 82 89 87 99 98 91 87 86 87 90 89 93 90 83 90 92 90 93 94 96 96 94 86 82 91 96 90 82 74 79 79 78 80
76 84 94 78 86 59 36 35 25 42 44 56 53 57 84 85 88 91 97 99 94 89 89 85 91 87 85 86 81 87 93 95 90 92 92 91 89 85 86 94 96 87 64 74 75 77 77 78 73
80 96 86 86 81 54 38 29 27 39 42 53 50 58 89 87 91 98 98 98 94 90 85 91 89 86 82 84 80 89 86 95 93 92 93 92 91 88 96 97 96 85 65 68 77 77 76 75 72
91 92 97 94 66 56 40 30 30 35 38 40 59 73 90 87 100 99 100 96 99 95 90 92 89 76 82 82 82 89 90 91 93 92 94 94 98 95 96 96 73 65 57 60 68 74 74 74 70
92 96 88 80 60 53 44 32 32 34 37 51 54 76 93 97 100 99 99 93 95 93 90 90 88 78 85 76 81 86 89 95 83 78 92 93 93 98 96 91 69 71 57 56 58 66 69 67 62
95 96 85 74 67 60 36 42 40 32 44 59 65 92 94 87 96 98 93 94 88 90 92 91 88 84 86 81 67 74 85 100 90 80 58 54 64 81 78 72 83 61 53 54 53 52 51 51 51
78 96 95 77 63 51 42 45 40 45 59 68 71 79 72 92 71 89 89 96 100 98 92 86 84 88 86 82 76 61 77 92 98 87 78 62 53 56 56 54 55 57 55 52 50 50 47 46 45
90 93 88 65 56 48 48 43 45 61 84 94 96 82 79 93 84 91 93 99 100 100 99 87 88 94 85 74 76 67 75 91 97 88 78 74 69 58 52 50 50 50 51 53 52 51 50 52 57
81 84 69 69 85 71 62 55 58 65 65 82 91 96 90 90 80 92 96 98 97 100 100 90 91 87 75 65 81 78 71 89 99 95 81 78 78 73 71 68 66 64 61 56 53 49 44 61 63
87 67 73 75 87 81 81 82 55 49 49 54 81 86 84 85 81 77 77 88 80 79 96 100 97 80 72 62 76 83 70 77 86 91 83 80 81 78 83 79 68 64 63 64 71 70 69 65 64
86 60 83 84 86 81 76 79 72 55 52 91 89 80 80 83 87 83 79 66 83 72 68 90 90 97 71 60 69 84 76 66 78 90 83 82 82 82 81 78 71 67 69 67 71 72 70 66 63
80 66 82 75 84 85 84 82 66 58 63 94 87 93 89 89 87 94 90 96 89 61 52 79 74 89 88 66 56 70 79 71 73 71 76 77 77 77 72 70 68 69 62 59 58 62 66 68 68
63 74 83 84 87 87 81 78 77 75 56 91 89 88 95 96 90 90 90 95 78 59 61 69 65 78 92 73 66 57 55 62 69 68 70 69 67 70 67 66 62 58 59 57 55 60 67 69 70
80 85 98 88 89 87 78 83 74 79 64 70 81 90 95 98 92 87 89 84 80 59 61 50 64 70 84 89 84 68 64 59 62 65 67 68 66 67 64 65 62 62 60 55 58 61 66 68 69
77 98 97 93 80 87 84 90 71 73 76 63 62 64 65 77 94 98 80 75 72 68 63 75 66 67 68 68 85 81 83 76 66 62 63 67 68 68 67 67 66 66 68 63 62 66 71 75 76
97 96 95 98 95 89 90 85 86 73 72 74 64 59 55 50 50 68 95 82 86 75 76 80 90 78 77 80 84 72 89 87 74 64 64 68 70 71 70 68 70 68 74 77 77 75 76 75 77
65 88 92 90 87 85 89 89 82 78 74 73 68 62 56 55 45 44 79 87 86 80 70 77 79 82 80 82 86 64 84 91 84 71 66 68 70 70 69 70 73 75 75 66 68 64 75 73 68
76 79 82 80 81 78 89 87 80 80 77 69 67 64 60 49 42 42 41 59 79 77 65 64 63 64 67 79 66 78 76 86 76 76 74 66 74 75 72 72 77 80 79 75 69 69 72 71 66
82 83 81 82 84 80 86 88 80 83 78 70 64 61 56 55 50 44 43 37 46 71 70 59 63 67 69 80 79 90 81 88 79 72 71 73 72 72 78 75 78 84 84 72 75 78 82 88 83
90 71 74 86 88 100 86 95 78 66 71 59 59 69 64 58 53 49 45 40 36 35 51 66 66 68 72 69 74 82 80 82 79 76 73 71 70 66 65 69 82 86 86 84 83 86 90 91 94
90 76 78 76 85 91 98 99 58 59 72 58 66 65 67 63 58 56 51 40 33 32 31 44 70 63 66 70 62 64 78 68 66 68 72 81 92 98 97 92 92 92 90 88 82 65 60 69 79
82 83 83 90 97 98 90 85 60 59 56 48 51 60 61 61 59 56 49 43 40 34 32 31 46 70 62 58 61 59 59 58 79 77 76 76 74 84 84 80 66 50 44 45 49 54 60 66 74
89 79 99 98 98 88 74 79 68 54 41 42 46 53 58 58 56 53 51 46 40 41 35 33 33 52 70 78 74 62 59 63 71 72 74 76 83 81 70 54 49 48 50 50 54 56 58 61 66
91 69 85 93 95 77 75 81 62 35 41 42 45 48 44 45 48 51 51 46 43 40 44 38 33 48 67 76 83 90 95 89 78 74 73 74 80 74 61 57 52 54 54 56 58 58 59 61 64
86 86 56 69 63 80 72 49 38 38 41 43 43 41 40 43 45 46 53 50 49 47 50 48 42 51 54 53 56 63 71 83 83 86 85 83 72 61 58 57 56 52 52 54 55 56 59 62 66
69 59 69 83 74 61 67 63 47 42 40 42 46 46 46 46 47 48 51 58 55 59 58 57 53 53 53 52 51 55 56 64 67 65 63 61 64 63 62 58 54 55 56 55 59 61 62 66 71
72 67 70 67 83 74 77 60 40 40 40 47 48 48 50 52 52 53 53 50 58 59 58 55 53 51 53 58 60 59 58 58 59 63 66 64 59 53 54 57 58 54 56 63 63 63 64 72 76
73 68 65 80 72 87 77 57 49 42 47 47 47 42 43 48 55 59 59 55 54 58 62 62 61 59 59 59 61 64 64 64 64 64 62 64 60 58 58 65 59 61 62 65 68 71 74 78 80

GFSSGP_925_rhum_090.txt.gz
RH
79 82 74 79 88 82 70 56 41 78 68 48 44 58 66 76 57 57 93 92 88 91 89 89 81 90 94 96 92 86 84 98 92 91 94 96 98 97 89 92 93 90 89 90 89 93 95 96 97
80 76 76 94 95 90 62 41 44 61 59 61 47 55 74 87 90 94 95 94 93 90 91 86 81 91 93 93 91 94 86 96 93 90 96 93 96 95 88 92 93 91 93 94 96 99 95 90 83
84 73 86 97 94 84 55 39 28 45 59 70 68 60 79 96 84 90 86 99 97 94 90 85 83 92 92 92 91 96 90 96 96 91 92 93 84 88 90 94 94 96 98 100 99 95 89 78 76
77 89 82 99 85 69 44 39 36 49 61 66 77 67 86 91 90 89 88 97 96 91 89 82 90 89 88 85 87 95 93 95 96 93 93 90 91 89 89 97 96 97 99 100 98 92 79 76 82
81 93 88 94 85 67 45 35 32 44 59 66 77 72 82 87 96 91 94 95 99 90 87 90 90 86 84 77 76 91 95 92 95 96 96 93 90 92 98 97 94 94 97 96 84 82 80 77 73
91 85 94 96 84 60 45 36 31 40 45 64 76 77 79 98 99 99 98 97 100 97 89 95 88 82 84 72 88 80 85 94 94 93 91 87 88 98 92 96 98 96 83 80 81 82 81 74 71
96 94 80 72 79 75 54 37 33 38 44 64 61 82 88 97 100 100 100 99 99 94 94 94 88 76 78 72 89 90 88 79 88 90 90 91 89 98 97 99 98 98 84 81 82 79 77 74 68
93 89 80 70 75 78 49 39 34 37 34 44 52 91 85 95 100 100 100 97 97 91 91 91 81 80 78 78 80 90 98 85 71 81 89 92 98 98 99 94 95 87 66 66 67 69 64 58 56
77 92 84 76 72 70 51 44 42 44 64 67 63 74 71 98 93 92 100 94 86 88 90 86 80 82 80 69 66 80 96 88 79 69 58 74 83 88 87 72 69 61 59 57 56 55 54 52 50
90 82 72 59 63 60 61 52 46 66 84 92 92 85 84 86 87 90 95 100 99 97 98 82 81 81 85 81 70 70 87 99 88 86 72 52 55 57 58 59 58 56 54 52 51 49 47 50 55
83 85 60 60 59 81 67 62 58 69 88 81 82 97 91 92 87 81 88 72 98 100 100 100 100 91 83 76 70 65 81 96 93 89 78 72 63 57 56 55 55 54 52 50 47 45 44 56 62
87 68 67 59 59 88 79 75 60 64 57 57 80 86 87 79 76 76 61 77 100 100 99 99 99 99 93 79 66 69 74 95 96 95 83 77 75 69 70 70 68 68 66 64 64 64 62 63 65
81 74 66 63 62 81 85 84 67 59 60 88 83 80 85 77 70 66 63 80 98 100 84 64 80 88 96 93 83 81 67 80 96 98 90 79 76 72 79 81 74 69 67 69 71 76 74 71 67
75 70 66 70 66 74 92 83 81 68 72 96 92 82 87 85 86 88 87 88 90 82 53 37 47 56 80 95 87 88 79 67 80 87 92 80 82 82 81 76 71 69 67 67 67 67 70 71 70
68 83 72 76 76 90 88 86 90 87 73 96 92 91 84 93 92 86 90 91 83 76 44 35 39 43 71 90 80 94 95 78 67 81 88 82 80 79 78 74 70 64 66 64 61 58 64 69 70
88 83 94 78 76 86 86 98 88 85 79 78 92 97 90 96 91 92 90 84 64 48 43 38 62 47 50 70 80 76 93 96 78 68 69 70 71 70 72 73 68 62 61 60 56 58 64 68 70
90 89 91 85 79 94 88 92 86 84 82 74 73 81 94 90 94 93 89 79 68 52 48 50 69 73 72 77 63 73 75 76 81 76 73 72 70 72 69 69 66 64 66 65 58 62 68 74 77
96 94 95 92 87 84 90 85 75 81 84 79 71 72 65 88 92 97 85 71 66 62 67 64 63 66 61 57 57 76 62 85 89 78 70 68 67 70 70 69 68 69 69 70 75 73 72 71 65
89 86 96 91 84 90 92 90 76 81 85 86 70 66 62 61 61 80 97 77 80 67 65 63 64 73 91 78 70 74 72 90 81 72 85 76 65 69 72 72 73 73 71 76 78 71 71 66 70
80 92 97 89 88 87 87 86 78 81 83 79 69 64 60 52 49 58 93 94 97 81 74 78 62 69 82 67 72 84 96 80 68 58 70 86 78 76 79 76 74 77 77 79 70 69 71 75 75
80 78 86 84 87 85 87 89 86 85 89 81 75 64 59 56 49 47 52 74 92 99 90 83 71 71 74 72 88 79 65 72 74 78 65 82 87 80 75 79 82 75 72 82 78 72 74 84 88
87 77 70 86 85 93 80 93 78 76 84 83 76 69 64 59 52 48 45 43 46 60 86 77 80 68 65 68 80 69 76 79 72 82 80 93 79 77 80 78 74 78 73 80 92 86 86 91 96
91 78 81 78 91 92 97 96 71 72 85 72 62 64 63 64 58 53 49 41 37 37 35 44 72 65 63 62 63 71 88 86 89 94 98 100 100 96 72 77 76 82 83 90 95 88 71 64 69
80 84 88 96 93 96 91 78 66 70 64 56 49 58 61 58 62 59 50 46 40 39 38 35 33 46 62 59 60 66 58 59 72 81 90 98 99 96 93 75 75 85 82 60 51 51 56 62 67
78 98 99 98 98 92 82 80 69 53 49 44 47 47 56 58 57 57 56 51 44 41 39 37 36 34 45 69 74 66 68 65 68 67 83 97 95 92 86 81 73 62 51 49 49 49 52 54 57
90 77 95 94 96 93 81 87 59 41 45 47 50 52 57 60 59 56 55 50 44 41 39 40 42 39 47 69 81 86 83 88 87 91 86 84 90 88 84 64 54 52 51 48 48 51 53 55 55
76 82 59 70 65 84 82 57 36 40 46 46 44 46 50 50 51 55 66 54 51 52 51 49 47 47 54 66 69 72 76 84 84 87 91 89 92 85 80 62 57 53 49 47 47 50 54 56 60
73 58 70 82 80 65 68 62 49 45 46 47 50 51 52 52 55 58 61 65 61 63 62 56 53 52 56 55 52 52 54 65 79 86 92 94 87 78 66 58 51 48 55 56 53 57 60 61 70
73 70 70 72 82 73 71 52 41 45 41 54 56 56 57 60 64 65 66 60 59 62 64 62 57 53 51 54 55 56 56 58 64 73 76 79 75 68 64 59 62 66 66 61 59 58 64 71 75
76 72 65 79 72 87 78 57 55 53 48 54 52 51 54 62 64 67 65 59 57 59 57 64 65 64 61 58 58 59 62 64 65 67 69 70 67 64 61 60 62 67 60 62 64 69 72 73 76

GFSSGP_925_rhum_093.txt.gz
RH
82 81 73 74 76 83 76 63 46 56 60 59 45 61 60 71 50 47 90 94 98 98 99 97 89 90 88 85 84 93 94 91 84 87 88 94 97 97 90 93 90 86 87 87 90 90 94 95 81
83 76 75 88 82 84 68 49 44 54 50 58 56 49 68 70 84 86 94 92 99 99 99 95 86 90 82 84 78 86 94 89 87 89 90 93 98 91 88 90 89 90 89 88 93 92 93 94 91
78 77 82 90 82 68 58 41 38 40 56 72 82 63 63 75 80 83 88 94 99 99 99 97 88 90 90 79 88 81 92 93 87 85 86 90 94 95 92 90 91 91 92 92 92 89 82 81 77
80 88 85 78 76 61 50 36 30 44 63 62 68 81 65 93 92 84 89 99 99 99 98 88 89 86 85 85 92 83 88 92 91 88 90 87 84 92 90 96 95 96 96 95 91 81 76 88 78
82 89 85 81 76 66 52 40 34 41 59 67 67 77 79 83 88 93 97 99 99 96 91 92 92 86 83 76 79 78 86 94 90 88 87 87 90 94 97 98 97 98 98 96 88 82 77 78 78
87 88 89 81 67 58 54 41 38 36 55 64 64 69 74 65 89 90 91 98 100 98 88 94 87 84 72 63 82 64 86 96 94 91 90 89 88 94 97 99 99 100 100 91 99 91 80 76 72
86 84 78 63 60 54 59 47 45 34 53 69 57 70 84 92 71 91 86 93 99 97 88 94 93 89 72 77 91 78 63 86 87 84 82 84 88 91 98 97 96 98 97 91 89 84 77 71 70
86 76 69 70 64 64 50 51 40 33 35 50 55 77 87 90 72 90 98 97 97 96 92 90 87 87 78 94 83 90 77 65 88 90 84 85 95 96 97 96 96 99 91 84 81 79 74 65 58
76 87 80 69 69 58 49 55 48 38 39 54 55 60 78 98 91 94 99 100 100 100 95 84 75 78 76 73 95 97 89 68 74 87 89 93 97 99 96 86 83 66 65 67 66 63 58 55 54
84 84 66 50 53 55 52 53 50 50 46 62 69 91 100 96 93 96 98 98 100 100 100 84 75 72 66 70 84 99 95 84 75 62 77 81 81 79 70 66 62 59 58 58 58 56 53 50 53
69 84 56 49 47 60 61 57 50 58 65 54 62 96 94 88 97 99 95 94 89 100 98 99 88 85 79 64 63 84 92 87 83 80 57 60 64 63 60 58 57 53 52 52 52 51 50 52 60
81 62 61 58 53 60 61 80 66 69 53 59 62 79 82 90 88 92 90 90 83 100 100 98 90 95 92 84 73 66 88 100 88 87 80 67 60 57 55 54 54 53 51 51 49 51 53 56 64
71 58 57 60 61 65 72 76 82 73 46 63 78 76 76 80 84 87 72 68 68 99 100 98 92 92 85 82 80 76 75 94 94 87 85 79 76 66 68 70 68 67 66 65 62 69 71 70 68
75 63 69 64 58 62 76 71 77 72 70 73 70 88 82 81 78 79 80 75 93 100 100 97 92 82 81 81 86 92 76 76 99 97 96 83 75 74 75 82 78 70 67 69 72 74 72 71 70
62 89 81 70 64 67 72 74 71 76 79 82 62 88 86 75 74 74 66 70 92 76 84 66 82 64 47 63 76 82 93 87 76 88 94 93 81 82 84 83 75 71 72 68 66 65 64 68 71
93 94 92 74 74 86 68 72 78 77 79 76 76 70 83 80 73 63 62 77 96 94 71 55 70 65 47 50 70 70 78 94 90 77 78 92 86 80 81 80 74 70 70 69 66 60 60 67 69
90 93 85 92 72 87 84 84 80 79 78 76 79 83 74 90 84 83 76 90 94 74 58 48 52 41 46 54 66 69 70 71 78 88 80 81 82 80 79 74 71 71 65 63 61 58 63 69 76
90 80 76 80 86 78 96 95 89 79 78 83 77 78 87 82 87 96 95 87 83 69 53 48 37 38 88 69 73 58 60 74 70 66 75 80 82 82 80 74 71 71 66 67 66 62 68 73 74
81 81 83 89 85 83 86 98 90 74 78 82 82 79 82 91 95 100 94 91 81 62 64 59 53 60 48 61 74 64 53 68 66 70 72 69 72 75 77 78 72 72 70 69 71 78 77 74 75
84 84 91 92 82 81 91 95 87 75 83 83 81 71 69 74 87 94 100 99 90 81 84 59 50 55 60 71 86 73 61 82 89 67 68 81 82 85 77 74 75 73 75 76 81 78 74 75 75
86 83 91 93 86 79 83 100 90 79 79 82 78 72 61 57 65 76 96 100 96 89 79 67 60 56 62 79 77 73 68 61 62 72 82 76 72 85 88 80 91 92 91 94 98 98 91 79 81
87 81 70 85 80 86 78 92 86 83 78 76 75 72 62 57 52 53 65 83 88 88 81 74 74 77 75 77 69 78 75 87 77 77 74 70 79 84 83 89 99 100 91 80 84 85 95 96 98
83 80 79 82 89 83 88 92 88 78 78 72 72 72 60 55 56 52 49 48 54 63 86 99 78 72 71 74 75 93 93 87 80 84 86 84 96 100 90 100 100 94 87 83 82 82 86 73 67
81 84 87 86 88 89 88 85 60 68 63 65 73 59 70 60 60 55 52 49 47 43 41 46 79 94 93 82 69 68 76 78 83 94 92 92 87 98 95 98 100 94 87 79 73 88 66 49 52
82 97 98 97 94 90 80 74 59 52 45 47 58 48 63 62 54 55 53 52 47 47 47 43 38 38 48 78 86 69 65 72 84 100 92 98 100 100 92 94 96 91 80 80 73 53 52 50 51
97 88 88 91 92 97 78 87 59 45 46 50 48 52 58 57 54 55 55 52 50 48 47 46 47 46 44 52 76 87 100 98 96 96 98 99 96 94 88 90 87 83 67 53 44 49 50 50 49
86 82 60 71 69 83 77 55 36 43 45 44 47 48 53 52 53 57 67 67 57 54 55 52 51 52 54 62 74 79 79 81 83 90 96 96 98 97 94 86 67 58 55 48 46 49 48 50 51
72 59 68 82 78 75 62 61 54 47 50 49 50 56 58 59 58 60 63 71 70 68 63 58 55 56 63 67 64 59 55 60 66 76 86 94 99 100 87 71 61 58 53 55 56 56 55 56 59
74 69 70 70 78 65 64 52 43 50 44 56 59 61 62 62 63 64 64 64 62 62 64 64 62 60 58 57 57 56 55 57 66 78 90 97 96 92 80 68 64 60 64 65 61 60 68 62 65
78 75 64 74 71 80 70 56 53 59 47 55 57 60 63 64 65 63 62 60 61 62 61 60 63 64 65 63 62 61 60 60 63 74 84 91 86 78 70 64 62 65 62 62 63 68 65 61 67

GFSSGP_925_rhum_096.txt.gz
RH
77 73 67 52 46 45 42 35 29 28 37 29 43 48 49 43 38 46 73 84 65 72 87 92 89 89 89 94 93 86 87 83 89 87 88 95 97 98 95 90 87 86 86 84 87 80 88 94 94
76 69 59 56 55 41 37 28 36 28 26 32 45 50 54 51 56 57 76 89 77 73 87 84 87 85 87 95 94 92 86 81 87 88 88 96 98 98 94 89 87 86 83 84 87 88 94 95 94
80 70 55 53 56 45 32 28 31 26 25 40 47 59 70 56 53 60 79 80 79 75 80 83 89 83 88 94 93 94 87 84 87 87 87 96 98 91 90 88 83 85 83 83 84 88 95 81 64
61 63 60 67 45 34 32 24 25 25 28 35 39 56 66 62 59 73 88 80 76 75 77 88 90 78 77 92 88 92 89 85 82 84 90 91 90 92 90 85 84 85 83 84 88 84 93 78 67
64 57 54 50 43 30 26 26 23 25 26 41 40 44 51 70 61 76 89 78 76 77 79 94 88 81 74 81 81 92 93 90 86 90 91 89 85 90 91 86 86 85 84 84 83 84 87 77 71
63 50 52 46 33 27 27 31 27 28 26 26 43 40 50 56 66 70 90 79 76 78 84 89 88 84 83 85 78 83 92 92 92 92 83 84 86 89 93 90 90 88 86 88 93 79 73 71 71
70 58 51 36 28 26 28 27 33 33 28 29 36 44 48 57 47 59 78 84 75 79 79 92 94 91 75 66 61 71 85 89 90 85 83 84 85 92 94 94 94 90 88 88 87 79 74 70 69
55 62 60 43 37 29 20 27 28 33 32 21 32 41 47 54 59 63 55 96 85 85 77 94 85 80 76 96 76 57 68 78 85 84 83 81 90 94 97 97 96 96 88 88 82 78 73 67 64
48 73 62 45 38 33 22 25 27 31 32 26 29 40 41 64 76 72 71 85 96 90 86 89 77 69 67 80 92 73 61 80 81 79 79 87 79 84 93 89 98 98 87 83 80 76 66 56 54
58 58 46 31 29 31 29 28 28 34 38 38 32 42 75 86 85 88 98 96 93 97 98 88 73 67 75 82 97 86 77 74 71 83 79 71 73 72 74 93 95 79 73 70 68 62 56 54 57
48 62 34 34 32 31 37 35 30 40 41 35 32 33 83 74 85 90 93 96 89 100 100 87 70 66 71 82 94 93 74 63 64 72 73 72 74 86 81 83 84 81 67 69 68 70 62 60 61
57 40 39 36 34 40 43 40 39 38 35 30 29 42 76 80 75 71 83 80 92 93 100 94 80 68 64 80 84 93 90 72 69 65 66 71 71 72 69 68 69 69 65 63 62 57 58 61 68
50 42 34 36 35 38 46 49 49 49 43 38 32 35 60 74 74 60 58 64 86 92 100 98 94 84 78 72 74 84 91 87 84 84 76 66 66 65 67 66 68 67 71 68 66 69 69 69 69
36 39 38 36 36 41 48 49 55 47 55 60 51 42 45 60 68 67 69 52 73 92 98 99 98 93 85 80 78 72 83 92 93 84 89 83 76 70 74 75 79 76 76 72 70 71 73 69 68
51 54 53 50 45 53 45 63 58 45 49 64 59 44 50 63 64 72 70 66 70 94 90 94 99 97 84 80 79 85 78 82 96 96 96 90 87 85 86 88 87 80 78 73 74 72 70 68 71
79 81 83 50 47 49 61 60 36 53 67 68 65 48 51 66 68 64 59 69 80 94 87 87 94 98 86 85 80 83 89 88 85 86 97 97 92 90 95 93 83 78 77 75 70 65 62 63 67
62 98 99 73 49 62 66 55 41 57 57 70 66 54 59 80 73 68 71 77 84 82 90 70 74 90 82 92 88 72 83 90 86 83 86 93 99 96 94 90 84 84 78 74 73 64 59 62 66
88 71 56 61 66 64 76 84 59 56 62 76 65 62 66 72 75 64 65 77 88 76 85 68 79 79 88 96 96 89 83 84 86 93 84 85 92 98 98 90 82 80 76 68 68 60 63 67 69
88 76 67 83 66 68 64 71 67 55 62 80 67 72 75 87 84 78 81 92 69 71 82 77 76 71 91 96 91 88 88 94 92 79 79 84 87 86 93 91 84 81 75 68 66 67 71 73 73
85 68 73 88 81 70 78 81 62 58 58 80 66 79 83 96 96 97 100 99 98 94 82 70 56 71 93 76 81 78 86 94 95 90 90 89 84 85 86 93 89 82 78 76 75 78 76 67 76
69 50 75 82 74 65 71 92 91 76 79 75 66 64 76 89 95 95 96 100 96 94 85 80 79 68 56 72 88 87 92 97 99 95 96 99 82 84 88 92 88 94 94 92 98 98 92 81 85
62 51 58 83 74 70 56 94 100 90 88 68 66 62 62 78 82 85 88 99 98 84 84 91 85 73 64 68 84 88 76 79 89 98 90 84 76 95 90 90 99 100 99 98 92 84 87 93 85
65 60 62 65 67 57 70 90 97 82 70 63 65 65 55 53 57 72 86 92 93 95 93 93 84 78 65 56 61 87 88 79 71 72 78 82 82 92 89 89 89 99 99 98 95 86 80 67 61
76 64 65 69 65 70 88 99 94 70 52 65 63 62 63 53 55 54 53 63 69 74 89 100 96 87 85 71 72 78 90 80 87 87 87 83 94 96 91 100 100 100 100 90 87 86 79 71 63
77 64 83 76 83 84 93 92 66 45 41 46 57 54 57 53 48 50 50 50 52 54 52 48 63 91 98 91 89 87 88 79 79 76 88 91 100 100 92 93 97 86 95 94 88 85 81 74 57
89 76 73 66 67 79 72 83 66 42 40 42 63 50 49 53 55 52 50 48 51 56 57 54 49 49 57 80 96 100 100 93 78 86 97 100 100 100 94 99 92 95 97 94 90 83 60 44 46
80 68 50 60 55 58 62 45 45 45 46 50 51 48 49 49 52 62 56 54 54 58 62 60 55 54 58 71 86 94 96 98 96 94 100 100 100 100 100 100 100 100 100 89 71 57 53 52 57
66 51 59 62 65 71 50 51 60 48 44 47 45 46 49 49 48 49 50 58 62 66 66 63 60 62 66 71 76 81 84 87 84 92 99 100 100 100 100 100 100 92 74 60 55 58 56 56 61
60 54 52 49 53 46 51 50 37 41 43 45 46 45 47 48 48 45 46 51 56 59 63 64 65 66 66 65 64 65 67 77 82 94 99 100 100 100 100 93 77 67 60 56 55 57 56 60 67
65 59 46 50 54 57 42 49 40 39 43 44 51 49 47 44 42 40 40 40 46 52 56 59 64 67 71 70 68 67 60 63 78 85 92 97 99 100 93 75 68 64 60 62 64 62 62 65 70

GFSSGP_925_rhum_099.txt.gz
RH
74 61 50 46 50 40 39 30 19 19 18 18 22 31 31 30 32 47 59 62 59 75 85 93 85 88 93 90 87 87 72 86 89 88 94 96 96 98 93 94 97 92 87 93 82 88 90 93 95
72 52 48 42 51 44 31 20 22 18 18 18 31 35 39 37 39 45 56 67 66 80 86 84 86 87 86 89 90 87 79 89 88 86 89 93 98 96 92 90 90 82 81 76 83 93 94 94 66
63 52 46 43 48 48 31 18 18 16 17 19 27 32 37 38 42 48 63 69 73 83 80 83 84 84 86 88 91 87 80 83 90 89 91 94 98 94 89 86 79 80 78 84 83 92 92 65 45
45 40 42 48 38 29 28 20 15 17 18 17 27 35 42 42 42 54 64 66 74 82 78 83 83 81 86 90 92 86 81 80 87 89 90 90 94 92 85 81 80 79 81 80 86 89 69 53 48
44 40 47 37 37 28 19 18 17 18 20 18 20 33 36 41 41 52 67 69 66 77 81 91 85 82 86 88 92 86 78 81 89 87 89 94 86 85 81 82 82 78 79 81 90 91 74 66 62
47 37 45 37 28 21 19 16 16 18 17 17 19 28 29 31 53 59 72 73 66 73 85 86 91 80 86 87 91 90 83 83 88 88 94 90 83 86 86 82 82 78 81 93 92 92 79 71 67
51 43 40 30 26 20 17 14 17 20 19 19 16 25 26 30 51 64 60 77 78 72 82 84 92 92 87 81 88 90 90 90 91 92 89 84 82 85 84 82 82 81 84 92 86 76 71 71 70
41 43 46 36 33 27 16 13 14 18 20 15 16 24 32 30 48 76 59 56 77 97 81 85 84 89 90 95 78 91 91 93 91 89 79 81 84 87 86 85 83 84 85 85 80 76 70 68 67
36 52 49 38 35 29 18 18 13 14 18 18 18 20 26 53 58 67 61 74 86 89 89 86 87 78 68 69 83 83 95 95 90 83 83 84 86 91 89 90 87 87 88 88 83 77 69 59 52
49 50 44 27 24 25 20 19 17 16 18 22 23 21 25 62 64 72 86 95 88 78 86 89 84 64 58 64 80 71 82 87 80 81 80 70 72 75 74 93 94 92 90 88 82 73 59 52 57
42 52 31 26 23 22 24 23 18 22 22 20 23 24 41 57 65 79 89 93 88 86 87 83 92 64 59 71 69 61 63 62 62 70 69 59 60 72 82 95 97 96 80 82 73 60 60 53 50
43 36 33 31 26 25 28 25 29 28 25 21 17 20 37 72 71 75 86 97 93 88 82 63 99 64 66 67 66 57 51 53 59 66 58 58 61 69 67 72 73 70 63 58 60 57 52 54 55
42 35 32 30 29 29 26 31 37 28 26 28 23 32 49 48 68 72 75 90 95 96 90 93 99 64 72 81 82 58 52 51 53 60 60 61 61 59 60 59 62 60 56 55 55 54 52 51 54
47 43 36 32 32 30 32 29 30 34 30 32 38 41 42 46 58 73 66 87 87 79 82 83 97 66 60 75 82 86 64 56 60 59 57 57 57 58 59 58 59 60 64 60 59 56 59 58 59
53 54 42 39 35 34 29 36 35 29 30 36 39 41 44 38 74 82 59 70 75 58 62 75 96 78 70 67 69 80 81 75 71 74 69 66 66 62 67 65 73 72 68 63 63 58 59 57 57
56 52 65 38 35 39 36 56 32 26 32 36 41 44 45 36 58 90 58 60 65 93 71 68 90 75 81 74 72 64 68 79 84 77 78 76 76 76 77 81 81 77 72 68 62 59 58 55 56
47 66 68 71 45 40 44 60 37 27 43 45 44 46 47 44 46 84 83 69 70 89 83 98 83 81 70 79 73 73 73 75 79 83 89 86 84 83 87 85 81 78 74 70 65 58 53 52 58
57 66 57 92 51 43 50 60 45 50 45 46 53 49 45 44 54 84 90 71 74 87 78 91 98 83 81 81 84 76 80 78 76 77 80 83 87 88 87 83 81 78 77 69 65 61 54 56 56
51 62 70 85 84 48 54 57 44 36 42 49 54 64 49 54 57 70 88 80 78 94 89 84 76 80 90 83 90 86 78 83 86 85 78 74 82 85 88 86 81 80 76 69 62 60 57 64 66
61 64 64 66 66 55 53 49 41 42 43 44 58 60 59 66 92 93 94 81 85 86 80 74 65 68 79 81 82 77 83 86 87 87 86 81 80 82 86 88 87 85 81 74 66 63 67 70 66
64 66 58 83 86 64 66 74 65 59 60 50 59 54 65 70 89 92 95 98 92 89 86 84 79 87 86 77 70 76 81 85 93 90 91 91 90 87 90 91 87 82 82 80 80 80 88 80 81
88 42 57 87 98 92 57 86 92 92 70 62 62 68 79 87 89 93 96 99 100 98 91 78 86 92 91 84 72 68 70 76 82 85 92 87 79 93 99 90 85 90 90 90 98 97 91 79 82
67 44 69 68 64 89 69 67 99 93 85 75 79 77 93 89 92 94 91 96 94 96 98 91 87 90 87 88 83 82 76 73 80 76 96 90 86 84 81 82 80 90 98 99 98 94 88 77 67
71 60 56 60 70 95 97 99 100 99 95 86 68 68 79 90 89 83 94 100 95 97 95 90 94 93 90 89 79 78 78 79 86 95 99 97 92 88 85 85 81 99 100 95 88 94 97 97 90
81 60 92 93 88 94 97 98 100 76 77 73 74 67 61 61 64 70 76 86 93 99 97 97 99 93 87 93 89 81 79 81 85 86 94 96 95 86 88 92 69 88 100 98 82 95 96 94 84
81 86 96 66 81 91 82 96 100 60 57 64 66 61 73 74 67 57 53 50 57 60 61 59 51 54 64 78 92 90 95 93 81 81 84 90 91 91 78 81 84 92 91 95 99 100 97 90 85
62 70 45 52 42 53 83 98 77 69 64 73 64 68 58 58 67 70 58 52 54 58 60 56 51 49 50 59 73 87 98 100 94 97 94 95 95 99 92 99 100 100 98 99 100 99 94 80 68
80 49 70 63 61 63 75 87 93 90 75 75 78 63 52 50 49 52 57 60 60 60 59 58 58 59 62 67 73 81 83 87 94 99 99 100 100 100 100 100 100 100 100 100 100 89 74 63 66
59 50 43 41 47 41 56 88 40 47 59 48 50 48 49 45 43 43 45 48 50 54 56 59 60 60 61 61 62 62 63 71 81 85 95 99 99 99 100 100 100 100 100 95 85 71 60 57 58
57 47 40 46 45 42 44 62 33 39 40 43 46 42 40 38 37 36 35 35 38 43 48 54 55 60 64 64 62 63 66 69 73 78 86 96 100 99 100 100 100 97 89 79 67 59 58 57 63

GFSSGP_925_rhum_102.txt.gz
RH
61 61 57 47 72 63 59 48 31 29 23 15 17 25 34 31 54 78 57 56 73 85 86 85 88 89 87 69 71 63 56 82 85 85 94 96 85 90 94 95 89 94 95 90 90 89 94 99 99
68 55 44 56 70 69 49 32 32 25 20 16 20 31 37 37 47 70 65 58 68 83 86 90 89 83 88 80 81 83 60 82 87 86 91 92 98 93 95 97 84 93 87 90 91 93 95 68 64
55 50 60 62 64 70 48 29 23 18 17 16 23 30 34 36 46 58 64 64 79 87 85 85 87 84 88 84 84 85 68 85 87 89 88 90 96 95 94 94 77 85 87 84 94 95 72 43 37
44 44 52 62 52 42 42 30 26 22 16 16 20 42 45 40 43 56 64 64 76 85 82 84 83 82 84 82 87 84 74 87 88 86 90 92 90 92 88 77 80 76 79 80 95 69 51 45 43
44 52 62 56 49 37 27 24 24 23 20 18 20 33 48 40 45 57 64 66 75 82 82 85 80 75 82 82 88 83 74 83 85 84 89 93 90 85 79 76 78 77 80 85 95 67 58 51 47
59 49 62 58 45 29 24 22 21 20 18 17 20 22 31 32 40 50 64 66 69 80 83 84 79 78 82 80 89 85 76 82 85 88 88 91 86 78 79 81 78 79 79 83 89 81 67 63 60
62 61 57 42 34 28 23 17 19 19 18 18 16 22 20 53 40 55 70 72 74 83 86 91 84 82 78 82 90 84 77 80 88 87 90 87 84 83 81 83 78 77 84 88 89 84 74 69 62
48 57 59 50 45 37 22 18 16 17 18 14 15 22 23 51 56 68 76 79 90 92 94 100 100 89 85 83 93 86 82 84 86 90 90 84 84 84 84 80 76 78 82 90 82 75 70 66 63
40 66 64 50 40 34 23 25 20 16 16 14 15 17 30 50 59 64 80 68 85 93 82 89 78 97 90 82 92 93 86 86 94 93 88 85 86 84 80 80 76 78 81 81 80 72 65 60 55
56 64 57 35 29 29 24 24 22 21 19 18 17 17 19 54 66 75 74 79 64 60 75 94 86 79 84 82 86 94 98 95 92 86 83 85 86 85 86 81 81 81 82 87 78 71 63 49 52
49 66 46 40 33 29 28 25 21 24 26 20 20 19 21 43 74 74 77 76 59 70 55 50 64 95 68 73 79 95 100 97 96 91 82 80 84 84 87 86 84 86 88 86 76 66 49 51 57
46 38 37 37 33 34 34 28 28 25 25 25 24 27 38 47 73 70 78 84 91 77 66 80 70 71 72 83 66 74 89 91 91 86 69 68 76 80 88 85 93 90 84 69 58 56 55 56 54
52 46 37 33 34 34 31 33 31 29 28 31 25 28 40 53 60 61 78 79 91 78 78 97 71 81 70 99 64 64 61 63 71 72 66 61 70 76 78 74 77 71 57 69 60 61 54 53 53
51 49 49 46 45 34 35 34 33 29 24 28 30 32 52 54 55 56 76 85 91 92 90 98 78 75 86 98 61 56 55 56 64 61 61 60 66 67 65 65 66 64 58 56 55 54 54 54 54
60 62 59 54 44 45 37 45 40 28 24 26 30 31 53 54 58 58 66 85 90 97 100 92 80 96 96 91 66 61 52 52 58 61 61 60 61 60 59 60 60 59 60 62 61 58 58 59 58
66 70 86 49 43 42 45 62 39 28 26 27 32 35 62 50 53 53 64 67 92 95 99 81 93 82 83 91 72 60 65 62 59 59 58 58 58 60 59 62 65 68 69 65 63 61 60 59 58
67 88 81 67 45 48 49 58 45 31 29 29 29 56 66 57 52 63 72 87 84 79 90 89 72 57 57 69 89 85 67 68 71 74 67 70 70 68 70 79 76 76 74 67 64 61 58 56 54
80 81 64 61 59 81 64 59 49 38 36 42 56 58 60 51 56 68 86 71 82 85 65 75 72 62 62 71 70 73 75 86 79 76 79 78 78 80 76 85 83 79 76 72 68 64 58 53 54
69 76 77 53 48 90 68 56 49 54 76 52 66 73 71 58 53 60 79 69 87 81 75 88 94 76 69 69 71 76 78 74 78 83 87 81 84 82 87 84 82 80 79 74 68 65 61 54 61
92 84 70 53 65 85 65 56 50 56 80 59 52 59 67 71 94 90 92 89 91 93 85 90 99 86 76 68 65 74 81 83 83 80 77 78 84 86 83 82 85 83 81 78 70 63 61 61 65
76 74 62 82 90 67 74 77 64 50 62 58 54 57 58 78 96 95 92 91 92 93 93 89 89 84 80 74 73 76 75 79 85 86 85 79 80 81 85 85 84 83 82 78 76 74 71 72 75
78 56 59 95 98 100 72 96 82 85 84 72 59 62 72 96 95 94 94 96 90 100 91 85 75 76 78 83 85 83 73 73 65 77 87 86 85 83 83 75 88 86 83 82 80 78 80 81 91
71 65 76 80 92 100 98 91 98 95 86 70 73 76 93 96 95 96 98 98 100 99 97 90 75 78 83 82 87 85 78 79 74 76 78 72 78 75 78 83 84 80 77 80 81 85 86 83 84
69 78 69 68 84 99 100 99 100 100 98 87 89 97 96 97 97 96 100 95 100 100 90 94 94 92 80 87 86 89 88 82 78 86 85 85 82 84 82 84 86 87 92 90 95 96 93 82 85
84 94 97 98 99 98 100 98 100 98 87 87 94 98 97 96 96 95 96 97 99 96 93 94 92 90 86 84 86 89 90 86 87 82 96 95 87 79 87 88 90 83 97 99 94 75 94 98 97
94 96 99 96 97 99 78 98 100 92 86 80 90 95 90 91 83 74 85 96 91 95 93 91 92 88 89 79 87 87 86 90 90 83 82 80 89 96 90 90 89 85 98 99 100 76 96 100 100
85 92 56 98 77 97 100 100 96 88 88 76 78 88 96 92 76 70 62 61 61 62 61 58 54 51 50 55 74 88 99 100 95 91 93 84 86 89 90 95 100 98 92 94 92 94 92 99 97
89 65 77 86 96 96 91 90 100 99 92 81 75 80 78 74 72 74 76 65 62 61 60 60 61 64 65 68 73 82 84 91 94 96 99 100 99 99 100 100 100 100 99 99 90 98 99 100 95
74 62 55 50 59 71 86 97 80 87 73 74 78 65 54 51 56 55 56 54 55 56 58 60 63 64 63 61 60 62 64 70 78 88 94 96 99 100 100 100 100 100 100 100 100 100 100 93 78
60 52 46 78 62 68 86 92 55 52 53 54 57 49 54 43 42 45 44 42 43 46 50 54 59 62 63 63 63 61 61 61 68 75 85 94 98 98 99 100 100 100 100 100 100 100 90 76 69

GFSSGP_925_rhum_105.txt.gz
RH
61 60 60 65 83 89 90 75 50 48 35 22 20 21 35 45 46 62 63 64 70 74 75 72 61 55 58 62 58 56 80 84 86 89 95 93 83 90 96 94 98 92 93 88 88 93 91 92 91
62 55 51 71 91 95 80 54 48 40 30 26 23 33 39 57 71 72 64 76 75 78 78 80 77 63 62 65 66 55 71 83 84 89 90 92 89 94 93 92 99 96 93 93 93 97 98 94 69
46 51 72 83 90 87 78 42 38 31 27 23 23 33 38 62 69 70 65 65 78 79 85 84 77 73 69 70 77 68 63 81 83 86 87 88 88 91 96 85 95 90 85 92 94 93 59 50 48
52 53 66 83 84 67 58 51 39 34 27 23 24 43 44 43 57 65 69 77 86 87 91 87 76 82 73 80 77 83 65 83 84 86 87 92 89 92 94 84 93 84 77 91 94 56 39 32 33
46 67 85 86 72 54 44 40 37 34 30 25 22 44 47 58 60 63 68 78 82 90 90 86 81 76 79 79 80 83 68 85 86 88 89 92 88 88 83 81 88 80 74 86 64 53 46 42 46
69 65 86 92 72 49 40 32 29 28 25 22 21 25 44 57 62 62 66 73 83 85 87 85 83 73 80 75 80 85 77 83 86 89 88 91 88 82 74 76 76 76 78 88 76 65 55 49 51
67 77 82 68 57 43 36 27 28 25 24 22 18 22 24 52 64 68 74 74 83 86 92 95 89 74 84 77 83 86 81 78 85 86 88 91 83 77 75 75 75 78 75 85 92 72 62 56 55
55 67 71 67 67 57 35 29 23 26 26 18 16 23 23 49 69 68 74 76 75 94 97 98 99 94 95 89 90 86 80 81 84 83 89 88 76 78 79 77 81 77 75 86 87 73 66 60 56
46 76 83 64 55 47 32 31 23 22 24 22 18 17 37 66 64 78 85 88 84 90 95 98 97 88 95 95 98 91 81 82 82 89 91 87 83 80 80 76 76 78 79 86 74 66 62 58 55
64 83 63 47 43 43 37 34 31 28 26 25 24 19 57 78 67 73 78 86 94 92 94 88 85 80 76 73 84 98 85 82 91 94 90 85 83 82 78 78 76 76 79 80 73 65 58 47 44
60 73 52 50 46 43 43 38 31 33 33 27 30 32 33 40 83 80 74 68 66 78 89 91 91 91 84 84 70 63 92 89 96 95 88 84 86 80 80 80 76 76 79 85 74 66 53 50 55
60 47 45 45 42 41 40 35 37 34 32 27 30 36 35 55 65 85 82 70 62 59 65 64 72 74 53 74 86 66 74 100 99 92 86 86 84 86 81 82 78 79 85 88 71 59 44 54 57
68 56 48 48 47 43 37 39 38 36 28 27 25 27 41 56 57 50 66 76 80 71 70 70 68 66 67 77 68 73 93 99 93 85 84 80 83 84 81 84 84 87 86 79 58 56 56 56 56
65 64 61 53 53 52 55 52 39 35 30 29 28 28 34 52 52 56 56 69 80 77 78 73 75 75 71 89 63 82 92 84 99 92 84 80 82 84 86 84 88 78 74 63 62 61 57 54 51
62 84 71 62 57 61 51 59 53 36 32 33 30 27 31 54 54 58 55 57 71 90 88 82 84 91 90 86 68 84 78 85 90 75 77 75 75 78 75 71 69 63 59 64 63 57 54 57 56
77 75 95 57 54 59 58 69 45 37 37 35 32 29 28 57 54 47 56 64 86 93 94 87 83 99 92 77 93 93 69 66 75 75 72 66 68 73 71 66 67 69 62 59 58 60 58 60 61
78 93 90 76 55 56 59 71 53 40 39 38 35 33 32 63 61 48 50 64 69 78 89 91 99 97 68 71 83 89 74 62 65 63 64 64 65 63 61 63 62 61 61 64 64 62 62 61 59
84 90 76 78 62 59 67 80 66 48 46 52 78 62 66 62 61 47 60 71 75 76 73 80 96 100 80 72 70 85 84 60 60 61 59 59 60 60 59 62 63 71 70 66 65 63 62 58 55
83 88 88 75 63 72 74 79 77 55 63 75 80 74 67 70 66 52 57 64 83 84 84 84 93 90 95 99 98 95 99 80 67 60 59 70 64 67 66 79 78 78 76 73 69 66 64 59 54
74 90 92 74 62 90 88 82 63 56 62 75 79 70 59 75 80 80 78 66 76 84 86 89 86 87 88 87 86 85 88 80 82 73 74 74 72 77 76 84 86 82 79 76 71 68 65 62 58
90 89 84 81 70 84 88 90 76 58 62 66 74 65 64 64 89 95 87 83 92 86 83 97 93 93 76 79 90 84 73 80 80 70 71 76 78 80 77 85 83 81 81 80 76 70 64 68 75
95 64 64 86 98 98 94 95 91 90 88 76 79 74 66 72 98 96 91 95 94 90 90 99 100 92 79 77 73 76 77 73 73 66 64 74 80 82 86 84 84 85 84 78 77 74 72 68 76
79 76 87 86 96 100 89 99 98 96 88 85 83 78 75 91 93 97 95 94 98 94 93 100 97 95 93 85 89 88 81 83 76 74 72 66 69 76 83 76 72 74 71 66 79 73 73 78 71
73 84 85 82 90 98 100 100 99 100 96 87 82 84 91 96 98 98 98 96 98 100 99 100 100 100 99 98 96 89 82 84 82 85 87 84 82 77 79 77 76 77 76 82 85 80 75 92 92
90 95 96 98 98 98 100 97 99 99 88 82 94 97 97 97 96 95 97 98 100 100 100 100 96 99 98 93 94 90 86 83 83 82 87 90 86 82 81 78 80 88 82 77 78 94 94 99 92
86 98 99 96 97 99 99 98 98 95 96 96 94 97 94 95 96 98 98 98 100 100 98 100 96 90 92 83 85 93 88 88 91 88 89 86 83 88 87 82 83 82 84 81 85 99 100 99 100
88 100 94 99 100 98 99 100 98 86 94 95 97 95 96 94 94 93 94 90 96 94 88 82 79 78 74 70 72 80 78 87 89 92 95 91 83 80 82 84 92 86 91 91 92 98 91 89 91
93 80 98 98 97 96 96 98 98 100 96 92 94 94 91 87 84 83 79 70 78 77 72 70 69 69 70 73 81 88 99 100 97 99 100 99 96 95 93 89 86 100 99 100 96 100 99 96 90
88 78 68 61 72 84 93 98 98 96 84 87 77 66 79 88 67 72 57 60 62 62 64 65 65 64 63 62 63 64 68 73 81 91 95 100 99 100 100 100 95 100 100 100 100 100 100 100 100
64 70 53 83 65 84 90 99 84 84 82 72 79 50 48 50 51 51 52 51 52 52 52 54 56 63 65 65 65 66 66 65 69 76 86 95 93 95 98 98 99 98 99 100 99 100 100 100 100

GFSSGP_925_rhum_108.txt.gz
RH
52 60 57 62 85 91 94 85 61 56 38 28 24 23 27 34 48 58 69 71 73 66 74 75 78 72 65 62 71 80 85 84 85 93 99 96 87 87 94 96 96 96 90 92 88 89 83 95 95
55 54 54 76 90 93 81 69 62 51 37 28 26 25 41 53 74 75 83 75 69 66 66 67 64 68 65 64 57 74 83 84 85 88 94 92 82 93 97 98 92 89 91 91 91 90 89 87 82
47 51 72 85 92 91 82 52 50 39 33 29 28 27 44 74 73 70 64 76 73 74 68 67 65 64 67 68 63 60 81 84 84 87 88 86 78 95 94 99 90 94 93 96 96 96 74 70 62
50 55 72 91 95 77 68 55 44 41 33 26 24 30 45 49 68 62 70 80 80 77 78 75 71 66 64 66 67 56 73 82 83 86 87 88 80 90 89 96 90 84 82 94 68 51 51 51 54
52 73 84 93 89 70 52 46 41 41 35 28 22 26 30 56 61 63 72 81 79 84 82 85 81 75 66 68 77 76 63 83 83 85 87 89 82 91 89 92 86 73 77 74 41 35 33 44 62
72 71 92 92 76 59 50 40 35 33 30 26 23 24 26 44 70 85 86 83 84 87 88 85 85 82 71 78 71 80 62 83 83 84 87 90 85 86 87 87 84 78 63 60 47 42 41 52 61
74 83 84 76 67 58 45 32 29 29 28 26 20 24 21 60 72 78 86 91 82 88 94 93 90 81 79 78 79 84 78 83 85 87 87 91 87 82 82 86 81 76 64 66 55 48 45 49 60
67 71 78 78 73 61 42 35 29 30 29 22 17 25 23 25 66 74 66 93 80 96 71 98 93 83 86 90 89 90 86 77 87 89 88 93 88 79 82 80 78 75 79 73 65 60 55 52 53
48 75 92 68 60 55 37 41 29 27 27 27 21 21 36 38 99 86 98 100 97 100 96 95 91 94 94 95 88 89 94 79 86 89 86 91 82 76 78 76 75 76 76 80 72 63 59 55 52
65 86 72 54 47 48 46 44 41 36 36 32 26 26 28 29 33 79 96 99 98 100 100 94 88 89 90 90 89 92 98 91 88 88 86 90 78 78 77 76 78 78 85 85 70 63 59 55 51
62 81 54 50 49 48 51 49 38 38 40 31 32 32 38 40 56 79 84 92 99 98 99 89 84 83 80 76 70 64 60 87 92 86 89 86 80 80 78 75 78 78 79 81 68 63 57 45 46
64 53 54 50 46 49 47 39 39 38 37 32 30 29 34 42 59 58 62 69 87 100 95 89 82 78 70 66 55 58 52 59 96 90 93 87 82 80 78 79 78 79 80 76 70 62 55 50 55
72 64 57 55 59 56 52 55 48 41 32 31 30 31 36 42 54 36 45 64 78 77 84 91 90 78 74 77 65 62 47 53 68 100 94 87 84 82 78 75 78 78 82 78 71 62 52 53 56
66 69 68 64 59 56 59 57 57 47 36 36 33 34 36 39 42 44 47 58 77 73 71 73 75 73 62 59 55 51 59 52 66 99 94 90 87 84 76 80 79 78 81 81 72 57 53 57 57
63 83 72 73 69 69 59 71 66 44 42 38 34 31 34 38 38 55 41 48 56 72 72 72 71 72 70 62 61 60 75 61 62 94 97 91 89 87 79 79 81 82 85 80 67 62 64 59 56
85 78 96 59 61 63 64 75 52 44 46 45 39 35 34 38 41 31 28 47 52 74 79 78 76 88 94 87 78 74 73 74 62 75 100 91 89 81 80 81 83 82 83 77 68 66 64 58 57
82 91 93 82 60 61 63 73 53 48 48 47 44 42 41 42 45 37 35 42 48 73 76 83 83 83 98 98 87 91 81 84 80 80 92 95 85 77 79 80 83 74 72 66 65 63 61 60 62
76 89 82 81 63 63 75 76 60 55 62 55 48 56 67 64 56 41 32 41 50 72 81 80 84 89 100 98 90 100 94 82 83 80 87 92 89 81 74 74 66 69 73 67 66 63 62 61 63
85 94 96 77 63 75 81 82 72 66 72 67 70 78 76 69 60 48 52 54 78 83 83 80 94 100 98 87 84 98 100 92 87 80 80 81 80 77 76 71 68 67 66 64 64 65 64 65 61
88 91 77 70 66 86 82 80 70 62 66 64 64 76 76 71 65 68 64 77 88 75 79 84 98 97 98 79 92 86 89 87 91 78 73 74 70 69 64 63 64 65 69 70 66 67 69 64 60
81 83 84 89 72 81 88 92 85 68 62 61 64 75 73 70 66 74 88 90 93 91 86 86 88 89 90 93 94 83 94 100 88 80 74 70 64 62 62 63 69 74 76 74 74 72 70 68 65
90 59 78 80 92 92 83 94 87 89 88 79 80 80 75 72 71 93 89 95 87 81 77 80 77 88 90 88 97 99 96 96 88 83 74 71 71 69 69 70 75 85 84 82 78 74 73 72 70
79 72 85 89 93 99 89 99 82 88 83 84 83 82 78 75 91 91 91 91 84 64 83 74 83 100 95 96 99 97 94 96 80 85 79 78 72 73 75 78 83 86 85 85 83 75 76 76 73
76 89 88 90 96 99 93 100 96 100 97 84 81 84 77 94 89 89 97 90 95 88 78 90 92 99 99 99 100 100 98 95 97 92 89 85 82 81 77 77 78 73 74 74 72 69 74 78 78
84 95 96 96 98 95 100 100 99 97 88 84 82 94 94 95 97 98 98 98 100 99 100 100 100 99 100 98 100 99 100 100 98 94 88 87 82 83 84 87 82 75 80 80 74 76 86 82 88
88 94 98 96 97 97 90 97 97 95 93 87 95 96 97 97 97 98 97 98 99 100 100 100 100 100 99 99 97 97 96 96 93 94 88 86 83 83 81 81 86 83 75 78 78 76 77 88 99
88 100 96 100 100 99 98 100 100 92 92 94 97 96 97 96 97 97 96 98 99 100 99 95 96 95 92 89 92 99 87 90 83 82 81 88 91 88 90 87 84 87 87 89 86 84 88 97 99
92 89 100 99 97 96 88 98 98 100 96 93 96 97 97 95 94 92 92 96 99 96 91 83 80 78 81 86 91 90 89 87 82 82 86 95 100 100 96 90 89 89 92 90 97 100 100 99 94
95 100 92 77 87 96 95 98 100 99 92 86 95 93 92 93 83 72 63 70 76 76 74 71 69 68 68 68 67 68 71 78 85 90 96 100 100 100 99 100 100 99 98 98 95 100 100 100 95
66 73 65 80 86 85 96 99 93 93 84 65 65 85 70 78 74 58 58 59 60 60 57 58 61 66 68 67 66 67 66 67 70 74 81 90 90 90 93 93 95 99 100 100 100 100 100 100 100

GFSSGP_925_rhum_111.txt.gz
RH
59 59 56 56 76 90 90 81 68 55 43 33 29 26 29 26 30 54 70 81 80 83 87 87 90 87 90 86 83 82 78 88 90 98 98 99 85 89 98 94 92 92 96 93 86 85 86 93 95
56 55 52 78 85 81 59 73 66 63 44 36 29 26 31 43 75 73 80 83 77 80 80 85 83 74 78 87 84 83 81 81 85 89 97 93 94 94 95 94 97 86 94 88 83 92 96 90 87
52 52 68 85 91 85 62 60 59 43 39 33 29 25 38 60 75 75 66 73 83 81 79 79 75 71 64 63 78 82 82 83 86 87 90 90 92 95 96 96 85 86 88 88 84 96 92 72 72
49 58 72 88 97 78 65 53 49 48 37 30 26 29 28 54 67 67 67 69 84 81 86 76 69 60 59 56 55 73 85 82 83 84 86 87 81 94 96 91 86 88 87 98 96 89 76 60 74
54 73 82 92 88 78 59 52 42 44 38 32 27 26 26 41 67 67 74 88 78 75 74 79 72 65 59 58 57 55 74 84 83 84 86 86 82 86 95 90 84 80 79 87 66 62 63 58 69
78 76 82 80 78 64 55 46 36 36 30 28 24 25 24 31 60 82 64 70 76 90 86 78 74 68 65 63 67 64 58 81 83 85 84 87 83 87 93 91 79 62 76 57 39 36 41 64 66
78 81 78 79 72 62 54 38 33 31 33 28 24 27 23 34 79 80 57 59 64 71 92 94 88 85 73 76 76 81 64 80 82 84 85 87 85 89 92 90 81 67 52 48 40 38 52 63 66
75 74 82 77 70 60 42 36 31 29 30 25 23 27 31 32 72 97 96 62 59 66 74 87 96 90 85 85 83 85 84 79 83 85 85 88 88 88 90 87 83 75 50 44 45 45 47 58 64
50 74 85 70 73 58 44 47 38 32 31 31 24 24 34 25 27 58 94 99 82 65 73 76 86 92 88 90 84 86 92 82 85 87 87 84 91 89 85 84 82 76 56 50 53 51 51 54 60
63 81 67 59 50 49 50 48 47 41 40 36 30 25 24 22 24 65 82 95 98 99 89 94 87 89 86 87 83 77 86 92 90 87 90 88 90 89 86 81 79 75 69 64 60 56 53 54 54
67 78 63 51 48 50 54 51 45 41 45 39 34 31 30 29 30 41 56 84 96 98 100 100 96 84 85 82 76 75 77 89 91 96 88 90 89 80 88 77 75 79 76 82 72 64 59 54 53
65 57 58 56 49 55 55 46 52 45 41 35 33 32 33 36 37 37 41 43 70 91 99 99 98 92 85 77 74 70 66 59 76 94 97 89 86 79 78 76 78 77 83 86 72 64 58 47 45
71 65 62 62 65 65 59 64 60 56 46 40 36 36 42 45 39 28 24 29 71 87 96 98 93 88 80 74 72 63 56 54 54 58 88 98 80 80 78 76 78 78 77 78 71 65 60 48 54
71 74 72 67 68 64 67 62 58 53 47 44 41 40 42 44 40 32 26 27 48 76 81 90 90 85 79 75 64 67 68 65 63 57 56 95 82 81 78 77 81 80 78 77 72 67 63 50 55
73 82 77 72 68 75 65 77 73 51 48 50 46 41 39 48 34 38 28 30 34 48 69 75 69 79 80 78 76 72 75 57 61 76 63 71 94 88 80 79 81 80 78 78 78 77 70 55 58
85 78 96 55 68 64 61 76 55 50 54 54 49 45 42 43 43 30 25 25 23 40 51 67 70 65 68 63 58 59 59 64 75 78 85 92 91 92 87 86 79 78 79 81 81 82 70 66 64
79 92 91 80 61 61 70 78 58 52 52 54 49 48 46 45 47 35 26 24 21 24 56 64 76 74 71 73 71 73 74 71 75 88 98 98 92 100 94 89 84 80 80 82 84 83 77 69 61
77 88 84 90 64 63 72 73 60 55 61 61 57 56 52 52 50 38 30 29 27 35 51 74 78 81 82 91 93 93 86 84 84 91 95 100 95 96 100 92 89 82 82 83 85 82 76 73 60
82 92 85 78 67 72 80 79 70 60 71 80 79 77 63 59 56 52 37 30 39 38 47 71 87 86 93 99 100 98 100 100 99 93 90 84 85 78 96 96 85 80 85 78 75 72 70 69 66
78 85 76 72 66 73 77 83 70 64 70 72 75 74 74 69 70 62 53 50 50 54 54 83 94 97 97 99 100 98 96 100 98 92 97 83 76 76 81 72 79 79 72 69 74 71 73 69 67
80 85 70 75 74 71 85 91 84 70 73 68 64 67 69 76 77 70 64 57 62 80 79 86 86 97 98 96 95 89 96 96 100 98 96 100 99 91 84 76 93 70 69 73 69 69 73 69 68
88 60 63 66 93 90 74 92 71 90 84 79 81 82 81 76 74 75 75 80 98 89 82 81 89 99 94 95 92 92 89 91 87 95 94 95 94 90 97 99 89 63 69 68 68 72 72 73 73
82 74 88 91 97 98 80 96 81 91 89 87 86 82 84 79 77 78 87 88 82 91 86 86 90 87 91 91 91 95 94 85 87 90 95 89 94 96 93 76 74 66 66 72 76 78 80 80 77
77 88 89 94 96 96 90 98 92 96 96 92 85 82 83 79 86 86 91 94 85 82 62 71 88 88 86 92 91 92 96 97 100 99 95 92 86 88 82 75 72 67 70 73 69 84 85 79 79
88 96 96 90 100 93 100 100 96 96 90 90 89 84 99 94 94 93 94 95 78 69 65 75 89 99 91 100 100 92 100 98 98 96 97 94 89 86 83 80 80 75 64 66 66 72 76 72 69
88 89 98 96 100 95 97 98 99 95 89 93 93 94 94 98 97 98 97 98 100 100 96 96 100 100 100 100 100 100 100 99 99 96 98 93 87 83 83 89 92 91 88 85 83 87 78 79 84
88 100 95 100 99 98 98 99 97 90 89 92 95 95 98 97 97 97 97 99 99 100 100 100 100 100 97 100 92 94 93 100 100 96 95 90 89 88 86 87 88 88 87 88 83 92 90 92 94
90 92 99 100 97 96 97 98 98 98 99 93 96 97 96 95 93 94 95 97 98 100 100 97 99 99 98 99 98 100 100 98 97 100 100 99 97 98 98 93 94 92 91 91 94 93 98 100 98
98 100 99 97 91 96 95 98 100 100 99 96 96 96 93 90 88 89 87 86 87 89 87 83 81 80 81 81 84 82 87 92 95 96 99 100 99 100 100 100 100 99 98 97 98 100 99 100 97
74 86 74 97 87 88 97 99 95 96 94 85 84 83 68 65 66 67 65 65 68 71 69 67 70 72 73 68 65 66 66 66 67 70 73 77 81 88 94 95 94 98 100 100 100 100 100 99 100

GFSSGP_925_rhum_114.txt.gz
RH
60 58 58 52 75 84 80 74 72 58 51 36 37 30 30 28 28 42 72 83 88 80 93 87 86 84 86 84 87 90 89 91 93 97 97 98 96 94 97 94 90 91 92 88 84 83 79 89 95
58 57 52 74 79 65 45 72 69 62 48 40 32 27 29 38 57 78 78 87 87 80 92 87 86 82 83 83 85 81 88 88 90 97 91 97 94 94 96 94 94 96 96 86 81 85 89 93 85
53 52 67 78 87 62 42 60 65 45 43 34 28 25 31 56 72 76 74 82 89 89 90 86 86 85 84 84 84 84 81 84 85 88 91 91 94 93 91 93 89 88 86 84 88 89 90 74 72
50 56 73 84 90 74 48 52 54 44 37 32 27 27 26 44 77 90 80 85 87 92 90 87 83 73 76 79 79 85 83 81 85 85 87 90 89 93 88 92 86 82 88 85 93 89 73 71 68
52 64 80 83 82 79 65 58 45 46 39 32 28 26 27 36 50 67 97 81 93 96 98 89 88 74 63 60 70 75 78 79 80 84 86 89 82 84 95 87 82 85 90 94 96 85 66 70 66
75 70 62 66 73 66 61 55 39 39 31 30 25 27 26 26 36 72 84 75 75 80 87 87 87 78 64 61 57 62 76 81 78 82 82 85 83 84 95 88 82 78 84 95 88 73 62 70 67
73 68 63 68 69 60 53 42 41 34 34 30 26 28 25 30 24 59 97 76 70 74 76 76 85 82 80 74 67 60 69 79 82 83 83 84 83 88 94 88 76 57 62 64 60 58 58 68 68
78 67 85 75 67 50 47 40 34 31 32 29 24 30 28 31 23 44 76 94 77 72 76 77 78 83 82 82 82 86 69 72 83 84 86 86 86 88 94 89 75 51 44 42 40 43 63 64 64
53 75 78 64 76 50 47 49 40 36 36 33 29 25 34 26 24 20 38 76 97 93 82 67 76 80 84 80 76 75 86 66 87 84 86 90 90 90 92 86 81 65 45 39 42 45 60 63 66
61 66 60 58 54 50 51 50 49 46 42 40 34 29 25 24 26 30 40 62 87 96 98 92 70 78 77 80 81 77 80 81 79 91 86 92 88 89 91 86 85 78 50 45 47 45 51 59 65
69 65 63 52 49 52 54 52 45 45 50 45 40 32 34 29 29 36 32 38 51 70 97 100 98 83 75 75 84 79 76 81 82 84 92 89 91 90 87 86 86 83 62 57 58 59 57 54 55
60 60 60 58 58 65 65 55 61 51 46 39 37 35 37 40 42 34 34 25 28 44 74 95 99 99 92 85 82 75 73 74 81 78 88 93 92 92 81 88 85 83 75 65 61 60 60 58 56
68 67 66 63 68 67 64 68 66 60 48 45 45 44 49 49 42 31 26 25 24 39 59 86 98 100 96 89 79 73 69 66 66 67 66 85 94 96 82 85 85 83 80 76 75 67 62 57 50
74 76 75 70 70 67 70 67 61 59 52 52 50 50 49 51 44 35 31 27 24 26 50 76 98 98 94 89 82 74 66 62 61 64 75 69 72 85 85 82 80 81 79 80 85 72 64 59 49
75 83 78 68 68 70 70 72 77 55 51 54 50 48 49 53 43 42 30 26 22 22 35 68 79 93 94 85 77 75 68 74 76 69 64 81 86 79 77 77 77 81 82 79 80 76 72 67 60
84 75 79 52 70 60 56 75 50 48 54 57 53 47 48 51 51 38 32 28 24 25 32 40 68 80 91 85 79 72 71 77 67 62 65 71 91 92 87 75 77 78 84 80 80 80 78 71 71
79 91 90 79 60 65 66 79 63 57 58 56 51 50 50 50 53 42 33 29 26 24 24 29 54 73 72 79 82 79 75 64 61 67 69 79 89 99 97 85 80 83 92 86 81 84 83 81 70
83 90 81 89 70 66 79 79 63 56 59 62 59 58 59 60 56 46 35 30 27 25 24 25 42 71 76 75 76 72 72 72 75 75 72 82 90 96 100 100 100 97 100 94 85 85 85 84 72
74 69 70 64 64 75 82 80 70 61 66 75 72 73 73 71 59 52 45 33 30 32 37 30 47 72 87 100 100 96 98 100 98 85 84 91 98 99 100 100 99 99 99 90 87 86 87 85 79
82 83 83 68 64 77 78 78 65 63 67 72 74 79 81 73 67 64 58 51 42 36 36 37 53 55 82 96 100 94 92 94 99 96 93 100 97 96 98 99 94 95 98 92 86 84 87 83 74
92 95 84 74 60 70 80 89 76 63 74 75 76 77 76 74 70 72 72 64 52 49 40 53 63 69 99 96 96 98 99 100 94 99 98 99 100 100 100 90 81 83 86 88 82 88 86 77 73
97 71 70 63 77 95 70 92 67 84 87 76 83 87 85 83 79 75 75 71 60 46 39 57 74 91 100 96 100 99 98 97 93 94 98 99 100 99 89 85 80 67 62 63 68 76 74 76 77
83 72 89 92 96 99 85 99 76 81 87 87 83 84 85 83 84 78 74 69 57 60 72 82 82 94 87 95 100 100 100 93 92 96 98 94 96 100 98 91 77 76 70 66 96 70 73 71 78
72 90 87 94 97 99 86 97 88 97 98 92 82 82 80 96 87 82 83 84 84 76 80 93 91 96 87 89 96 99 97 93 95 98 100 100 100 100 100 100 100 100 96 83 77 58 62 74 81
87 96 94 88 98 93 98 100 99 97 93 96 95 94 95 92 90 94 95 94 91 90 96 95 93 91 90 97 99 94 93 94 88 97 100 100 100 100 100 100 100 100 86 84 82 68 68 71 80
88 96 98 97 98 94 92 98 97 93 84 88 90 93 88 90 91 96 97 96 98 100 91 80 79 70 78 91 98 100 99 99 97 95 100 100 94 99 99 97 96 92 90 85 82 83 82 84 86
91 100 94 100 94 98 98 98 90 84 93 87 91 92 96 96 96 96 94 99 100 100 100 93 99 100 100 100 99 99 100 97 98 100 100 100 96 95 91 93 91 86 86 79 80 82 83 85 91
90 90 100 100 97 96 96 98 98 98 99 94 94 96 96 94 93 94 94 98 100 100 100 98 100 99 100 100 100 100 100 100 100 97 96 98 99 100 100 99 98 96 91 87 91 92 91 100 97
98 100 100 99 97 96 94 98 100 100 100 99 94 90 90 89 91 91 91 96 98 97 99 100 99 100 100 94 94 97 99 100 100 100 100 100 100 100 100 100 100 100 100 100 100 100 99 97 95
85 94 90 95 98 88 95 98 94 95 93 84 82 79 74 71 71 72 76 84 89 89 90 91 94 91 84 80 73 74 72 74 74 76 78 79 83 86 89 90 90 92 95 97 99 99 100 100 100

GFSSGP_925_rhum_117.txt.gz
RH
56 56 58 46 54 58 59 49 68 58 54 37 35 31 29 26 26 40 74 88 93 86 92 92 81 85 79 81 81 87 86 87 89 91 96 99 96 96 96 92 89 82 89 82 87 90 80 84 91
58 57 51 54 57 42 28 59 63 56 44 37 33 27 30 32 57 70 79 91 91 97 100 95 77 86 85 83 84 88 87 86 90 93 91 98 96 95 97 90 93 94 89 81 82 78 84 92 95
53 50 56 56 61 37 26 49 56 43 37 32 27 25 33 57 51 82 89 95 89 97 97 90 82 85 86 83 84 86 87 86 86 94 87 92 92 94 96 88 94 90 84 76 82 83 88 78 72
51 51 58 64 58 58 41 52 51 40 35 29 27 26 42 38 59 84 96 100 97 96 94 89 83 84 87 85 82 80 85 85 86 86 86 84 87 87 85 91 89 84 84 78 83 84 75 72 66
48 50 63 63 60 67 62 54 45 43 36 30 26 26 27 31 33 71 99 100 98 97 96 93 84 81 86 84 83 81 79 80 83 85 88 88 82 83 86 91 84 78 80 82 88 82 71 68 64
65 50 47 44 53 57 56 52 44 38 32 27 25 26 26 27 24 53 97 100 100 95 86 86 85 83 77 81 84 84 83 82 83 85 86 86 83 84 84 86 84 77 81 85 92 75 69 66 64
62 45 38 47 49 51 46 41 43 38 32 30 26 27 24 29 24 26 73 84 86 94 79 73 80 82 77 70 69 79 81 83 81 82 85 86 87 84 86 85 83 75 82 98 95 74 65 65 66
68 56 68 64 56 39 46 39 35 32 33 28 24 27 27 31 24 22 25 75 83 91 93 85 77 77 78 77 70 66 68 81 86 83 84 86 88 88 88 86 85 67 62 80 72 71 63 66 66
54 58 57 51 63 44 46 45 38 38 37 32 29 26 27 27 24 21 22 24 61 86 99 100 88 80 72 71 70 70 70 60 73 85 83 87 92 90 91 89 83 60 46 55 56 58 63 66 66
58 48 46 52 57 50 51 50 46 43 40 38 34 29 25 24 28 37 35 31 25 36 70 97 99 93 84 80 78 74 72 70 71 90 84 89 88 88 93 92 85 72 45 44 47 53 70 69 67
66 52 57 52 50 55 53 50 44 47 46 40 34 31 30 34 32 34 37 29 25 23 31 68 97 95 90 77 78 71 68 66 70 84 87 88 89 89 88 94 95 88 69 77 70 72 86 69 66
51 59 61 57 59 64 61 56 56 49 38 32 34 34 37 38 39 38 38 32 25 22 21 46 82 93 89 87 83 75 72 70 77 73 82 88 94 94 94 98 90 97 90 65 73 86 66 64 63
63 68 65 63 65 64 60 62 57 56 44 40 42 44 45 47 45 45 35 32 28 26 20 26 67 90 86 90 88 80 75 72 77 80 76 73 82 90 90 92 86 88 87 75 62 67 70 67 65
73 74 72 67 66 64 64 61 62 50 50 49 49 48 47 49 45 44 40 34 29 23 21 20 48 85 99 93 89 79 74 78 83 84 86 84 83 77 75 81 80 82 81 81 71 69 68 71 67
72 71 69 64 65 68 68 72 76 50 52 50 46 44 46 49 48 47 40 37 30 26 22 22 31 70 97 98 93 83 75 67 66 68 76 88 91 86 86 82 77 74 76 79 81 82 85 73 67
77 68 57 49 64 61 57 60 48 45 52 50 48 46 45 41 44 46 38 36 32 30 28 22 31 57 85 99 94 91 85 74 66 67 72 67 65 84 94 93 92 81 81 79 80 88 89 80 73
72 71 83 73 60 67 68 71 57 51 48 51 50 49 48 49 48 49 42 39 35 31 29 29 26 40 68 87 94 90 86 83 80 79 66 59 61 69 97 98 94 92 88 92 87 84 88 83 79
82 87 76 80 65 64 73 76 61 56 55 55 53 54 54 56 53 51 48 43 37 31 30 28 29 28 44 71 87 93 92 88 83 76 68 70 74 71 81 99 99 95 100 100 89 87 76 86 84
76 73 78 67 58 72 77 76 62 56 58 61 64 68 66 66 58 61 55 50 43 36 31 31 32 29 34 88 99 99 92 77 77 66 63 79 95 92 94 96 100 98 100 99 94 100 87 91 84
84 91 86 69 64 74 70 67 58 60 63 67 68 70 72 70 67 63 63 54 47 39 34 35 35 37 39 72 91 91 90 86 75 79 98 90 91 97 98 97 100 100 100 100 100 100 95 94 92
90 90 85 77 67 62 72 77 68 56 71 70 66 69 72 73 70 65 62 64 54 57 48 40 40 39 47 92 100 97 94 88 90 91 100 84 91 92 97 98 100 100 100 100 100 86 92 95 84
90 74 74 77 86 93 66 92 71 79 74 70 74 73 75 75 71 70 70 69 63 57 49 42 41 46 58 82 97 96 92 94 94 99 87 86 95 96 96 95 100 100 100 100 96 85 87 87 91
76 71 85 90 96 99 81 98 75 77 79 90 84 73 78 79 84 80 76 72 60 59 53 41 43 64 69 87 99 97 92 91 95 91 91 92 98 96 92 98 100 100 94 93 95 88 77 65 72
68 85 86 91 82 98 79 91 83 98 100 94 83 87 90 86 83 81 87 79 82 76 71 72 85 80 96 100 99 98 98 98 97 96 100 100 100 98 98 100 100 100 88 74 76 67 64 69 58
89 94 96 85 97 90 84 100 94 96 94 94 97 89 88 86 86 88 89 87 91 89 92 100 100 97 99 99 95 97 97 100 100 99 100 100 98 97 99 100 100 100 96 76 80 82 86 89 98
83 87 96 97 92 88 88 95 94 80 86 84 83 87 85 89 89 90 92 94 97 97 99 100 100 99 91 93 92 82 83 95 100 100 97 99 96 96 100 100 100 100 99 99 93 78 75 84 84
94 99 85 100 91 96 90 96 92 77 92 92 91 86 89 92 91 94 95 99 99 99 100 99 97 86 75 79 86 86 99 100 100 99 96 100 100 100 100 99 100 100 100 96 97 98 91 90 90
91 86 100 99 98 92 86 97 98 98 99 97 95 94 88 89 91 92 94 97 100 100 100 100 100 100 100 99 99 100 99 100 100 100 100 100 100 99 100 99 96 96 96 98 100 94 94 95 94
98 100 100 99 99 94 92 93 99 100 98 97 91 84 83 85 87 91 93 96 98 100 100 100 100 100 100 99 100 99 100 100 100 99 100 100 100 100 100 99 100 100 100 100 100 100 99 99 99
87 94 92 95 96 92 93 98 86 87 91 85 83 75 70 70 73 78 85 91 95 98 99 100 96 100 98 99 92 94 93 91 88 88 89 90 90 90 87 89 85 91 97 99 99 99 99 98 97